| time (UTC) | temp C | wind direction | speed KPH | gust KPH | rain 1hr cm | rain 24hr cm | rain mn cm | humidity % | barometer mb |
| 20260508220803 | 16 | 221 | 3.2 | 16.1 | 0.00 | 0.00 | 0.00 | 55 | 1009.9 |
| 20260508220703 | 16 | 229 | 4.8 | 16.1 | 0.00 | 0.00 | 0.00 | 55 | 1009.5 |
| 20260508220603 | 16 | 246 | 6.4 | 16.1 | 0.00 | 0.00 | 0.00 | 55 | 1009.9 |
| 20260508220503 | 17 | 259 | 1.6 | 16.1 | 0.00 | 0.00 | 0.00 | 55 | 1009.5 |
| 20260508220403 | 17 | 248 | 3.2 | 16.1 | 0.00 | 0.00 | 0.00 | 54 | 1009.5 |
| 20260508220303 | 17 | 294 | 4.8 | 16.1 | 0.00 | 0.00 | 0.00 | 54 | 1009.5 |
| 20260508220203 | 17 | 270 | 3.2 | 16.1 | 0.00 | 0.00 | 0.00 | 54 | 1009.5 |
| 20260508220103 | 17 | 252 | 3.2 | 16.1 | 0.00 | 0.00 | 0.00 | 54 | 1009.5 |
| 20260508220003 | 17 | 260 | 4.8 | 16.1 | 0.00 | 0.00 | 0.00 | 54 | 1009.5 |
| 20260508215903 | 17 | 287 | 6.4 | 16.1 | 0.00 | 0.00 | 0.00 | 53 | 1009.5 |
| 20260508215803 | 17 | 283 | 8.0 | 16.1 | 0.00 | 0.00 | 0.00 | 53 | 1009.5 |
| 20260508215703 | 17 | 252 | 8.0 | 16.1 | 0.00 | 0.00 | 0.00 | 53 | 1009.5 |
| 20260508215603 | 17 | 269 | 6.4 | 16.1 | 0.00 | 0.00 | 0.00 | 53 | 1009.5 |
| 20260508215503 | 17 | 243 | 4.8 | 17.7 | 0.00 | 0.00 | 0.00 | 53 | 1009.5 |
| 20260508215403 | 17 | 263 | 3.2 | 19.3 | 0.00 | 0.00 | 0.00 | 53 | 1009.5 |
| 20260508215306 | 17 | 235 | 3.2 | 19.3 | 0.00 | 0.00 | 0.00 | 53 | 1009.5 |
| 20260508215203 | 17 | 229 | 3.2 | 19.3 | 0.00 | 0.00 | 0.00 | 53 | 1009.5 |
| 20260508215103 | 17 | 301 | 4.8 | 19.3 | 0.00 | 0.00 | 0.00 | 53 | 1009.5 |
| 20260508215003 | 17 | 284 | 3.2 | 19.3 | 0.00 | 0.00 | 0.00 | 53 | 1009.5 |
| 20260508214903 | 17 | 285 | 6.4 | 20.9 | 0.00 | 0.00 | 0.00 | 52 | 1009.2 |
| 20260508214803 | 17 | 267 | 4.8 | 20.9 | 0.00 | 0.00 | 0.00 | 52 | 1009.2 |
| 20260508214703 | 17 | 222 | 4.8 | 20.9 | 0.00 | 0.00 | 0.00 | 52 | 1009.2 |
| 20260508214603 | 17 | 249 | 6.4 | 20.9 | 0.00 | 0.00 | 0.00 | 51 | 1009.5 |
| 20260508214503 | 17 | 319 | 9.7 | 24.1 | 0.00 | 0.00 | 0.00 | 52 | 1009.5 |
| 20260508214403 | 17 | 329 | 6.4 | 24.1 | 0.00 | 0.00 | 0.00 | 51 | 1009.5 |
| 20260508214303 | 17 | 276 | 9.7 | 24.1 | 0.00 | 0.00 | 0.00 | 51 | 1009.5 |
| 20260508214203 | 17 | 312 | 6.4 | 24.1 | 0.00 | 0.00 | 0.00 | 51 | 1009.5 |
| 20260508214103 | 17 | 278 | 6.4 | 24.1 | 0.00 | 0.00 | 0.00 | 51 | 1009.5 |
| 20260508214003 | 17 | 263 | 9.7 | 24.1 | 0.00 | 0.00 | 0.00 | 50 | 1009.5 |
| 20260508213903 | 17 | 255 | 9.7 | 24.1 | 0.00 | 0.00 | 0.00 | 50 | 1009.5 |
| 20260508213803 | 17 | 283 | 9.7 | 24.1 | 0.00 | 0.00 | 0.00 | 49 | 1009.5 |
| 20260508213703 | 17 | 225 | 8.0 | 27.4 | 0.00 | 0.00 | 0.00 | 48 | 1009.5 |
| 20260508213603 | 17 | 229 | 9.7 | 27.4 | 0.00 | 0.00 | 0.00 | 48 | 1009.5 |
| 20260508213503 | 17 | 215 | 8.0 | 27.4 | 0.00 | 0.00 | 0.00 | 48 | 1009.2 |
| 20260508213403 | 17 | 249 | 4.8 | 27.4 | 0.00 | 0.00 | 0.00 | 48 | 1009.5 |
| 20260508213303 | 17 | 186 | 3.2 | 27.4 | 0.00 | 0.00 | 0.00 | 48 | 1009.5 |
| 20260508213203 | 17 | 177 | 4.8 | 27.4 | 0.00 | 0.00 | 0.00 | 48 | 1009.5 |
| 20260508213103 | 17 | 288 | 3.2 | 27.4 | 0.00 | 0.00 | 0.00 | 47 | 1009.5 |
| 20260508213003 | 17 | 276 | 8.0 | 27.4 | 0.00 | 0.00 | 0.00 | 47 | 1009.5 |
| 20260508212903 | 17 | 294 | 8.0 | 27.4 | 0.00 | 0.00 | 0.00 | 47 | 1009.5 |
| 20260508212803 | 17 | 323 | 9.7 | 27.4 | 0.00 | 0.00 | 0.00 | 47 | 1009.5 |
| 20260508212703 | 17 | 198 | 9.7 | 19.3 | 0.00 | 0.00 | 0.00 | 47 | 1009.5 |
| 20260508212603 | 17 | 219 | 9.7 | 19.3 | 0.00 | 0.00 | 0.00 | 47 | 1009.5 |
| 20260508212503 | 17 | 271 | 8.0 | 19.3 | 0.00 | 0.00 | 0.00 | 47 | 1009.5 |
| 20260508212403 | 17 | 266 | 9.7 | 19.3 | 0.00 | 0.00 | 0.00 | 48 | 1009.5 |
| 20260508212306 | 18 | 314 | 6.4 | 19.3 | 0.00 | 0.00 | 0.00 | 49 | 1009.5 |
| 20260508212203 | 18 | 284 | 6.4 | 19.3 | 0.00 | 0.00 | 0.00 | 49 | 1009.5 |
| 20260508212103 | 18 | 149 | 4.8 | 19.3 | 0.00 | 0.00 | 0.00 | 48 | 1009.5 |
| 20260508212003 | 18 | 181 | 8.0 | 19.3 | 0.00 | 0.00 | 0.00 | 48 | 1009.5 |
| 20260508211903 | 18 | 24 | 8.0 | 22.5 | 0.00 | 0.00 | 0.00 | 49 | 1009.5 |
| 20260508211803 | 18 | 8 | 8.0 | 22.5 | 0.00 | 0.00 | 0.00 | 48 | 1009.5 |
| 20260508211703 | 18 | 253 | 6.4 | 22.5 | 0.00 | 0.00 | 0.00 | 49 | 1009.5 |
| 20260508211603 | 18 | 194 | 1.6 | 22.5 | 0.00 | 0.00 | 0.00 | 49 | 1009.5 |
| 20260508211503 | 17 | 322 | 4.8 | 22.5 | 0.00 | 0.00 | 0.00 | 49 | 1009.5 |
| 20260508211403 | 18 | 184 | 6.4 | 22.5 | 0.00 | 0.00 | 0.00 | 49 | 1009.5 |
| 20260508211303 | 17 | 195 | 8.0 | 22.5 | 0.00 | 0.00 | 0.00 | 48 | 1009.5 |
| 20260508211203 | 17 | 231 | 9.7 | 22.5 | 0.00 | 0.00 | 0.00 | 48 | 1009.5 |
| 20260508211103 | 17 | 210 | 9.7 | 22.5 | 0.00 | 0.00 | 0.00 | 48 | 1009.5 |
| 20260508211003 | 17 | 242 | 11.3 | 22.5 | 0.00 | 0.00 | 0.00 | 48 | 1009.5 |
| 20260508210903 | 17 | 214 | 11.3 | 19.3 | 0.00 | 0.00 | 0.00 | 48 | 1009.5 |
| 20260508210803 | 17 | 187 | 11.3 | 19.3 | 0.00 | 0.00 | 0.00 | 48 | 1009.5 |
| 20260508210703 | 17 | 203 | 9.7 | 19.3 | 0.00 | 0.00 | 0.00 | 48 | 1009.5 |
| 20260508210603 | 17 | 158 | 12.9 | 19.3 | 0.00 | 0.00 | 0.00 | 48 | 1009.5 |
| 20260508210503 | 17 | 233 | 8.0 | 17.7 | 0.00 | 0.00 | 0.00 | 48 | 1009.5 |
| 20260508210403 | 17 | 177 | 3.2 | 17.7 | 0.00 | 0.00 | 0.00 | 49 | 1009.5 |
| 20260508210303 | 18 | 228 | 3.2 | 19.3 | 0.00 | 0.00 | 0.00 | 49 | 1009.5 |
| 20260508210203 | 17 | 218 | 4.8 | 22.5 | 0.00 | 0.00 | 0.00 | 49 | 1009.5 |
| 20260508210103 | 17 | 243 | 9.7 | 22.5 | 0.00 | 0.00 | 0.00 | 49 | 1009.2 |
| 20260508210003 | 17 | 165 | 8.0 | 22.5 | 0.00 | 0.00 | 0.00 | 49 | 1009.5 |
| 20260508205903 | 17 | 197 | 12.9 | 22.5 | 0.00 | 0.00 | 0.00 | 48 | 1009.5 |
| 20260508205803 | 17 | 205 | 8.0 | 22.5 | 0.00 | 0.00 | 0.00 | 48 | 1009.5 |
| 20260508205703 | 17 | 149 | 6.4 | 22.5 | 0.00 | 0.00 | 0.00 | 49 | 1009.5 |
| 20260508205603 | 17 | 278 | 9.7 | 22.5 | 0.00 | 0.00 | 0.00 | 48 | 1009.5 |
| 20260508205503 | 17 | 186 | 8.0 | 22.5 | 0.00 | 0.00 | 0.00 | 49 | 1009.5 |
| 20260508205403 | 17 | 224 | 11.3 | 22.5 | 0.00 | 0.00 | 0.00 | 48 | 1009.5 |
| 20260508205306 | 17 | 214 | 14.5 | 22.5 | 0.00 | 0.00 | 0.00 | 48 | 1009.5 |
| 20260508205203 | 17 | 211 | 9.7 | 22.5 | 0.00 | 0.00 | 0.00 | 48 | 1009.5 |
| 20260508205103 | 17 | 204 | 6.4 | 22.5 | 0.00 | 0.00 | 0.00 | 48 | 1009.5 |
| 20260508205003 | 17 | 307 | 14.5 | 22.5 | 0.00 | 0.00 | 0.00 | 48 | 1009.5 |
| 20260508204903 | 17 | 218 | 11.3 | 24.1 | 0.00 | 0.00 | 0.00 | 48 | 1009.5 |
| 20260508204803 | 17 | 238 | 11.3 | 24.1 | 0.00 | 0.00 | 0.00 | 48 | 1009.5 |
| 20260508204703 | 17 | 156 | 9.7 | 24.1 | 0.00 | 0.00 | 0.00 | 48 | 1009.5 |
| 20260508204603 | 17 | 240 | 14.5 | 24.1 | 0.00 | 0.00 | 0.00 | 48 | 1009.5 |
| 20260508204503 | 17 | 218 | 11.3 | 24.1 | 0.00 | 0.00 | 0.00 | 47 | 1009.5 |
| 20260508204403 | 17 | 193 | 12.9 | 24.1 | 0.00 | 0.00 | 0.00 | 47 | 1009.5 |
| 20260508204303 | 17 | 205 | 11.3 | 24.1 | 0.00 | 0.00 | 0.00 | 47 | 1009.5 |
| 20260508204203 | 17 | 257 | 12.9 | 24.1 | 0.00 | 0.00 | 0.00 | 47 | 1009.5 |
| 20260508204103 | 17 | 193 | 12.9 | 24.1 | 0.00 | 0.00 | 0.00 | 47 | 1009.5 |
| 20260508204003 | 17 | 211 | 12.9 | 27.4 | 0.00 | 0.00 | 0.00 | 47 | 1009.5 |
| 20260508203904 | 17 | 208 | 12.9 | 27.4 | 0.00 | 0.00 | 0.00 | 46 | 1009.5 |
| 20260508203803 | 17 | 195 | 12.9 | 27.4 | 0.00 | 0.00 | 0.00 | 47 | 1009.5 |
| 20260508203703 | 18 | 195 | 11.3 | 27.4 | 0.00 | 0.00 | 0.00 | 47 | 1009.5 |
| 20260508203603 | 17 | 194 | 12.9 | 27.4 | 0.00 | 0.00 | 0.00 | 46 | 1009.5 |
| 20260508203503 | 18 | 208 | 11.3 | 27.4 | 0.00 | 0.00 | 0.00 | 46 | 1009.5 |
| 20260508203403 | 17 | 222 | 12.9 | 27.4 | 0.00 | 0.00 | 0.00 | 46 | 1009.5 |
| 20260508203303 | 18 | 205 | 14.5 | 27.4 | 0.00 | 0.00 | 0.00 | 46 | 1009.5 |
| 20260508203203 | 18 | 176 | 12.9 | 27.4 | 0.00 | 0.00 | 0.00 | 46 | 1009.5 |
| 20260508203103 | 17 | 243 | 14.5 | 27.4 | 0.00 | 0.00 | 0.00 | 46 | 1009.5 |
| 20260508203003 | 18 | 222 | 17.7 | 27.4 | 0.00 | 0.00 | 0.00 | 45 | 1009.5 |
| 20260508202903 | 18 | 208 | 12.9 | 27.4 | 0.00 | 0.00 | 0.00 | 46 | 1009.5 |
| 20260508202803 | 18 | 229 | 12.9 | 27.4 | 0.00 | 0.00 | 0.00 | 46 | 1009.5 |
| 20260508202703 | 18 | 307 | 12.9 | 25.7 | 0.00 | 0.00 | 0.00 | 45 | 1009.5 |
| 20260508202603 | 18 | 281 | 11.3 | 25.7 | 0.00 | 0.00 | 0.00 | 46 | 1009.5 |
| 20260508202503 | 18 | 204 | 11.3 | 25.7 | 0.00 | 0.00 | 0.00 | 46 | 1009.5 |
| 20260508202403 | 18 | 197 | 9.7 | 20.9 | 0.00 | 0.00 | 0.00 | 46 | 1009.5 |
| 20260508202306 | 18 | 215 | 12.9 | 20.9 | 0.00 | 0.00 | 0.00 | 46 | 1009.5 |
| 20260508202203 | 18 | 262 | 11.3 | 20.9 | 0.00 | 0.00 | 0.00 | 46 | 1009.5 |
| 20260508202103 | 18 | 183 | 11.3 | 20.9 | 0.00 | 0.00 | 0.00 | 46 | 1009.5 |
| 20260508202003 | 18 | 215 | 11.3 | 20.9 | 0.00 | 0.00 | 0.00 | 45 | 1009.2 |
| 20260508201903 | 18 | 217 | 12.9 | 22.5 | 0.00 | 0.00 | 0.00 | 45 | 1009.2 |
| 20260508201803 | 18 | 212 | 9.7 | 22.5 | 0.00 | 0.00 | 0.00 | 45 | 1009.2 |
| 20260508201703 | 18 | 188 | 12.9 | 22.5 | 0.00 | 0.00 | 0.00 | 44 | 1009.5 |
| 20260508201603 | 18 | 195 | 9.7 | 22.5 | 0.00 | 0.00 | 0.00 | 45 | 1009.5 |
| 20260508201503 | 18 | 255 | 11.3 | 25.7 | 0.00 | 0.00 | 0.00 | 44 | 1009.2 |
| 20260508201403 | 18 | 181 | 9.7 | 25.7 | 0.00 | 0.00 | 0.00 | 46 | 1009.2 |
| 20260508201303 | 18 | 226 | 11.3 | 25.7 | 0.00 | 0.00 | 0.00 | 45 | 1009.5 |
| 20260508201203 | 18 | 233 | 11.3 | 25.7 | 0.00 | 0.00 | 0.00 | 45 | 1009.5 |
| 20260508201103 | 18 | 170 | 9.7 | 25.7 | 0.00 | 0.00 | 0.00 | 45 | 1009.5 |
| 20260508201003 | 18 | 231 | 12.9 | 25.7 | 0.00 | 0.00 | 0.00 | 45 | 1009.5 |
| 20260508200903 | 18 | 160 | 12.9 | 25.7 | 0.00 | 0.00 | 0.00 | 45 | 1009.5 |
| 20260508200803 | 18 | 214 | 8.0 | 27.4 | 0.00 | 0.00 | 0.00 | 45 | 1009.5 |
| 20260508200703 | 18 | 256 | 11.3 | 30.6 | 0.00 | 0.00 | 0.00 | 45 | 1009.5 |
| 20260508200603 | 18 | 174 | 9.7 | 30.6 | 0.00 | 0.00 | 0.00 | 45 | 1009.5 |
| 20260508200503 | 18 | 255 | 11.3 | 30.6 | 0.00 | 0.00 | 0.00 | 45 | 1009.5 |
| 20260508200403 | 18 | 191 | 11.3 | 30.6 | 0.00 | 0.00 | 0.00 | 46 | 1009.5 |
| 20260508200303 | 18 | 274 | 11.3 | 30.6 | 0.00 | 0.00 | 0.00 | 45 | 1009.5 |
| 20260508200203 | 18 | 280 | 14.5 | 30.6 | 0.00 | 0.00 | 0.00 | 45 | 1009.5 |
| 20260508200103 | 18 | 181 | 14.5 | 30.6 | 0.00 | 0.00 | 0.00 | 44 | 1009.5 |
| 20260508200003 | 18 | 267 | 12.9 | 30.6 | 0.00 | 0.00 | 0.00 | 45 | 1009.5 |
| 20260508195903 | 18 | 186 | 14.5 | 30.6 | 0.00 | 0.00 | 0.00 | 45 | 1009.5 |
| 20260508195803 | 18 | 186 | 14.5 | 30.6 | 0.00 | 0.00 | 0.00 | 44 | 1009.5 |
| 20260508195703 | 18 | 267 | 12.9 | 30.6 | 0.00 | 0.00 | 0.00 | 44 | 1009.5 |
| 20260508195603 | 18 | 198 | 9.7 | 30.6 | 0.00 | 0.00 | 0.00 | 45 | 1009.5 |
| 20260508195503 | 18 | 228 | 9.7 | 30.6 | 0.00 | 0.00 | 0.00 | 45 | 1009.5 |
| 20260508195403 | 18 | 232 | 16.1 | 30.6 | 0.00 | 0.00 | 0.00 | 43 | 1009.5 |
| 20260508195306 | 18 | 201 | 17.7 | 30.6 | 0.00 | 0.00 | 0.00 | 44 | 1009.5 |
| 20260508195203 | 18 | 194 | 14.5 | 30.6 | 0.00 | 0.00 | 0.00 | 44 | 1009.5 |
| 20260508195103 | 18 | 179 | 12.9 | 27.4 | 0.00 | 0.00 | 0.00 | 44 | 1009.5 |
| 20260508195003 | 18 | 211 | 11.3 | 29.0 | 0.00 | 0.00 | 0.00 | 45 | 1009.5 |
| 20260508194903 | 18 | 211 | 11.3 | 29.0 | 0.00 | 0.00 | 0.00 | 45 | 1009.5 |
| 20260508194803 | 18 | 224 | 12.9 | 29.0 | 0.00 | 0.00 | 0.00 | 45 | 1009.9 |
| 20260508194703 | 18 | 170 | 12.9 | 29.0 | 0.00 | 0.00 | 0.00 | 45 | 1009.9 |
| 20260508194603 | 18 | 167 | 9.7 | 29.0 | 0.00 | 0.00 | 0.00 | 45 | 1009.9 |
| 20260508194503 | 18 | 231 | 9.7 | 29.0 | 0.00 | 0.00 | 0.00 | 45 | 1009.9 |
| 20260508194403 | 18 | 176 | 9.7 | 29.0 | 0.00 | 0.00 | 0.00 | 45 | 1009.9 |
| 20260508194303 | 18 | 212 | 12.9 | 29.0 | 0.00 | 0.00 | 0.00 | 45 | 1009.9 |
| 20260508194203 | 18 | 238 | 14.5 | 29.0 | 0.00 | 0.00 | 0.00 | 43 | 1009.9 |
| 20260508194103 | 18 | 201 | 14.5 | 29.0 | 0.00 | 0.00 | 0.00 | 45 | 1009.9 |
| 20260508194003 | 18 | 158 | 11.3 | 24.1 | 0.00 | 0.00 | 0.00 | 44 | 1009.9 |
| 20260508193903 | 18 | 183 | 11.3 | 24.1 | 0.00 | 0.00 | 0.00 | 44 | 1009.9 |
| 20260508193803 | 18 | 214 | 11.3 | 24.1 | 0.00 | 0.00 | 0.00 | 44 | 1009.9 |
| 20260508193703 | 18 | 208 | 11.3 | 24.1 | 0.00 | 0.00 | 0.00 | 44 | 1009.9 |
| 20260508193603 | 18 | 193 | 9.7 | 24.1 | 0.00 | 0.00 | 0.00 | 45 | 1009.9 |
| 20260508193503 | 18 | 141 | 8.0 | 27.4 | 0.00 | 0.00 | 0.00 | 45 | 1009.9 |
| 20260508193403 | 18 | 183 | 11.3 | 29.0 | 0.00 | 0.00 | 0.00 | 45 | 1009.9 |
| 20260508193303 | 18 | 212 | 8.0 | 29.0 | 0.00 | 0.00 | 0.00 | 47 | 1009.9 |
| 20260508193203 | 18 | 203 | 14.5 | 29.0 | 0.00 | 0.00 | 0.00 | 45 | 1009.9 |
| 20260508193103 | 18 | 242 | 12.9 | 29.0 | 0.00 | 0.00 | 0.00 | 45 | 1010.2 |
| 20260508193003 | 18 | 195 | 9.7 | 29.0 | 0.00 | 0.00 | 0.00 | 45 | 1010.2 |
| 20260508192903 | 18 | 197 | 11.3 | 29.0 | 0.00 | 0.00 | 0.00 | 47 | 1010.2 |
| 20260508192803 | 18 | 205 | 11.3 | 29.0 | 0.00 | 0.00 | 0.00 | 47 | 1010.2 |
| 20260508192703 | 18 | 184 | 12.9 | 29.0 | 0.00 | 0.00 | 0.00 | 45 | 1010.2 |
| 20260508192603 | 18 | 211 | 16.1 | 29.0 | 0.00 | 0.00 | 0.00 | 46 | 1010.2 |
| 20260508192503 | 18 | 186 | 17.7 | 29.0 | 0.00 | 0.00 | 0.00 | 45 | 1010.2 |
| 20260508192403 | 18 | 180 | 14.5 | 25.7 | 0.00 | 0.00 | 0.00 | 47 | 1010.2 |
| 20260508192306 | 18 | 198 | 11.3 | 25.7 | 0.00 | 0.00 | 0.00 | 46 | 1010.2 |
| 20260508192203 | 18 | 215 | 9.7 | 20.9 | 0.00 | 0.00 | 0.00 | 46 | 1010.2 |
| 20260508192103 | 18 | 195 | 12.9 | 20.9 | 0.00 | 0.00 | 0.00 | 46 | 1010.2 |
| 20260508192003 | 18 | 180 | 11.3 | 20.9 | 0.00 | 0.00 | 0.00 | 46 | 1010.2 |
| 20260508191903 | 18 | 214 | 8.0 | 20.9 | 0.00 | 0.00 | 0.00 | 47 | 1010.2 |
| 20260508191803 | 18 | 224 | 9.7 | 20.9 | 0.00 | 0.00 | 0.00 | 46 | 1010.2 |
| 20260508191703 | 18 | 229 | 11.3 | 20.9 | 0.00 | 0.00 | 0.00 | 47 | 1010.2 |
| 20260508191603 | 18 | 205 | 16.1 | 20.9 | 0.00 | 0.00 | 0.00 | 46 | 1010.2 |
| 20260508191503 | 18 | 142 | 8.0 | 20.9 | 0.00 | 0.00 | 0.00 | 46 | 1010.2 |
| 20260508191403 | 18 | 180 | 4.8 | 20.9 | 0.00 | 0.00 | 0.00 | 46 | 1010.2 |
| 20260508191303 | 18 | 49 | 9.7 | 20.9 | 0.00 | 0.00 | 0.00 | 45 | 1010.2 |
| 20260508191203 | 18 | 214 | 11.3 | 20.9 | 0.00 | 0.00 | 0.00 | 45 | 1010.2 |
| 20260508191103 | 18 | 225 | 11.3 | 20.9 | 0.00 | 0.00 | 0.00 | 45 | 1010.5 |
| 20260508191003 | 18 | 177 | 6.4 | 14.5 | 0.00 | 0.00 | 0.00 | 46 | 1010.2 |
| 20260508190903 | 18 | 288 | 8.0 | 17.7 | 0.00 | 0.00 | 0.00 | 46 | 1010.5 |
| 20260508190803 | 18 | 270 | 6.4 | 17.7 | 0.00 | 0.00 | 0.00 | 47 | 1010.5 |
| 20260508190703 | 18 | 135 | 8.0 | 22.5 | 0.00 | 0.00 | 0.00 | 47 | 1010.5 |
| 20260508190603 | 18 | 138 | 3.2 | 22.5 | 0.00 | 0.00 | 0.00 | 46 | 1010.5 |
| 20260508190503 | 18 | 238 | 8.0 | 22.5 | 0.00 | 0.00 | 0.00 | 46 | 1010.5 |
| 20260508190403 | 18 | 214 | 6.4 | 22.5 | 0.00 | 0.00 | 0.00 | 46 | 1010.5 |
| 20260508190303 | 18 | 186 | 8.0 | 25.7 | 0.00 | 0.00 | 0.00 | 45 | 1010.5 |
| 20260508190203 | 18 | 271 | 4.8 | 25.7 | 0.00 | 0.00 | 0.00 | 46 | 1010.5 |
| 20260508190103 | 18 | 307 | 6.4 | 25.7 | 0.00 | 0.00 | 0.00 | 46 | 1010.5 |
| 20260508190004 | 18 | 210 | 9.7 | 25.7 | 0.00 | 0.00 | 0.00 | 45 | 1010.5 |
| 20260508185903 | 18 | 304 | 8.0 | 25.7 | 0.00 | 0.00 | 0.00 | 44 | 1010.5 |
| 20260508185803 | 18 | 264 | 9.7 | 25.7 | 0.00 | 0.00 | 0.00 | 45 | 1010.5 |
| 20260508185703 | 18 | 203 | 8.0 | 25.7 | 0.00 | 0.00 | 0.00 | 45 | 1010.5 |
| 20260508185603 | 18 | 207 | 12.9 | 25.7 | 0.00 | 0.00 | 0.00 | 45 | 1010.5 |
| 20260508185503 | 18 | 160 | 11.3 | 25.7 | 0.00 | 0.00 | 0.00 | 44 | 1010.5 |
| 20260508185403 | 18 | 204 | 16.1 | 29.0 | 0.00 | 0.00 | 0.00 | 45 | 1010.5 |
| 20260508185306 | 18 | 205 | 11.3 | 29.0 | 0.00 | 0.00 | 0.00 | 45 | 1010.5 |
| 20260508185203 | 18 | 191 | 12.9 | 29.0 | 0.00 | 0.00 | 0.00 | 45 | 1010.5 |
| 20260508185103 | 18 | 231 | 11.3 | 29.0 | 0.00 | 0.00 | 0.00 | 44 | 1010.9 |
| 20260508185003 | 18 | 200 | 14.5 | 29.0 | 0.00 | 0.00 | 0.00 | 44 | 1010.5 |
| 20260508184903 | 18 | 198 | 12.9 | 29.0 | 0.00 | 0.00 | 0.00 | 44 | 1010.5 |
| 20260508184803 | 18 | 221 | 16.1 | 29.0 | 0.00 | 0.00 | 0.00 | 43 | 1010.9 |
| 20260508184703 | 18 | 194 | 12.9 | 29.0 | 0.00 | 0.00 | 0.00 | 43 | 1010.5 |
| 20260508184604 | 18 | 205 | 11.3 | 29.0 | 0.00 | 0.00 | 0.00 | 43 | 1010.5 |
| 20260508184504 | 18 | 217 | 14.5 | 29.0 | 0.00 | 0.00 | 0.00 | 43 | 1010.9 |
| 20260508184403 | 19 | 195 | 4.8 | 22.5 | 0.00 | 0.00 | 0.00 | 45 | 1010.9 |
| 20260508184303 | 18 | 283 | 8.0 | 22.5 | 0.00 | 0.00 | 0.00 | 44 | 1010.5 |
| 20260508184203 | 18 | 194 | 9.7 | 20.9 | 0.00 | 0.00 | 0.00 | 44 | 1010.5 |
| 20260508184103 | 18 | 188 | 11.3 | 20.9 | 0.00 | 0.00 | 0.00 | 43 | 1010.5 |
| 20260508184003 | 19 | 198 | 3.2 | 20.9 | 0.00 | 0.00 | 0.00 | 44 | 1010.5 |
| 20260508183903 | 19 | 159 | 8.0 | 20.9 | 0.00 | 0.00 | 0.00 | 43 | 1010.9 |
| 20260508183803 | 18 | 181 | 9.7 | 22.5 | 0.00 | 0.00 | 0.00 | 44 | 1010.9 |
| 20260508183703 | 18 | 250 | 9.7 | 30.6 | 0.00 | 0.00 | 0.00 | 42 | 1010.9 |
| 20260508183603 | 18 | 242 | 16.1 | 30.6 | 0.00 | 0.00 | 0.00 | 43 | 1010.5 |
| 20260508183503 | 19 | 194 | 8.0 | 30.6 | 0.00 | 0.00 | 0.00 | 43 | 1010.5 |
| 20260508183403 | 19 | 271 | 8.0 | 30.6 | 0.00 | 0.00 | 0.00 | 42 | 1010.5 |
| 20260508183303 | 19 | 156 | 8.0 | 30.6 | 0.00 | 0.00 | 0.00 | 44 | 1010.5 |
| 20260508183203 | 19 | 139 | 6.4 | 30.6 | 0.00 | 0.00 | 0.00 | 43 | 1010.5 |
| 20260508183103 | 19 | 215 | 8.0 | 30.6 | 0.00 | 0.00 | 0.00 | 44 | 1010.5 |
| 20260508183003 | 19 | 187 | 12.9 | 30.6 | 0.00 | 0.00 | 0.00 | 43 | 1010.5 |
| 20260508182903 | 19 | 191 | 14.5 | 30.6 | 0.00 | 0.00 | 0.00 | 42 | 1010.5 |
| 20260508182803 | 19 | 150 | 20.9 | 30.6 | 0.00 | 0.00 | 0.00 | 43 | 1010.5 |
| 20260508182703 | 19 | 181 | 16.1 | 30.6 | 0.00 | 0.00 | 0.00 | 43 | 1010.5 |
| 20260508182603 | 19 | 173 | 12.9 | 30.6 | 0.00 | 0.00 | 0.00 | 44 | 1010.5 |
| 20260508182503 | 19 | 214 | 19.3 | 30.6 | 0.00 | 0.00 | 0.00 | 43 | 1010.5 |
| 20260508182403 | 19 | 232 | 9.7 | 25.7 | 0.00 | 0.00 | 0.00 | 45 | 1010.5 |
| 20260508182306 | 19 | 228 | 11.3 | 25.7 | 0.00 | 0.00 | 0.00 | 45 | 1010.5 |
| 20260508182203 | 19 | 162 | 8.0 | 25.7 | 0.00 | 0.00 | 0.00 | 45 | 1010.5 |
| 20260508182103 | 19 | 243 | 9.7 | 25.7 | 0.00 | 0.00 | 0.00 | 44 | 1010.5 |
| 20260508182003 | 19 | 203 | 12.9 | 25.7 | 0.00 | 0.00 | 0.00 | 44 | 1010.5 |
| 20260508181903 | 19 | 194 | 14.5 | 25.7 | 0.00 | 0.00 | 0.00 | 43 | 1010.5 |
| 20260508181803 | 19 | 210 | 14.5 | 25.7 | 0.00 | 0.00 | 0.00 | 44 | 1010.5 |
| 20260508181703 | 19 | 187 | 12.9 | 25.7 | 0.00 | 0.00 | 0.00 | 44 | 1010.5 |
| 20260508181603 | 19 | 217 | 9.7 | 22.5 | 0.00 | 0.00 | 0.00 | 46 | 1010.5 |
| 20260508181503 | 19 | 203 | 4.8 | 22.5 | 0.00 | 0.00 | 0.00 | 45 | 1010.5 |
| 20260508181403 | 19 | 194 | 8.0 | 22.5 | 0.00 | 0.00 | 0.00 | 45 | 1010.5 |
| 20260508181303 | 18 | 262 | 8.0 | 22.5 | 0.00 | 0.00 | 0.00 | 45 | 1010.5 |
| 20260508181203 | 18 | 238 | 12.9 | 22.5 | 0.00 | 0.00 | 0.00 | 44 | 1010.5 |
| 20260508181103 | 19 | 204 | 9.7 | 22.5 | 0.00 | 0.00 | 0.00 | 44 | 1010.9 |
| 20260508181003 | 19 | 207 | 4.8 | 17.7 | 0.00 | 0.00 | 0.00 | 46 | 1010.9 |
| 20260508180903 | 18 | 231 | 9.7 | 17.7 | 0.00 | 0.00 | 0.00 | 45 | 1010.9 |
| 20260508180803 | 18 | 211 | 11.3 | 17.7 | 0.00 | 0.00 | 0.00 | 45 | 1010.9 |
| 20260508180703 | 18 | 218 | 8.0 | 17.7 | 0.00 | 0.00 | 0.00 | 46 | 1010.9 |
| 20260508180603 | 19 | 229 | 3.2 | 17.7 | 0.00 | 0.00 | 0.00 | 47 | 1010.9 |
| 20260508180503 | 18 | 232 | 8.0 | 19.3 | 0.00 | 0.00 | 0.00 | 46 | 1010.9 |
| 20260508180403 | 18 | 308 | 6.4 | 19.3 | 0.00 | 0.00 | 0.00 | 45 | 1010.9 |
| 20260508180303 | 18 | 263 | 6.4 | 19.3 | 0.00 | 0.00 | 0.00 | 46 | 1010.9 |
| 20260508180203 | 18 | 273 | 6.4 | 19.3 | 0.00 | 0.00 | 0.00 | 46 | 1010.9 |
| 20260508180103 | 18 | 218 | 4.8 | 22.5 | 0.00 | 0.00 | 0.00 | 47 | 1010.9 |
| 20260508180004 | 18 | 273 | 9.7 | 22.5 | 0.00 | 0.00 | 0.00 | 47 | 1010.9 |
| 20260508175903 | 18 | 155 | 6.4 | 22.5 | 0.00 | 0.00 | 0.00 | 47 | 1010.9 |
| 20260508175803 | 18 | 278 | 9.7 | 22.5 | 0.00 | 0.00 | 0.00 | 46 | 1010.9 |
| 20260508175703 | 18 | 201 | 9.7 | 25.7 | 0.00 | 0.00 | 0.00 | 45 | 1010.9 |
| 20260508175603 | 18 | 240 | 8.0 | 25.7 | 0.00 | 0.00 | 0.00 | 46 | 1010.9 |
| 20260508175504 | 18 | 219 | 9.7 | 25.7 | 0.00 | 0.00 | 0.00 | 45 | 1010.9 |
| 20260508175403 | 18 | 203 | 8.0 | 25.7 | 0.00 | 0.00 | 0.00 | 46 | 1010.9 |
| 20260508175306 | 18 | 222 | 8.0 | 25.7 | 0.00 | 0.00 | 0.00 | 46 | 1010.9 |
| 20260508175203 | 18 | 242 | 12.9 | 25.7 | 0.00 | 0.00 | 0.00 | 45 | 1010.9 |
| 20260508175104 | 18 | 211 | 11.3 | 25.7 | 0.00 | 0.00 | 0.00 | 44 | 1010.9 |
| 20260508175004 | 18 | 205 | 9.7 | 25.7 | 0.00 | 0.00 | 0.00 | 46 | 1010.9 |
| 20260508174903 | 18 | 256 | 14.5 | 25.7 | 0.00 | 0.00 | 0.00 | 45 | 1010.9 |
| 20260508174803 | 18 | 167 | 12.9 | 25.7 | 0.00 | 0.00 | 0.00 | 45 | 1010.9 |
| 20260508174703 | 18 | 198 | 3.2 | 25.7 | 0.00 | 0.00 | 0.00 | 45 | 1010.9 |
| 20260508174603 | 18 | 93 | 9.7 | 25.7 | 0.00 | 0.00 | 0.00 | 44 | 1011.2 |
| 20260508174504 | 18 | 191 | 12.9 | 25.7 | 0.00 | 0.00 | 0.00 | 44 | 1011.2 |
| 20260508174403 | 18 | 191 | 14.5 | 25.7 | 0.00 | 0.00 | 0.00 | 43 | 1011.2 |
| 20260508174303 | 19 | 187 | 14.5 | 25.7 | 0.00 | 0.00 | 0.00 | 43 | 1011.2 |
| 20260508174203 | 19 | 229 | 8.0 | 25.7 | 0.00 | 0.00 | 0.00 | 44 | 1011.2 |
| 20260508174103 | 19 | 194 | 14.5 | 25.7 | 0.00 | 0.00 | 0.00 | 43 | 1011.2 |
| 20260508174003 | 19 | 191 | 16.1 | 25.7 | 0.00 | 0.00 | 0.00 | 44 | 1011.2 |
| 20260508173903 | 19 | 201 | 16.1 | 25.7 | 0.00 | 0.00 | 0.00 | 42 | 1011.2 |
| 20260508173804 | 20 | 170 | 4.8 | 25.7 | 0.00 | 0.00 | 0.00 | 45 | 1011.6 |
| 20260508173704 | 19 | 228 | 11.3 | 25.7 | 0.00 | 0.00 | 0.00 | 44 | 1011.6 |
| 20260508173603 | 19 | 118 | 8.0 | 25.7 | 0.00 | 0.00 | 0.00 | 44 | 1011.2 |
| 20260508173504 | 19 | 325 | 12.9 | 25.7 | 0.00 | 0.00 | 0.00 | 42 | 1011.6 |
| 20260508173403 | 19 | 200 | 11.3 | 22.5 | 0.00 | 0.00 | 0.00 | 44 | 1011.6 |
| 20260508173303 | 19 | 194 | 8.0 | 22.5 | 0.00 | 0.00 | 0.00 | 45 | 1011.6 |
| 20260508173204 | 19 | 198 | 12.9 | 22.5 | 0.00 | 0.00 | 0.00 | 44 | 1011.6 |
| 20260508173103 | 19 | 218 | 12.9 | 22.5 | 0.00 | 0.00 | 0.00 | 45 | 1011.6 |
| 20260508173003 | 19 | 226 | 9.7 | 22.5 | 0.00 | 0.00 | 0.00 | 46 | 1011.6 |
| 20260508172903 | 19 | 239 | 11.3 | 22.5 | 0.00 | 0.00 | 0.00 | 45 | 1011.6 |
| 20260508172803 | 18 | 233 | 9.7 | 22.5 | 0.00 | 0.00 | 0.00 | 46 | 1011.6 |
| 20260508172703 | 18 | 238 | 14.5 | 22.5 | 0.00 | 0.00 | 0.00 | 44 | 1011.6 |
| 20260508172603 | 18 | 194 | 9.7 | 20.9 | 0.00 | 0.00 | 0.00 | 47 | 1011.6 |
| 20260508172503 | 18 | 122 | 8.0 | 20.9 | 0.00 | 0.00 | 0.00 | 46 | 1011.6 |
| 20260508172403 | 18 | 222 | 9.7 | 20.9 | 0.00 | 0.00 | 0.00 | 45 | 1011.6 |
| 20260508172307 | 18 | 197 | 9.7 | 20.9 | 0.00 | 0.00 | 0.00 | 47 | 1011.6 |
| 20260508172204 | 18 | 260 | 8.0 | 19.3 | 0.00 | 0.00 | 0.00 | 47 | 1011.6 |
| 20260508172103 | 18 | 212 | 6.4 | 19.3 | 0.00 | 0.00 | 0.00 | 47 | 1011.6 |
| 20260508172003 | 18 | 205 | 8.0 | 19.3 | 0.00 | 0.00 | 0.00 | 46 | 1011.6 |
| 20260508171904 | 18 | 195 | 8.0 | 19.3 | 0.00 | 0.00 | 0.00 | 47 | 1011.6 |
| 20260508171803 | 18 | 242 | 4.8 | 19.3 | 0.00 | 0.00 | 0.00 | 47 | 1011.6 |
| 20260508171703 | 18 | 82 | 3.2 | 19.3 | 0.00 | 0.00 | 0.00 | 47 | 1011.6 |
| 20260508171603 | 18 | 205 | 6.4 | 19.3 | 0.00 | 0.00 | 0.00 | 46 | 1011.6 |
| 20260508171504 | 18 | 179 | 6.4 | 19.3 | 0.00 | 0.00 | 0.00 | 46 | 1011.9 |
| 20260508171404 | 18 | 215 | 12.9 | 19.3 | 0.00 | 0.00 | 0.00 | 46 | 1011.9 |
| 20260508171304 | 18 | 255 | 11.3 | 19.3 | 0.00 | 0.00 | 0.00 | 45 | 1011.9 |
| 20260508171203 | 18 | 191 | 11.3 | 20.9 | 0.00 | 0.00 | 0.00 | 45 | 1011.9 |
| 20260508171104 | 18 | 309 | 6.4 | 20.9 | 0.00 | 0.00 | 0.00 | 46 | 1011.9 |
| 20260508171003 | 18 | 152 | 6.4 | 20.9 | 0.00 | 0.00 | 0.00 | 46 | 1011.9 |
| 20260508170904 | 18 | 195 | 11.3 | 20.9 | 0.00 | 0.00 | 0.00 | 46 | 1011.9 |
| 20260508170803 | 18 | 194 | 12.9 | 20.9 | 0.00 | 0.00 | 0.00 | 46 | 1011.9 |
| 20260508170704 | 18 | 248 | 9.7 | 20.9 | 0.00 | 0.00 | 0.00 | 47 | 1011.9 |
| 20260508170604 | 18 | 195 | 9.7 | 20.9 | 0.00 | 0.00 | 0.00 | 46 | 1011.9 |
| 20260508170504 | 18 | 155 | 12.9 | 20.9 | 0.00 | 0.00 | 0.00 | 45 | 1012.2 |
| 20260508170404 | 18 | 163 | 12.9 | 20.9 | 0.00 | 0.00 | 0.00 | 45 | 1012.2 |
| 20260508170304 | 18 | 150 | 11.3 | 20.9 | 0.00 | 0.00 | 0.00 | 46 | 1012.2 |
| 20260508170204 | 18 | 211 | 11.3 | 19.3 | 0.00 | 0.00 | 0.00 | 47 | 1012.2 |
| 20260508170103 | 18 | 208 | 9.7 | 19.3 | 0.00 | 0.00 | 0.00 | 47 | 1012.2 |
| 20260508170004 | 18 | 156 | 8.0 | 19.3 | 0.00 | 0.00 | 0.00 | 47 | 1012.2 |
| 20260508165904 | 18 | 152 | 12.9 | 19.3 | 0.00 | 0.00 | 0.00 | 46 | 1012.2 |
| 20260508165804 | 18 | 191 | 11.3 | 19.3 | 0.00 | 0.00 | 0.00 | 48 | 1012.2 |
| 20260508165703 | 18 | 183 | 11.3 | 19.3 | 0.00 | 0.00 | 0.00 | 46 | 1012.2 |
| 20260508165604 | 17 | 222 | 12.9 | 19.3 | 0.00 | 0.00 | 0.00 | 47 | 1012.2 |
| 20260508165504 | 17 | 208 | 9.7 | 19.3 | 0.00 | 0.00 | 0.00 | 46 | 1012.2 |
| 20260508165404 | 17 | 197 | 12.9 | 17.7 | 0.00 | 0.00 | 0.00 | 47 | 1012.6 |
| 20260508165306 | 18 | 191 | 4.8 | 16.1 | 0.00 | 0.00 | 0.00 | 48 | 1012.6 |
| 20260508165204 | 17 | 59 | 4.8 | 16.1 | 0.00 | 0.00 | 0.00 | 48 | 1012.6 |
| 20260508165104 | 17 | 323 | 4.8 | 16.1 | 0.00 | 0.00 | 0.00 | 49 | 1012.6 |
| 20260508165004 | 17 | 269 | 9.7 | 16.1 | 0.00 | 0.00 | 0.00 | 48 | 1012.6 |
| 20260508164904 | 17 | 179 | 9.7 | 16.1 | 0.00 | 0.00 | 0.00 | 49 | 1012.6 |
| 20260508164804 | 17 | 181 | 9.7 | 12.9 | 0.00 | 0.00 | 0.00 | 48 | 1012.6 |
| 20260508164704 | 17 | 201 | 8.0 | 12.9 | 0.00 | 0.00 | 0.00 | 48 | 1012.6 |
| 20260508164603 | 17 | 198 | 1.6 | 14.5 | 0.00 | 0.00 | 0.00 | 49 | 1012.9 |
| 20260508164504 | 17 | 215 | 6.4 | 14.5 | 0.00 | 0.00 | 0.00 | 49 | 1012.9 |
| 20260508164404 | 17 | 167 | 1.6 | 14.5 | 0.00 | 0.00 | 0.00 | 49 | 1012.9 |
| 20260508164304 | 17 | 203 | 3.2 | 14.5 | 0.00 | 0.00 | 0.00 | 49 | 1012.9 |
| 20260508164204 | 17 | 359 | 8.0 | 16.1 | 0.00 | 0.00 | 0.00 | 49 | 1012.9 |
| 20260508164104 | 17 | 225 | 8.0 | 17.7 | 0.00 | 0.00 | 0.00 | 49 | 1012.9 |
| 20260508164004 | 17 | 300 | 3.2 | 17.7 | 0.00 | 0.00 | 0.00 | 50 | 1012.9 |
| 20260508163904 | 17 | 217 | 6.4 | 17.7 | 0.00 | 0.00 | 0.00 | 49 | 1012.9 |
| 20260508163804 | 17 | 191 | 6.4 | 17.7 | 0.00 | 0.00 | 0.00 | 49 | 1012.9 |
| 20260508163704 | 17 | 203 | 6.4 | 17.7 | 0.00 | 0.00 | 0.00 | 50 | 1012.9 |
| 20260508163604 | 17 | 23 | 1.6 | 17.7 | 0.00 | 0.00 | 0.00 | 51 | 1012.9 |
| 20260508163504 | 17 | 200 | 4.8 | 17.7 | 0.00 | 0.00 | 0.00 | 49 | 1012.9 |
| 20260508163404 | 17 | 208 | 9.7 | 17.7 | 0.00 | 0.00 | 0.00 | 50 | 1012.9 |
| 20260508163304 | 17 | 218 | 9.7 | 17.7 | 0.00 | 0.00 | 0.00 | 49 | 1012.9 |
| 20260508163204 | 17 | 229 | 11.3 | 17.7 | 0.00 | 0.00 | 0.00 | 50 | 1012.9 |
| 20260508163104 | 17 | 197 | 8.0 | 16.1 | 0.00 | 0.00 | 0.00 | 49 | 1012.9 |
| 20260508163004 | 17 | 115 | 11.3 | 16.1 | 0.00 | 0.00 | 0.00 | 49 | 1012.9 |
| 20260508162904 | 17 | 218 | 9.7 | 16.1 | 0.00 | 0.00 | 0.00 | 49 | 1012.9 |
| 20260508162804 | 17 | 208 | 6.4 | 16.1 | 0.00 | 0.00 | 0.00 | 52 | 1013.2 |
| 20260508162704 | 17 | 45 | 4.8 | 16.1 | 0.00 | 0.00 | 0.00 | 51 | 1013.2 |
| 20260508162604 | 17 | 260 | 4.8 | 12.9 | 0.00 | 0.00 | 0.00 | 50 | 1012.9 |
| 20260508162504 | 17 | 243 | 4.8 | 12.9 | 0.00 | 0.00 | 0.00 | 51 | 1013.2 |
| 20260508162404 | 17 | 134 | 4.8 | 12.9 | 0.00 | 0.00 | 0.00 | 51 | 1013.2 |
| 20260508162306 | 17 | 242 | 3.2 | 12.9 | 0.00 | 0.00 | 0.00 | 52 | 1013.2 |
| 20260508162204 | 17 | 242 | 3.2 | 12.9 | 0.00 | 0.00 | 0.00 | 52 | 1013.2 |
| 20260508162104 | 16 | 228 | 4.8 | 12.9 | 0.00 | 0.00 | 0.00 | 52 | 1013.2 |
| 20260508162004 | 16 | 259 | 4.8 | 12.9 | 0.00 | 0.00 | 0.00 | 51 | 1013.2 |
| 20260508161904 | 16 | 225 | 1.6 | 12.9 | 0.00 | 0.00 | 0.00 | 51 | 1013.2 |
| 20260508161804 | 16 | 283 | 4.8 | 12.9 | 0.00 | 0.00 | 0.00 | 50 | 1013.2 |
| 20260508161704 | 16 | 256 | 4.8 | 12.9 | 0.00 | 0.00 | 0.00 | 52 | 1013.2 |
| 20260508161604 | 16 | 226 | 4.8 | 12.9 | 0.00 | 0.00 | 0.00 | 52 | 1013.2 |
| 20260508161504 | 16 | 255 | 1.6 | 12.9 | 0.00 | 0.00 | 0.00 | 52 | 1013.2 |
| 20260508161404 | 16 | 347 | 4.8 | 12.9 | 0.00 | 0.00 | 0.00 | 51 | 1013.2 |
| 20260508161304 | 16 | 297 | 6.4 | 11.3 | 0.00 | 0.00 | 0.00 | 51 | 1013.2 |
| 20260508161204 | 16 | 278 | 6.4 | 11.3 | 0.00 | 0.00 | 0.00 | 51 | 1013.2 |
| 20260508161104 | 16 | 260 | 4.8 | 11.3 | 0.00 | 0.00 | 0.00 | 52 | 1013.2 |
| 20260508161004 | 16 | 314 | 8.0 | 11.3 | 0.00 | 0.00 | 0.00 | 50 | 1013.2 |
| 20260508160904 | 16 | 243 | 4.8 | 11.3 | 0.00 | 0.00 | 0.00 | 51 | 1013.2 |
| 20260508160804 | 16 | 219 | 3.2 | 11.3 | 0.00 | 0.00 | 0.00 | 53 | 1013.2 |
| 20260508160704 | 16 | 176 | 1.6 | 11.3 | 0.00 | 0.00 | 0.00 | 53 | 1013.2 |
| 20260508160604 | 16 | 295 | 4.8 | 11.3 | 0.00 | 0.00 | 0.00 | 52 | 1013.2 |
| 20260508160504 | 16 | 256 | 6.4 | 11.3 | 0.00 | 0.00 | 0.00 | 54 | 1013.2 |
| 20260508160404 | 16 | 283 | 3.2 | 11.3 | 0.00 | 0.00 | 0.00 | 55 | 1013.2 |
| 20260508160304 | 16 | 280 | 3.2 | 11.3 | 0.00 | 0.00 | 0.00 | 54 | 1013.2 |
| 20260508160204 | 16 | 207 | 6.4 | 11.3 | 0.00 | 0.00 | 0.00 | 54 | 1013.2 |
| 20260508160104 | 16 | 217 | 1.6 | 11.3 | 0.00 | 0.00 | 0.00 | 55 | 1013.2 |
| 20260508160004 | 16 | 323 | 3.2 | 12.9 | 0.00 | 0.00 | 0.00 | 54 | 1013.2 |
| 20260508155904 | 16 | 297 | 3.2 | 12.9 | 0.00 | 0.00 | 0.00 | 55 | 1013.2 |
| 20260508155804 | 15 | 224 | 4.8 | 12.9 | 0.00 | 0.00 | 0.00 | 54 | 1013.2 |
| 20260508155704 | 15 | 180 | 3.2 | 12.9 | 0.00 | 0.00 | 0.00 | 54 | 1013.2 |
| 20260508155604 | 15 | 225 | 1.6 | 12.9 | 0.00 | 0.00 | 0.00 | 54 | 1013.2 |
| 20260508155504 | 15 | 284 | 3.2 | 12.9 | 0.00 | 0.00 | 0.00 | 54 | 1013.2 |
| 20260508155404 | 15 | 262 | 4.8 | 12.9 | 0.00 | 0.00 | 0.00 | 54 | 1013.2 |
| 20260508155306 | 15 | 231 | 4.8 | 12.9 | 0.00 | 0.00 | 0.00 | 54 | 1013.6 |
| 20260508155204 | 15 | 246 | 6.4 | 12.9 | 0.00 | 0.00 | 0.00 | 53 | 1013.2 |
| 20260508155104 | 15 | 235 | 6.4 | 12.9 | 0.00 | 0.00 | 0.00 | 53 | 1013.6 |
| 20260508155004 | 15 | 252 | 6.4 | 12.9 | 0.00 | 0.00 | 0.00 | 53 | 1013.2 |
| 20260508154904 | 15 | 329 | 4.8 | 11.3 | 0.00 | 0.00 | 0.00 | 53 | 1013.2 |
| 20260508154804 | 15 | 10 | 3.2 | 11.3 | 0.00 | 0.00 | 0.00 | 54 | 1013.2 |
| 20260508154704 | 15 | 218 | 4.8 | 14.5 | 0.00 | 0.00 | 0.00 | 53 | 1013.2 |
| 20260508154604 | 15 | 297 | 6.4 | 14.5 | 0.00 | 0.00 | 0.00 | 53 | 1013.2 |
| 20260508154504 | 15 | 285 | 4.8 | 14.5 | 0.00 | 0.00 | 0.00 | 53 | 1013.2 |
| 20260508154403 | 15 | 260 | 6.4 | 14.5 | 0.00 | 0.00 | 0.00 | 54 | 1013.2 |
| 20260508154303 | 15 | 297 | 4.8 | 14.5 | 0.00 | 0.00 | 0.00 | 54 | 1013.2 |
| 20260508154203 | 15 | 201 | 6.4 | 14.5 | 0.00 | 0.00 | 0.00 | 52 | 1013.2 |
| 20260508154103 | 15 | 197 | 4.8 | 14.5 | 0.00 | 0.00 | 0.00 | 53 | 1013.2 |
| 20260508154004 | 15 | 117 | 4.8 | 14.5 | 0.00 | 0.00 | 0.00 | 53 | 1013.6 |
| 20260508153903 | 15 | 350 | 6.4 | 17.7 | 0.00 | 0.00 | 0.00 | 55 | 1013.2 |
| 20260508153803 | 15 | 285 | 8.0 | 17.7 | 0.00 | 0.00 | 0.00 | 54 | 1013.6 |
| 20260508153703 | 15 | 291 | 4.8 | 17.7 | 0.00 | 0.00 | 0.00 | 54 | 1013.6 |
| 20260508153604 | 15 | 233 | 8.0 | 17.7 | 0.00 | 0.00 | 0.00 | 53 | 1013.6 |
| 20260508153503 | 15 | 219 | 4.8 | 17.7 | 0.00 | 0.00 | 0.00 | 53 | 1013.6 |
| 20260508153403 | 15 | 238 | 9.7 | 17.7 | 0.00 | 0.00 | 0.00 | 53 | 1013.6 |
| 20260508153303 | 15 | 269 | 6.4 | 17.7 | 0.00 | 0.00 | 0.00 | 53 | 1013.6 |
| 20260508153203 | 15 | 259 | 4.8 | 17.7 | 0.00 | 0.00 | 0.00 | 52 | 1013.6 |
| 20260508153103 | 15 | 83 | 6.4 | 17.7 | 0.00 | 0.00 | 0.00 | 53 | 1013.6 |
| 20260508153004 | 15 | 214 | 8.0 | 17.7 | 0.00 | 0.00 | 0.00 | 52 | 1013.6 |
| 20260508152903 | 15 | 200 | 4.8 | 12.9 | 0.00 | 0.00 | 0.00 | 53 | 1013.6 |
| 20260508152803 | 15 | 179 | 9.7 | 12.9 | 0.00 | 0.00 | 0.00 | 53 | 1013.6 |
| 20260508152703 | 15 | 205 | 8.0 | 14.5 | 0.00 | 0.00 | 0.00 | 54 | 1013.6 |
| 20260508152603 | 15 | 97 | 3.2 | 14.5 | 0.00 | 0.00 | 0.00 | 54 | 1013.6 |
| 20260508152503 | 15 | 255 | 6.4 | 14.5 | 0.00 | 0.00 | 0.00 | 53 | 1013.6 |
| 20260508152403 | 15 | 212 | 3.2 | 14.5 | 0.00 | 0.00 | 0.00 | 54 | 1013.6 |
| 20260508152306 | 15 | 148 | 1.6 | 14.5 | 0.00 | 0.00 | 0.00 | 54 | 1013.6 |
| 20260508152203 | 15 | 142 | 4.8 | 14.5 | 0.00 | 0.00 | 0.00 | 53 | 1013.6 |
| 20260508152103 | 15 | 298 | 4.8 | 17.7 | 0.00 | 0.00 | 0.00 | 53 | 1013.6 |
| 20260508152004 | 15 | 294 | 4.8 | 20.9 | 0.00 | 0.00 | 0.00 | 54 | 1013.6 |
| 20260508151903 | 15 | 177 | 3.2 | 20.9 | 0.00 | 0.00 | 0.00 | 53 | 1013.6 |
| 20260508151803 | 15 | 295 | 6.4 | 20.9 | 0.00 | 0.00 | 0.00 | 53 | 1013.6 |
| 20260508151703 | 15 | 249 | 6.4 | 20.9 | 0.00 | 0.00 | 0.00 | 53 | 1013.6 |
| 20260508151603 | 15 | 302 | 6.4 | 20.9 | 0.00 | 0.00 | 0.00 | 54 | 1013.6 |
| 20260508151504 | 15 | 253 | 4.8 | 20.9 | 0.00 | 0.00 | 0.00 | 54 | 1013.6 |
| 20260508151404 | 15 | 295 | 4.8 | 20.9 | 0.00 | 0.00 | 0.00 | 54 | 1013.6 |
| 20260508151304 | 15 | 242 | 8.0 | 20.9 | 0.00 | 0.00 | 0.00 | 53 | 1013.6 |
| 20260508151204 | 15 | 203 | 8.0 | 20.9 | 0.00 | 0.00 | 0.00 | 51 | 1013.6 |
| 20260508151104 | 14 | 259 | 12.9 | 20.9 | 0.00 | 0.00 | 0.00 | 51 | 1013.6 |
| 20260508151004 | 15 | 173 | 6.4 | 20.9 | 0.00 | 0.00 | 0.00 | 53 | 1013.6 |
| 20260508150903 | 14 | 135 | 8.0 | 20.9 | 0.00 | 0.00 | 0.00 | 53 | 1013.6 |
| 20260508150803 | 14 | 183 | 9.7 | 20.9 | 0.00 | 0.00 | 0.00 | 54 | 1013.6 |
| 20260508150703 | 14 | 221 | 4.8 | 17.7 | 0.00 | 0.00 | 0.00 | 55 | 1013.6 |
| 20260508150603 | 14 | 298 | 4.8 | 17.7 | 0.00 | 0.00 | 0.00 | 55 | 1013.6 |
| 20260508150504 | 14 | 269 | 4.8 | 17.7 | 0.00 | 0.00 | 0.00 | 54 | 1013.6 |
| 20260508150403 | 14 | 280 | 8.0 | 17.7 | 0.00 | 0.00 | 0.00 | 53 | 1013.6 |
| 20260508150303 | 14 | 194 | 9.7 | 17.7 | 0.00 | 0.00 | 0.00 | 55 | 1013.6 |
| 20260508150204 | 13 | 162 | 6.4 | 17.7 | 0.00 | 0.00 | 0.00 | 56 | 1013.6 |
| 20260508150103 | 13 | 270 | 3.2 | 17.7 | 0.00 | 0.00 | 0.00 | 58 | 1013.6 |
| 20260508150004 | 13 | 267 | 4.8 | 17.7 | 0.00 | 0.00 | 0.00 | 57 | 1013.6 |
| 20260508145903 | 13 | 176 | 6.4 | 17.7 | 0.00 | 0.00 | 0.00 | 58 | 1013.6 |
| 20260508145803 | 13 | 214 | 9.7 | 17.7 | 0.00 | 0.00 | 0.00 | 55 | 1013.6 |
| 20260508145703 | 13 | 210 | 8.0 | 17.7 | 0.00 | 0.00 | 0.00 | 57 | 1013.6 |
| 20260508145603 | 13 | 186 | 4.8 | 17.7 | 0.00 | 0.00 | 0.00 | 59 | 1013.6 |
| 20260508145503 | 13 | 139 | 11.3 | 17.7 | 0.00 | 0.00 | 0.00 | 58 | 1013.6 |
| 20260508145403 | 13 | 162 | 9.7 | 17.7 | 0.00 | 0.00 | 0.00 | 58 | 1013.6 |
| 20260508145306 | 13 | 260 | 9.7 | 17.7 | 0.00 | 0.00 | 0.00 | 59 | 1013.6 |
| 20260508145203 | 13 | 194 | 3.2 | 17.7 | 0.00 | 0.00 | 0.00 | 60 | 1013.6 |
| 20260508145104 | 13 | 285 | 3.2 | 17.7 | 0.00 | 0.00 | 0.00 | 59 | 1013.6 |
| 20260508145003 | 13 | 180 | 6.4 | 17.7 | 0.00 | 0.00 | 0.00 | 59 | 1013.6 |
| 20260508144903 | 13 | 229 | 11.3 | 17.7 | 0.00 | 0.00 | 0.00 | 59 | 1013.6 |
| 20260508144803 | 13 | 138 | 9.7 | 17.7 | 0.00 | 0.00 | 0.00 | 59 | 1013.6 |
| 20260508144703 | 12 | 200 | 11.3 | 17.7 | 0.00 | 0.00 | 0.00 | 60 | 1013.6 |
| 20260508144604 | 12 | 208 | 9.7 | 16.1 | 0.00 | 0.00 | 0.00 | 60 | 1013.6 |
| 20260508144504 | 12 | 149 | 8.0 | 16.1 | 0.00 | 0.00 | 0.00 | 60 | 1013.6 |
| 20260508144403 | 12 | 190 | 9.7 | 16.1 | 0.00 | 0.00 | 0.00 | 60 | 1013.6 |
| 20260508144304 | 12 | 184 | 8.0 | 16.1 | 0.00 | 0.00 | 0.00 | 61 | 1013.6 |
| 20260508144203 | 12 | 197 | 8.0 | 19.3 | 0.00 | 0.00 | 0.00 | 60 | 1013.6 |
| 20260508144103 | 12 | 191 | 6.4 | 19.3 | 0.00 | 0.00 | 0.00 | 61 | 1013.6 |
| 20260508144003 | 12 | 281 | 6.4 | 19.3 | 0.00 | 0.00 | 0.00 | 61 | 1013.6 |
| 20260508143904 | 12 | 233 | 8.0 | 19.3 | 0.00 | 0.00 | 0.00 | 61 | 1013.6 |
| 20260508143803 | 12 | 200 | 11.3 | 19.3 | 0.00 | 0.00 | 0.00 | 60 | 1013.6 |
| 20260508143703 | 12 | 204 | 6.4 | 19.3 | 0.00 | 0.00 | 0.00 | 61 | 1013.6 |
| 20260508143603 | 12 | 231 | 9.7 | 19.3 | 0.00 | 0.00 | 0.00 | 60 | 1013.6 |
| 20260508143504 | 12 | 214 | 8.0 | 19.3 | 0.00 | 0.00 | 0.00 | 61 | 1013.6 |
| 20260508143403 | 12 | 122 | 4.8 | 19.3 | 0.00 | 0.00 | 0.00 | 61 | 1013.6 |
| 20260508143304 | 12 | 193 | 11.3 | 19.3 | 0.00 | 0.00 | 0.00 | 61 | 1013.6 |
| 20260508143203 | 12 | 201 | 11.3 | 17.7 | 0.00 | 0.00 | 0.00 | 61 | 1013.6 |
| 20260508143104 | 12 | 198 | 11.3 | 17.7 | 0.00 | 0.00 | 0.00 | 61 | 1013.6 |
| 20260508143004 | 12 | 204 | 6.4 | 11.3 | 0.00 | 0.00 | 0.00 | 62 | 1013.6 |
| 20260508142904 | 12 | 174 | 4.8 | 11.3 | 0.00 | 0.00 | 0.00 | 63 | 1013.6 |
| 20260508142803 | 12 | 180 | 4.8 | 11.3 | 0.00 | 0.00 | 0.00 | 62 | 1013.6 |
| 20260508142703 | 12 | 169 | 4.8 | 11.3 | 0.00 | 0.00 | 0.00 | 62 | 1013.6 |
| 20260508142603 | 12 | 184 | 8.0 | 12.9 | 0.00 | 0.00 | 0.00 | 62 | 1013.6 |
| 20260508142504 | 12 | 235 | 4.8 | 12.9 | 0.00 | 0.00 | 0.00 | 62 | 1013.6 |
| 20260508142404 | 12 | 217 | 8.0 | 12.9 | 0.00 | 0.00 | 0.00 | 61 | 1013.6 |
| 20260508142306 | 12 | 207 | 6.4 | 12.9 | 0.00 | 0.00 | 0.00 | 62 | 1013.6 |
| 20260508142204 | 12 | 158 | 8.0 | 12.9 | 0.00 | 0.00 | 0.00 | 62 | 1013.6 |
| 20260508142103 | 12 | 198 | 6.4 | 12.9 | 0.00 | 0.00 | 0.00 | 63 | 1013.6 |
| 20260508142004 | 12 | 166 | 6.4 | 12.9 | 0.00 | 0.00 | 0.00 | 63 | 1013.6 |
| 20260508141903 | 12 | 238 | 4.8 | 12.9 | 0.00 | 0.00 | 0.00 | 63 | 1013.6 |
| 20260508141804 | 12 | 253 | 6.4 | 12.9 | 0.00 | 0.00 | 0.00 | 63 | 1013.6 |
| 20260508141703 | 12 | 188 | 8.0 | 12.9 | 0.00 | 0.00 | 0.00 | 63 | 1013.6 |
| 20260508141604 | 12 | 187 | 3.2 | 14.5 | 0.00 | 0.00 | 0.00 | 64 | 1013.6 |
| 20260508141504 | 12 | 208 | 4.8 | 14.5 | 0.00 | 0.00 | 0.00 | 63 | 1013.6 |
| 20260508141404 | 11 | 158 | 4.8 | 14.5 | 0.00 | 0.00 | 0.00 | 64 | 1013.6 |
| 20260508141304 | 11 | 187 | 4.8 | 14.5 | 0.00 | 0.00 | 0.00 | 64 | 1013.6 |
| 20260508141204 | 11 | 253 | 6.4 | 14.5 | 0.00 | 0.00 | 0.00 | 64 | 1013.6 |
| 20260508141103 | 11 | 149 | 6.4 | 14.5 | 0.00 | 0.00 | 0.00 | 64 | 1013.6 |
| 20260508141004 | 11 | 188 | 4.8 | 14.5 | 0.00 | 0.00 | 0.00 | 64 | 1013.6 |
| 20260508140903 | 11 | 203 | 6.4 | 14.5 | 0.00 | 0.00 | 0.00 | 64 | 1013.6 |
| 20260508140804 | 11 | 191 | 8.0 | 14.5 | 0.00 | 0.00 | 0.00 | 64 | 1013.6 |
| 20260508140704 | 11 | 201 | 8.0 | 14.5 | 0.00 | 0.00 | 0.00 | 64 | 1013.6 |
| 20260508140604 | 11 | 248 | 6.4 | 12.9 | 0.00 | 0.00 | 0.00 | 64 | 1013.6 |
| 20260508140504 | 11 | 181 | 6.4 | 12.9 | 0.00 | 0.00 | 0.00 | 64 | 1013.6 |
| 20260508140404 | 11 | 46 | 0.0 | 12.9 | 0.00 | 0.00 | 0.00 | 65 | 1013.6 |
| 20260508140304 | 11 | 53 | 4.8 | 12.9 | 0.00 | 0.00 | 0.00 | 64 | 1013.6 |
| 20260508140204 | 11 | 248 | 8.0 | 12.9 | 0.00 | 0.00 | 0.00 | 65 | 1013.6 |
| 20260508140104 | 11 | 197 | 9.7 | 12.9 | 0.00 | 0.00 | 0.00 | 64 | 1013.6 |
| 20260508140004 | 11 | 218 | 6.4 | 12.9 | 0.00 | 0.00 | 0.00 | 65 | 1013.6 |
| 20260508135903 | 11 | 231 | 6.4 | 14.5 | 0.00 | 0.00 | 0.00 | 64 | 1013.6 |
| 20260508135804 | 11 | 203 | 8.0 | 16.1 | 0.00 | 0.00 | 0.00 | 64 | 1013.6 |
| 20260508135703 | 11 | 193 | 9.7 | 16.1 | 0.00 | 0.00 | 0.00 | 65 | 1013.6 |
| 20260508135604 | 11 | 177 | 8.0 | 16.1 | 0.00 | 0.00 | 0.00 | 65 | 1013.6 |
| 20260508135504 | 11 | 288 | 4.8 | 16.1 | 0.00 | 0.00 | 0.00 | 65 | 1013.6 |
| 20260508135403 | 11 | 226 | 8.0 | 16.1 | 0.00 | 0.00 | 0.00 | 65 | 1013.6 |
| 20260508135306 | 11 | 197 | 9.7 | 16.1 | 0.00 | 0.00 | 0.00 | 65 | 1013.6 |
| 20260508135203 | 11 | 195 | 8.0 | 16.1 | 0.00 | 0.00 | 0.00 | 65 | 1013.6 |
| 20260508135104 | 11 | 242 | 3.2 | 16.1 | 0.00 | 0.00 | 0.00 | 65 | 1013.6 |
| 20260508135004 | 11 | 228 | 9.7 | 16.1 | 0.00 | 0.00 | 0.00 | 65 | 1013.6 |
| 20260508134904 | 11 | 198 | 11.3 | 16.1 | 0.00 | 0.00 | 0.00 | 65 | 1013.6 |
| 20260508134804 | 11 | 200 | 9.7 | 12.9 | 0.00 | 0.00 | 0.00 | 64 | 1013.6 |
| 20260508134704 | 11 | 165 | 9.7 | 12.9 | 0.00 | 0.00 | 0.00 | 65 | 1013.6 |
| 20260508134604 | 11 | 215 | 8.0 | 12.9 | 0.00 | 0.00 | 0.00 | 65 | 1013.6 |
| 20260508134504 | 11 | 232 | 8.0 | 12.9 | 0.00 | 0.00 | 0.00 | 65 | 1013.6 |
| 20260508134404 | 11 | 188 | 8.0 | 12.9 | 0.00 | 0.00 | 0.00 | 66 | 1013.6 |
| 20260508134304 | 11 | 139 | 6.4 | 12.9 | 0.00 | 0.00 | 0.00 | 66 | 1013.6 |
| 20260508134204 | 11 | 124 | 3.2 | 12.9 | 0.00 | 0.00 | 0.00 | 66 | 1013.6 |
| 20260508134104 | 11 | 198 | 6.4 | 12.9 | 0.00 | 0.00 | 0.00 | 66 | 1013.6 |
| 20260508134004 | 11 | 167 | 4.8 | 12.9 | 0.00 | 0.00 | 0.00 | 66 | 1013.6 |
| 20260508133904 | 11 | 212 | 8.0 | 12.9 | 0.00 | 0.00 | 0.00 | 66 | 1013.6 |
| 20260508133804 | 11 | 173 | 4.8 | 12.9 | 0.00 | 0.00 | 0.00 | 66 | 1013.6 |
| 20260508133704 | 11 | 195 | 6.4 | 12.9 | 0.00 | 0.00 | 0.00 | 66 | 1013.6 |
| 20260508133604 | 11 | 194 | 4.8 | 12.9 | 0.00 | 0.00 | 0.00 | 66 | 1013.6 |
| 20260508133504 | 11 | 207 | 6.4 | 12.9 | 0.00 | 0.00 | 0.00 | 66 | 1013.6 |
| 20260508133404 | 11 | 219 | 4.8 | 12.9 | 0.00 | 0.00 | 0.00 | 66 | 1013.6 |
| 20260508133303 | 11 | 219 | 8.0 | 12.9 | 0.00 | 0.00 | 0.00 | 66 | 1013.6 |
| 20260508133204 | 11 | 219 | 6.4 | 12.9 | 0.00 | 0.00 | 0.00 | 67 | 1013.6 |
| 20260508133104 | 11 | 212 | 8.0 | 14.5 | 0.00 | 0.00 | 0.00 | 67 | 1013.6 |
| 20260508133004 | 11 | 201 | 4.8 | 14.5 | 0.00 | 0.00 | 0.00 | 67 | 1013.6 |
| 20260508132904 | 11 | 280 | 4.8 | 14.5 | 0.00 | 0.00 | 0.00 | 68 | 1013.6 |
| 20260508132804 | 11 | 173 | 3.2 | 14.5 | 0.00 | 0.00 | 0.00 | 68 | 1013.6 |
| 20260508132704 | 11 | 229 | 3.2 | 14.5 | 0.00 | 0.00 | 0.00 | 67 | 1013.6 |
| 20260508132604 | 10 | 224 | 6.4 | 14.5 | 0.00 | 0.00 | 0.00 | 67 | 1013.6 |
| 20260508132504 | 10 | 236 | 6.4 | 14.5 | 0.00 | 0.00 | 0.00 | 67 | 1013.6 |
| 20260508132404 | 10 | 155 | 6.4 | 14.5 | 0.00 | 0.00 | 0.00 | 68 | 1013.6 |
| 20260508132306 | 10 | 188 | 6.4 | 14.5 | 0.00 | 0.00 | 0.00 | 67 | 1013.6 |
| 20260508132204 | 10 | 235 | 9.7 | 14.5 | 0.00 | 0.00 | 0.00 | 67 | 1013.6 |
| 20260508132104 | 10 | 183 | 4.8 | 14.5 | 0.00 | 0.00 | 0.00 | 68 | 1013.6 |
| 20260508132004 | 10 | 187 | 8.0 | 14.5 | 0.00 | 0.00 | 0.00 | 67 | 1013.6 |
| 20260508131903 | 10 | 191 | 3.2 | 14.5 | 0.00 | 0.00 | 0.00 | 68 | 1013.6 |
| 20260508131804 | 10 | 176 | 1.6 | 14.5 | 0.00 | 0.00 | 0.00 | 68 | 1013.6 |
| 20260508131704 | 10 | 191 | 0.0 | 14.5 | 0.00 | 0.00 | 0.00 | 68 | 1013.6 |
| 20260508131604 | 10 | 191 | 4.8 | 14.5 | 0.00 | 0.00 | 0.00 | 68 | 1013.6 |
| 20260508131504 | 10 | 198 | 9.7 | 14.5 | 0.00 | 0.00 | 0.00 | 68 | 1013.6 |
| 20260508131404 | 10 | 221 | 8.0 | 14.5 | 0.00 | 0.00 | 0.00 | 68 | 1013.6 |
| 20260508131304 | 10 | 193 | 8.0 | 14.5 | 0.00 | 0.00 | 0.00 | 68 | 1013.6 |
| 20260508131204 | 10 | 201 | 9.7 | 14.5 | 0.00 | 0.00 | 0.00 | 68 | 1013.6 |
| 20260508131104 | 10 | 217 | 6.4 | 14.5 | 0.00 | 0.00 | 0.00 | 68 | 1013.6 |
| 20260508131004 | 10 | 191 | 9.7 | 14.5 | 0.00 | 0.00 | 0.00 | 68 | 1013.6 |
| 20260508130904 | 10 | 183 | 8.0 | 14.5 | 0.00 | 0.00 | 0.00 | 68 | 1013.6 |
| 20260508130804 | 10 | 184 | 8.0 | 14.5 | 0.00 | 0.00 | 0.00 | 69 | 1013.6 |
| 20260508130704 | 10 | 198 | 6.4 | 14.5 | 0.00 | 0.00 | 0.00 | 69 | 1013.6 |
| 20260508130604 | 10 | 231 | 8.0 | 14.5 | 0.00 | 0.00 | 0.00 | 68 | 1013.6 |
| 20260508130504 | 10 | 186 | 6.4 | 14.5 | 0.00 | 0.00 | 0.00 | 68 | 1013.6 |
| 20260508130404 | 10 | 232 | 6.4 | 14.5 | 0.00 | 0.00 | 0.00 | 68 | 1013.6 |
| 20260508130304 | 10 | 207 | 9.7 | 14.5 | 0.00 | 0.00 | 0.00 | 68 | 1013.6 |
| 20260508130204 | 10 | 197 | 8.0 | 14.5 | 0.00 | 0.00 | 0.00 | 68 | 1013.6 |
| 20260508130104 | 10 | 184 | 8.0 | 12.9 | 0.00 | 0.00 | 0.00 | 68 | 1013.6 |
| 20260508130004 | 10 | 211 | 6.4 | 12.9 | 0.00 | 0.00 | 0.00 | 68 | 1013.6 |
| 20260508125904 | 10 | 201 | 8.0 | 12.9 | 0.00 | 0.00 | 0.00 | 68 | 1013.6 |
| 20260508125804 | 10 | 180 | 6.4 | 12.9 | 0.00 | 0.00 | 0.00 | 68 | 1013.6 |
| 20260508125704 | 10 | 205 | 6.4 | 12.9 | 0.00 | 0.00 | 0.00 | 68 | 1013.6 |
| 20260508125604 | 10 | 205 | 6.4 | 12.9 | 0.00 | 0.00 | 0.00 | 68 | 1013.6 |
| 20260508125504 | 10 | 228 | 3.2 | 11.3 | 0.00 | 0.00 | 0.00 | 69 | 1013.6 |
| 20260508125404 | 10 | 207 | 4.8 | 11.3 | 0.00 | 0.00 | 0.00 | 68 | 1013.6 |
| 20260508125306 | 10 | 172 | 3.2 | 11.3 | 0.00 | 0.00 | 0.00 | 69 | 1013.6 |
| 20260508125204 | 10 | 208 | 4.8 | 11.3 | 0.00 | 0.00 | 0.00 | 69 | 1013.6 |
| 20260508125104 | 10 | 187 | 4.8 | 11.3 | 0.00 | 0.00 | 0.00 | 69 | 1013.6 |
| 20260508125004 | 10 | 262 | 4.8 | 11.3 | 0.00 | 0.00 | 0.00 | 69 | 1013.6 |
| 20260508124904 | 10 | 214 | 4.8 | 11.3 | 0.00 | 0.00 | 0.00 | 68 | 1013.6 |
| 20260508124804 | 10 | 180 | 8.0 | 11.3 | 0.00 | 0.00 | 0.00 | 69 | 1013.6 |
| 20260508124704 | 10 | 184 | 4.8 | 11.3 | 0.00 | 0.00 | 0.00 | 69 | 1013.6 |
| 20260508124604 | 10 | 172 | 3.2 | 12.9 | 0.00 | 0.00 | 0.00 | 69 | 1013.6 |
| 20260508124504 | 10 | 211 | 8.0 | 12.9 | 0.00 | 0.00 | 0.00 | 68 | 1013.6 |
| 20260508124404 | 10 | 193 | 6.4 | 12.9 | 0.00 | 0.00 | 0.00 | 69 | 1013.6 |
| 20260508124304 | 10 | 218 | 4.8 | 12.9 | 0.00 | 0.00 | 0.00 | 69 | 1013.6 |
| 20260508124204 | 10 | 236 | 4.8 | 12.9 | 0.00 | 0.00 | 0.00 | 69 | 1013.6 |
| 20260508124104 | 10 | 197 | 6.4 | 12.9 | 0.00 | 0.00 | 0.00 | 68 | 1013.6 |
| 20260508124004 | 10 | 228 | 6.4 | 12.9 | 0.00 | 0.00 | 0.00 | 69 | 1013.6 |
| 20260508123904 | 10 | 221 | 6.4 | 12.9 | 0.00 | 0.00 | 0.00 | 69 | 1013.6 |
| 20260508123804 | 10 | 195 | 4.8 | 12.9 | 0.00 | 0.00 | 0.00 | 69 | 1013.6 |
| 20260508123704 | 10 | 188 | 9.7 | 12.9 | 0.00 | 0.00 | 0.00 | 69 | 1013.6 |
| 20260508123604 | 10 | 211 | 6.4 | 14.5 | 0.00 | 0.00 | 0.00 | 69 | 1013.6 |
| 20260508123504 | 10 | 174 | 8.0 | 14.5 | 0.00 | 0.00 | 0.00 | 69 | 1013.6 |
| 20260508123404 | 10 | 155 | 6.4 | 14.5 | 0.00 | 0.00 | 0.00 | 69 | 1013.6 |
| 20260508123304 | 10 | 214 | 6.4 | 14.5 | 0.00 | 0.00 | 0.00 | 69 | 1013.6 |
| 20260508123204 | 10 | 193 | 9.7 | 14.5 | 0.00 | 0.00 | 0.00 | 68 | 1013.6 |
| 20260508123104 | 10 | 238 | 6.4 | 14.5 | 0.00 | 0.00 | 0.00 | 69 | 1013.6 |
| 20260508123004 | 10 | 232 | 8.0 | 14.5 | 0.00 | 0.00 | 0.00 | 69 | 1013.6 |
| 20260508122904 | 10 | 186 | 9.7 | 14.5 | 0.00 | 0.00 | 0.00 | 69 | 1013.6 |
| 20260508122804 | 10 | 207 | 8.0 | 14.5 | 0.00 | 0.00 | 0.00 | 69 | 1013.6 |
| 20260508122704 | 10 | 228 | 9.7 | 14.5 | 0.00 | 0.00 | 0.00 | 69 | 1013.6 |
| 20260508122604 | 10 | 210 | 8.0 | 14.5 | 0.00 | 0.00 | 0.00 | 69 | 1013.6 |
| 20260508122504 | 10 | 203 | 6.4 | 14.5 | 0.00 | 0.00 | 0.00 | 70 | 1013.6 |
| 20260508122404 | 10 | 183 | 6.4 | 14.5 | 0.00 | 0.00 | 0.00 | 70 | 1013.6 |
| 20260508122306 | 10 | 180 | 6.4 | 14.5 | 0.00 | 0.00 | 0.00 | 69 | 1013.6 |
| 20260508122204 | 10 | 222 | 6.4 | 14.5 | 0.00 | 0.00 | 0.00 | 70 | 1013.6 |
| 20260508122104 | 10 | 208 | 8.0 | 14.5 | 0.00 | 0.00 | 0.00 | 69 | 1013.6 |
| 20260508122004 | 10 | 204 | 4.8 | 14.5 | 0.00 | 0.00 | 0.00 | 69 | 1013.6 |
| 20260508121904 | 10 | 219 | 6.4 | 14.5 | 0.00 | 0.00 | 0.00 | 69 | 1013.6 |
| 20260508121804 | 10 | 204 | 8.0 | 14.5 | 0.00 | 0.00 | 0.00 | 69 | 1013.6 |
| 20260508121704 | 10 | 203 | 6.4 | 14.5 | 0.00 | 0.00 | 0.00 | 69 | 1013.6 |
| 20260508121604 | 10 | 194 | 4.8 | 14.5 | 0.00 | 0.00 | 0.00 | 70 | 1013.6 |
| 20260508121504 | 10 | 187 | 4.8 | 14.5 | 0.00 | 0.00 | 0.00 | 69 | 1013.6 |
| 20260508121404 | 10 | 203 | 8.0 | 14.5 | 0.00 | 0.00 | 0.00 | 69 | 1013.6 |
| 20260508121304 | 10 | 193 | 8.0 | 14.5 | 0.00 | 0.00 | 0.00 | 69 | 1013.6 |
| 20260508121204 | 10 | 212 | 8.0 | 12.9 | 0.00 | 0.00 | 0.00 | 69 | 1013.6 |
| 20260508121104 | 10 | 212 | 8.0 | 12.9 | 0.00 | 0.00 | 0.00 | 69 | 1013.6 |
| 20260508121004 | 10 | 207 | 8.0 | 12.9 | 0.00 | 0.00 | 0.00 | 69 | 1013.6 |
| 20260508120904 | 10 | 203 | 8.0 | 12.9 | 0.00 | 0.00 | 0.00 | 69 | 1013.6 |
| 20260508120804 | 10 | 156 | 8.0 | 12.9 | 0.00 | 0.00 | 0.00 | 69 | 1013.6 |
| 20260508120704 | 10 | 197 | 8.0 | 12.9 | 0.00 | 0.00 | 0.00 | 69 | 1013.6 |
| 20260508120604 | 10 | 217 | 8.0 | 12.9 | 0.00 | 0.00 | 0.00 | 69 | 1013.6 |
| 20260508120504 | 10 | 131 | 8.0 | 12.9 | 0.00 | 0.00 | 0.00 | 69 | 1013.6 |
| 20260508120404 | 10 | 195 | 8.0 | 12.9 | 0.00 | 0.00 | 0.00 | 69 | 1013.6 |
| 20260508120304 | 10 | 172 | 6.4 | 12.9 | 0.00 | 0.00 | 0.00 | 69 | 1013.6 |
| 20260508120204 | 10 | 195 | 8.0 | 12.9 | 0.00 | 0.00 | 0.00 | 69 | 1013.6 |
| 20260508120104 | 10 | 191 | 8.0 | 12.9 | 0.00 | 0.00 | 0.00 | 69 | 1013.6 |
| 20260508120004 | 10 | 201 | 9.7 | 12.9 | 0.00 | 0.00 | 0.00 | 69 | 1013.6 |
| 20260508115904 | 10 | 208 | 6.4 | 12.9 | 0.00 | 0.00 | 0.00 | 69 | 1013.6 |
| 20260508115804 | 10 | 204 | 8.0 | 12.9 | 0.00 | 0.00 | 0.00 | 69 | 1013.6 |
| 20260508115704 | 10 | 205 | 8.0 | 12.9 | 0.00 | 0.00 | 0.00 | 69 | 1013.6 |
| 20260508115604 | 10 | 187 | 8.0 | 12.9 | 0.00 | 0.00 | 0.00 | 69 | 1013.6 |
| 20260508115504 | 10 | 180 | 4.8 | 12.9 | 0.00 | 0.00 | 0.00 | 70 | 1013.6 |
| 20260508115404 | 10 | 212 | 4.8 | 12.9 | 0.00 | 0.00 | 0.00 | 70 | 1013.6 |
| 20260508115306 | 10 | 200 | 8.0 | 12.9 | 0.00 | 0.00 | 0.00 | 69 | 1013.6 |
| 20260508115204 | 10 | 159 | 4.8 | 12.9 | 0.00 | 0.00 | 0.00 | 70 | 1013.6 |
| 20260508115104 | 9 | 201 | 6.4 | 12.9 | 0.00 | 0.00 | 0.00 | 69 | 1013.6 |
| 20260508115004 | 9 | 221 | 8.0 | 12.9 | 0.00 | 0.00 | 0.00 | 69 | 1013.6 |
| 20260508114904 | 9 | 172 | 6.4 | 11.3 | 0.00 | 0.00 | 0.00 | 70 | 1013.6 |
| 20260508114804 | 9 | 215 | 8.0 | 12.9 | 0.00 | 0.00 | 0.00 | 70 | 1013.6 |
| 20260508114704 | 9 | 194 | 6.4 | 12.9 | 0.00 | 0.00 | 0.00 | 70 | 1013.6 |
| 20260508114604 | 9 | 191 | 6.4 | 12.9 | 0.00 | 0.00 | 0.00 | 70 | 1013.6 |
| 20260508114504 | 9 | 179 | 6.4 | 12.9 | 0.00 | 0.00 | 0.00 | 70 | 1013.6 |
| 20260508114404 | 9 | 187 | 6.4 | 12.9 | 0.00 | 0.00 | 0.00 | 70 | 1013.6 |
| 20260508114304 | 9 | 210 | 6.4 | 12.9 | 0.00 | 0.00 | 0.00 | 70 | 1013.6 |
| 20260508114204 | 9 | 200 | 6.4 | 12.9 | 0.00 | 0.00 | 0.00 | 70 | 1013.6 |
| 20260508114104 | 9 | 215 | 8.0 | 12.9 | 0.00 | 0.00 | 0.00 | 70 | 1013.6 |
| 20260508114004 | 9 | 162 | 6.4 | 12.9 | 0.00 | 0.00 | 0.00 | 70 | 1013.6 |
| 20260508113904 | 9 | 198 | 9.7 | 12.9 | 0.00 | 0.00 | 0.00 | 70 | 1013.2 |
| 20260508113804 | 9 | 198 | 6.4 | 12.9 | 0.00 | 0.00 | 0.00 | 70 | 1013.2 |
| 20260508113704 | 9 | 219 | 6.4 | 12.9 | 0.00 | 0.00 | 0.00 | 70 | 1013.2 |
| 20260508113604 | 9 | 242 | 6.4 | 12.9 | 0.00 | 0.00 | 0.00 | 70 | 1013.6 |
| 20260508113504 | 9 | 194 | 3.2 | 12.9 | 0.00 | 0.00 | 0.00 | 70 | 1013.2 |
| 20260508113404 | 9 | 160 | 3.2 | 12.9 | 0.00 | 0.00 | 0.00 | 70 | 1013.2 |
| 20260508113304 | 9 | 148 | 4.8 | 12.9 | 0.00 | 0.00 | 0.00 | 70 | 1013.2 |
| 20260508113204 | 9 | 176 | 4.8 | 12.9 | 0.00 | 0.00 | 0.00 | 70 | 1013.2 |
| 20260508113104 | 9 | 176 | 9.7 | 12.9 | 0.00 | 0.00 | 0.00 | 70 | 1013.2 |
| 20260508113004 | 9 | 190 | 4.8 | 11.3 | 0.00 | 0.00 | 0.00 | 70 | 1013.2 |
| 20260508112904 | 9 | 162 | 8.0 | 11.3 | 0.00 | 0.00 | 0.00 | 70 | 1013.2 |
| 20260508112804 | 9 | 191 | 6.4 | 11.3 | 0.00 | 0.00 | 0.00 | 70 | 1013.2 |
| 20260508112704 | 9 | 197 | 3.2 | 9.7 | 0.00 | 0.00 | 0.00 | 70 | 1013.2 |
| 20260508112604 | 9 | 170 | 4.8 | 9.7 | 0.00 | 0.00 | 0.00 | 70 | 1013.2 |
| 20260508112504 | 9 | 191 | 4.8 | 9.7 | 0.00 | 0.00 | 0.00 | 70 | 1013.2 |
| 20260508112404 | 9 | 218 | 4.8 | 8.0 | 0.00 | 0.00 | 0.00 | 71 | 1013.2 |
| 20260508112306 | 9 | 188 | 6.4 | 8.0 | 0.00 | 0.00 | 0.00 | 71 | 1013.2 |
| 20260508112204 | 9 | 180 | 3.2 | 9.7 | 0.00 | 0.00 | 0.00 | 71 | 1013.2 |
| 20260508112104 | 9 | 229 | 3.2 | 11.3 | 0.00 | 0.00 | 0.00 | 71 | 1013.2 |
| 20260508112004 | 9 | 222 | 4.8 | 11.3 | 0.00 | 0.00 | 0.00 | 71 | 1013.2 |
| 20260508111904 | 9 | 179 | 3.2 | 11.3 | 0.00 | 0.00 | 0.00 | 71 | 1013.2 |
| 20260508111804 | 9 | 194 | 3.2 | 11.3 | 0.00 | 0.00 | 0.00 | 71 | 1013.2 |
| 20260508111704 | 9 | 113 | 0.0 | 11.3 | 0.00 | 0.00 | 0.00 | 71 | 1013.2 |
| 20260508111604 | 9 | 201 | 1.6 | 11.3 | 0.00 | 0.00 | 0.00 | 71 | 1013.2 |
| 20260508111504 | 8 | 197 | 4.8 | 11.3 | 0.00 | 0.00 | 0.00 | 71 | 1013.2 |
| 20260508111404 | 8 | 181 | 6.4 | 11.3 | 0.00 | 0.00 | 0.00 | 71 | 1013.2 |
| 20260508111304 | 8 | 215 | 6.4 | 11.3 | 0.00 | 0.00 | 0.00 | 71 | 1013.2 |
| 20260508111204 | 8 | 198 | 4.8 | 11.3 | 0.00 | 0.00 | 0.00 | 71 | 1013.2 |
| 20260508111104 | 8 | 148 | 4.8 | 9.7 | 0.00 | 0.00 | 0.00 | 71 | 1013.2 |
| 20260508111004 | 8 | 187 | 4.8 | 9.7 | 0.00 | 0.00 | 0.00 | 71 | 1013.2 |
| 20260508110904 | 8 | 183 | 8.0 | 9.7 | 0.00 | 0.00 | 0.00 | 71 | 1013.2 |
| 20260508110804 | 8 | 212 | 4.8 | 9.7 | 0.00 | 0.00 | 0.00 | 72 | 1013.2 |
| 20260508110704 | 8 | 191 | 6.4 | 9.7 | 0.00 | 0.00 | 0.00 | 72 | 1013.2 |
| 20260508110604 | 8 | 219 | 4.8 | 9.7 | 0.00 | 0.00 | 0.00 | 72 | 1013.2 |
| 20260508110504 | 8 | 204 | 4.8 | 9.7 | 0.00 | 0.00 | 0.00 | 72 | 1013.2 |
| 20260508110404 | 8 | 221 | 4.8 | 9.7 | 0.00 | 0.00 | 0.00 | 72 | 1013.2 |
| 20260508110304 | 8 | 232 | 4.8 | 9.7 | 0.00 | 0.00 | 0.00 | 72 | 1013.2 |
| 20260508110204 | 8 | 193 | 6.4 | 9.7 | 0.00 | 0.00 | 0.00 | 71 | 1013.2 |
| 20260508110104 | 8 | 222 | 4.8 | 8.0 | 0.00 | 0.00 | 0.00 | 72 | 1012.9 |
| 20260508110004 | 8 | 177 | 4.8 | 8.0 | 0.00 | 0.00 | 0.00 | 72 | 1013.2 |
| 20260508105904 | 8 | 214 | 3.2 | 8.0 | 0.00 | 0.00 | 0.00 | 72 | 1013.2 |
| 20260508105804 | 8 | 198 | 3.2 | 8.0 | 0.00 | 0.00 | 0.00 | 72 | 1013.2 |
| 20260508105704 | 8 | 211 | 4.8 | 8.0 | 0.00 | 0.00 | 0.00 | 72 | 1013.2 |
| 20260508105604 | 8 | 169 | 3.2 | 8.0 | 0.00 | 0.00 | 0.00 | 72 | 1013.2 |
| 20260508105504 | 8 | 180 | 4.8 | 8.0 | 0.00 | 0.00 | 0.00 | 72 | 1013.2 |
| 20260508105404 | 8 | 179 | 3.2 | 8.0 | 0.00 | 0.00 | 0.00 | 72 | 1013.2 |
| 20260508105306 | 8 | 210 | 6.4 | 8.0 | 0.00 | 0.00 | 0.00 | 72 | 1013.2 |
| 20260508105204 | 8 | 195 | 6.4 | 8.0 | 0.00 | 0.00 | 0.00 | 72 | 1013.2 |
| 20260508105104 | 8 | 146 | 4.8 | 8.0 | 0.00 | 0.00 | 0.00 | 72 | 1013.2 |
| 20260508105004 | 8 | 214 | 4.8 | 8.0 | 0.00 | 0.00 | 0.00 | 72 | 1013.2 |
| 20260508104904 | 8 | 179 | 6.4 | 8.0 | 0.00 | 0.00 | 0.00 | 72 | 1013.2 |
| 20260508104804 | 8 | 174 | 3.2 | 8.0 | 0.00 | 0.00 | 0.00 | 72 | 1013.2 |
| 20260508104704 | 8 | 238 | 4.8 | 8.0 | 0.00 | 0.00 | 0.00 | 72 | 1013.2 |
| 20260508104604 | 8 | 190 | 4.8 | 8.0 | 0.00 | 0.00 | 0.00 | 72 | 1013.2 |
| 20260508104504 | 8 | 170 | 4.8 | 8.0 | 0.00 | 0.00 | 0.00 | 72 | 1013.2 |
| 20260508104404 | 8 | 233 | 3.2 | 8.0 | 0.00 | 0.00 | 0.00 | 72 | 1013.2 |
| 20260508104304 | 8 | 208 | 4.8 | 8.0 | 0.00 | 0.00 | 0.00 | 72 | 1013.2 |
| 20260508104204 | 8 | 207 | 4.8 | 8.0 | 0.00 | 0.00 | 0.00 | 72 | 1013.2 |
| 20260508104104 | 8 | 186 | 3.2 | 8.0 | 0.00 | 0.00 | 0.00 | 72 | 1013.2 |
| 20260508104004 | 8 | 207 | 3.2 | 8.0 | 0.00 | 0.00 | 0.00 | 72 | 1012.9 |
| 20260508103904 | 8 | 187 | 4.8 | 8.0 | 0.00 | 0.00 | 0.00 | 73 | 1012.9 |
| 20260508103804 | 8 | 197 | 4.8 | 8.0 | 0.00 | 0.00 | 0.00 | 73 | 1012.9 |
| 20260508103704 | 8 | 215 | 4.8 | 8.0 | 0.00 | 0.00 | 0.00 | 73 | 1013.2 |
| 20260508103604 | 8 | 170 | 6.4 | 8.0 | 0.00 | 0.00 | 0.00 | 73 | 1013.2 |
| 20260508103504 | 8 | 198 | 3.2 | 8.0 | 0.00 | 0.00 | 0.00 | 73 | 1013.2 |
| 20260508103404 | 8 | 205 | 3.2 | 8.0 | 0.00 | 0.00 | 0.00 | 73 | 1013.2 |
| 20260508103304 | 8 | 179 | 3.2 | 8.0 | 0.00 | 0.00 | 0.00 | 73 | 1013.2 |
| 20260508103204 | 8 | 191 | 6.4 | 8.0 | 0.00 | 0.00 | 0.00 | 73 | 1013.2 |
| 20260508103104 | 8 | 174 | 4.8 | 8.0 | 0.00 | 0.00 | 0.00 | 73 | 1013.2 |
| 20260508103004 | 8 | 193 | 4.8 | 8.0 | 0.00 | 0.00 | 0.00 | 73 | 1013.2 |
| 20260508102904 | 8 | 186 | 4.8 | 6.4 | 0.00 | 0.00 | 0.00 | 73 | 1013.2 |
| 20260508102804 | 8 | 158 | 3.2 | 4.8 | 0.00 | 0.00 | 0.00 | 72 | 1013.2 |
| 20260508102704 | 8 | 198 | 1.6 | 4.8 | 0.00 | 0.00 | 0.00 | 72 | 1013.2 |
| 20260508102604 | 8 | 139 | 1.6 | 4.8 | 0.00 | 0.00 | 0.00 | 72 | 1013.2 |
| 20260508102504 | 8 | 173 | 0.0 | 4.8 | 0.00 | 0.00 | 0.00 | 72 | 1013.2 |
| 20260508102404 | 8 | 162 | 0.0 | 4.8 | 0.00 | 0.00 | 0.00 | 71 | 1013.2 |
| 20260508102306 | 8 | 162 | 0.0 | 4.8 | 0.00 | 0.00 | 0.00 | 71 | 1013.2 |
| 20260508102204 | 8 | 177 | 1.6 | 4.8 | 0.00 | 0.00 | 0.00 | 72 | 1013.2 |
| 20260508102104 | 8 | 193 | 1.6 | 4.8 | 0.00 | 0.00 | 0.00 | 72 | 1013.2 |
| 20260508102004 | 8 | 108 | 0.0 | 6.4 | 0.00 | 0.00 | 0.00 | 71 | 1013.2 |
| 20260508101904 | 8 | 108 | 1.6 | 6.4 | 0.00 | 0.00 | 0.00 | 71 | 1013.2 |
| 20260508101804 | 8 | 149 | 3.2 | 8.0 | 0.00 | 0.00 | 0.00 | 71 | 1013.2 |
| 20260508101704 | 8 | 115 | 0.0 | 8.0 | 0.00 | 0.00 | 0.00 | 71 | 1013.2 |
| 20260508101604 | 8 | 152 | 1.6 | 8.0 | 0.00 | 0.00 | 0.00 | 71 | 1013.2 |
| 20260508101504 | 8 | 160 | 0.0 | 8.0 | 0.00 | 0.00 | 0.00 | 71 | 1013.2 |
| 20260508101404 | 8 | 160 | 1.6 | 8.0 | 0.00 | 0.00 | 0.00 | 71 | 1012.9 |
| 20260508101304 | 8 | 138 | 1.6 | 8.0 | 0.00 | 0.00 | 0.00 | 71 | 1013.2 |
| 20260508101204 | 8 | 179 | 3.2 | 8.0 | 0.00 | 0.00 | 0.00 | 71 | 1013.2 |
| 20260508101104 | 8 | 193 | 3.2 | 8.0 | 0.00 | 0.00 | 0.00 | 71 | 1013.2 |
| 20260508101004 | 8 | 195 | 3.2 | 8.0 | 0.00 | 0.00 | 0.00 | 71 | 1013.2 |
| 20260508100904 | 8 | 172 | 4.8 | 8.0 | 0.00 | 0.00 | 0.00 | 71 | 1013.2 |
| 20260508100804 | 8 | 212 | 4.8 | 8.0 | 0.00 | 0.00 | 0.00 | 71 | 1013.2 |
| 20260508100704 | 8 | 203 | 3.2 | 8.0 | 0.00 | 0.00 | 0.00 | 71 | 1013.2 |
| 20260508100604 | 8 | 211 | 4.8 | 8.0 | 0.00 | 0.00 | 0.00 | 71 | 1013.2 |
| 20260508100504 | 8 | 205 | 4.8 | 8.0 | 0.00 | 0.00 | 0.00 | 71 | 1013.2 |
| 20260508100404 | 8 | 236 | 4.8 | 8.0 | 0.00 | 0.00 | 0.00 | 71 | 1013.2 |
| 20260508100304 | 8 | 210 | 4.8 | 9.7 | 0.00 | 0.00 | 0.00 | 71 | 1013.2 |
| 20260508100204 | 8 | 180 | 6.4 | 9.7 | 0.00 | 0.00 | 0.00 | 71 | 1013.2 |
| 20260508100104 | 8 | 204 | 4.8 | 9.7 | 0.00 | 0.00 | 0.00 | 71 | 1013.2 |
| 20260508100004 | 8 | 205 | 3.2 | 9.7 | 0.00 | 0.00 | 0.00 | 70 | 1013.2 |
| 20260508095904 | 8 | 215 | 3.2 | 9.7 | 0.00 | 0.00 | 0.00 | 70 | 1013.2 |
| 20260508095804 | 8 | 207 | 1.6 | 9.7 | 0.00 | 0.00 | 0.00 | 70 | 1013.2 |
| 20260508095704 | 8 | 253 | 1.6 | 11.3 | 0.00 | 0.00 | 0.00 | 70 | 1013.2 |
| 20260508095604 | 8 | 167 | 1.6 | 11.3 | 0.00 | 0.00 | 0.00 | 70 | 1013.2 |
| 20260508095504 | 8 | 205 | 6.4 | 11.3 | 0.00 | 0.00 | 0.00 | 70 | 1013.2 |
| 20260508095404 | 8 | 246 | 6.4 | 11.3 | 0.00 | 0.00 | 0.00 | 70 | 1013.2 |
| 20260508095306 | 8 | 208 | 4.8 | 11.3 | 0.00 | 0.00 | 0.00 | 70 | 1012.9 |
| 20260508095204 | 8 | 190 | 6.4 | 11.3 | 0.00 | 0.00 | 0.00 | 70 | 1012.9 |
| 20260508095104 | 8 | 198 | 6.4 | 11.3 | 0.00 | 0.00 | 0.00 | 70 | 1012.9 |
| 20260508095004 | 8 | 224 | 6.4 | 11.3 | 0.00 | 0.00 | 0.00 | 70 | 1013.2 |
| 20260508094904 | 8 | 200 | 6.4 | 11.3 | 0.00 | 0.00 | 0.00 | 71 | 1013.2 |
| 20260508094804 | 8 | 198 | 8.0 | 11.3 | 0.00 | 0.00 | 0.00 | 71 | 1013.2 |
| 20260508094704 | 8 | 207 | 3.2 | 8.0 | 0.00 | 0.00 | 0.00 | 71 | 1013.2 |
| 20260508094604 | 8 | 179 | 4.8 | 8.0 | 0.00 | 0.00 | 0.00 | 71 | 1013.2 |
| 20260508094504 | 8 | 156 | 4.8 | 8.0 | 0.00 | 0.00 | 0.00 | 71 | 1013.2 |
| 20260508094404 | 8 | 225 | 4.8 | 8.0 | 0.00 | 0.00 | 0.00 | 71 | 1013.2 |
| 20260508094304 | 8 | 183 | 6.4 | 8.0 | 0.00 | 0.00 | 0.00 | 71 | 1013.2 |
| 20260508094204 | 8 | 207 | 4.8 | 8.0 | 0.00 | 0.00 | 0.00 | 71 | 1013.2 |
| 20260508094104 | 8 | 207 | 4.8 | 8.0 | 0.00 | 0.00 | 0.00 | 71 | 1013.2 |
| 20260508094004 | 8 | 207 | 3.2 | 8.0 | 0.00 | 0.00 | 0.00 | 70 | 1013.2 |
| 20260508093904 | 8 | 201 | 3.2 | 8.0 | 0.00 | 0.00 | 0.00 | 70 | 1013.2 |
| 20260508093804 | 8 | 229 | 0.0 | 8.0 | 0.00 | 0.00 | 0.00 | 70 | 1013.2 |
| 20260508093704 | 8 | 224 | 0.0 | 8.0 | 0.00 | 0.00 | 0.00 | 70 | 1013.2 |
| 20260508093604 | 8 | 224 | 1.6 | 8.0 | 0.00 | 0.00 | 0.00 | 70 | 1013.2 |
| 20260508093504 | 8 | 228 | 3.2 | 8.0 | 0.00 | 0.00 | 0.00 | 70 | 1013.2 |
| 20260508093404 | 8 | 231 | 6.4 | 8.0 | 0.00 | 0.00 | 0.00 | 70 | 1013.2 |
| 20260508093304 | 8 | 183 | 6.4 | 8.0 | 0.00 | 0.00 | 0.00 | 70 | 1013.2 |
| 20260508093204 | 8 | 217 | 4.8 | 8.0 | 0.00 | 0.00 | 0.00 | 70 | 1013.2 |
| 20260508093104 | 8 | 184 | 6.4 | 8.0 | 0.00 | 0.00 | 0.00 | 70 | 1013.2 |
| 20260508093004 | 8 | 208 | 6.4 | 8.0 | 0.00 | 0.00 | 0.00 | 70 | 1013.2 |
| 20260508092904 | 8 | 201 | 6.4 | 8.0 | 0.00 | 0.00 | 0.00 | 70 | 1013.2 |
| 20260508092804 | 8 | 200 | 4.8 | 8.0 | 0.00 | 0.00 | 0.00 | 70 | 1013.2 |
| 20260508092704 | 8 | 155 | 3.2 | 6.4 | 0.00 | 0.00 | 0.00 | 70 | 1013.2 |
| 20260508092604 | 8 | 200 | 3.2 | 6.4 | 0.00 | 0.00 | 0.00 | 70 | 1013.2 |
| 20260508092504 | 8 | 221 | 3.2 | 6.4 | 0.00 | 0.00 | 0.00 | 70 | 1013.2 |
| 20260508092404 | 8 | 215 | 1.6 | 8.0 | 0.00 | 0.00 | 0.00 | 69 | 1013.2 |
| 20260508092312 | 8 | 135 | 1.6 | 8.0 | 0.00 | 0.00 | 0.00 | 69 | 1013.2 |
| 20260508092204 | 8 | 207 | 3.2 | 9.7 | 0.00 | 0.00 | 0.00 | 69 | 1013.2 |
| 20260508092104 | 8 | 139 | 3.2 | 9.7 | 0.00 | 0.00 | 0.00 | 69 | 1013.2 |
| 20260508092004 | 8 | 114 | 1.6 | 9.7 | 0.00 | 0.00 | 0.00 | 69 | 1013.2 |
| 20260508091904 | 8 | 204 | 0.0 | 9.7 | 0.00 | 0.00 | 0.00 | 69 | 1013.2 |
| 20260508091804 | 8 | 218 | 1.6 | 9.7 | 0.00 | 0.00 | 0.00 | 69 | 1013.2 |
| 20260508091704 | 8 | 143 | 1.6 | 9.7 | 0.00 | 0.00 | 0.00 | 69 | 1012.9 |
| 20260508091604 | 8 | 215 | 3.2 | 9.7 | 0.00 | 0.00 | 0.00 | 69 | 1012.9 |
| 20260508091504 | 8 | 187 | 4.8 | 9.7 | 0.00 | 0.00 | 0.00 | 69 | 1012.9 |
| 20260508091404 | 8 | 203 | 4.8 | 9.7 | 0.00 | 0.00 | 0.00 | 69 | 1012.9 |
| 20260508091304 | 8 | 211 | 4.8 | 9.7 | 0.00 | 0.00 | 0.00 | 69 | 1013.2 |
| 20260508091204 | 8 | 181 | 3.2 | 8.0 | 0.00 | 0.00 | 0.00 | 69 | 1012.9 |
| 20260508091104 | 8 | 205 | 4.8 | 8.0 | 0.00 | 0.00 | 0.00 | 69 | 1012.9 |
| 20260508091004 | 8 | 264 | 4.8 | 8.0 | 0.00 | 0.00 | 0.00 | 69 | 1012.9 |
| 20260508090904 | 8 | 203 | 4.8 | 8.0 | 0.00 | 0.00 | 0.00 | 69 | 1013.2 |
| 20260508090804 | 8 | 197 | 3.2 | 8.0 | 0.00 | 0.00 | 0.00 | 69 | 1012.9 |
| 20260508090704 | 8 | 187 | 3.2 | 8.0 | 0.00 | 0.00 | 0.00 | 69 | 1013.2 |
| 20260508090604 | 8 | 260 | 4.8 | 8.0 | 0.00 | 0.00 | 0.00 | 69 | 1013.2 |
| 20260508090504 | 8 | 211 | 3.2 | 8.0 | 0.00 | 0.00 | 0.00 | 69 | 1013.2 |
| 20260508090404 | 8 | 211 | 6.4 | 8.0 | 0.00 | 0.00 | 0.00 | 69 | 1013.2 |
| 20260508090304 | 8 | 203 | 3.2 | 8.0 | 0.00 | 0.00 | 0.00 | 69 | 1013.2 |
| 20260508090204 | 8 | 197 | 3.2 | 8.0 | 0.00 | 0.00 | 0.00 | 69 | 1012.9 |
| 20260508090104 | 8 | 238 | 3.2 | 8.0 | 0.00 | 0.00 | 0.00 | 69 | 1012.9 |
| 20260508090004 | 8 | 177 | 3.2 | 8.0 | 0.00 | 0.00 | 0.00 | 69 | 1013.2 |
| 20260508085904 | 8 | 215 | 3.2 | 8.0 | 0.00 | 0.00 | 0.00 | 69 | 1013.2 |
| 20260508085804 | 8 | 198 | 4.8 | 8.0 | 0.00 | 0.00 | 0.00 | 69 | 1013.2 |
| 20260508085704 | 8 | 156 | 3.2 | 9.7 | 0.00 | 0.00 | 0.00 | 68 | 1013.2 |
| 20260508085604 | 8 | 169 | 4.8 | 9.7 | 0.00 | 0.00 | 0.00 | 68 | 1013.2 |
| 20260508085504 | 8 | 191 | 4.8 | 9.7 | 0.00 | 0.00 | 0.00 | 68 | 1013.2 |
| 20260508085404 | 8 | 236 | 4.8 | 9.7 | 0.00 | 0.00 | 0.00 | 68 | 1013.2 |
| 20260508085306 | 8 | 239 | 3.2 | 9.7 | 0.00 | 0.00 | 0.00 | 68 | 1012.9 |
| 20260508085204 | 8 | 236 | 3.2 | 9.7 | 0.00 | 0.00 | 0.00 | 68 | 1013.2 |
| 20260508085104 | 8 | 211 | 1.6 | 9.7 | 0.00 | 0.00 | 0.00 | 68 | 1013.2 |
| 20260508085004 | 8 | 158 | 3.2 | 9.7 | 0.00 | 0.00 | 0.00 | 68 | 1013.2 |
| 20260508084904 | 8 | 198 | 3.2 | 9.7 | 0.00 | 0.00 | 0.00 | 68 | 1013.2 |
| 20260508084804 | 8 | 195 | 4.8 | 9.7 | 0.00 | 0.00 | 0.00 | 68 | 1013.2 |
| 20260508084704 | 8 | 165 | 0.0 | 11.3 | 0.00 | 0.00 | 0.00 | 68 | 1012.9 |
| 20260508084604 | 8 | 165 | 1.6 | 11.3 | 0.00 | 0.00 | 0.00 | 68 | 1013.2 |
| 20260508084504 | 8 | 131 | 0.0 | 11.3 | 0.00 | 0.00 | 0.00 | 67 | 1013.2 |
| 20260508084404 | 8 | 131 | 3.2 | 11.3 | 0.00 | 0.00 | 0.00 | 68 | 1013.2 |
| 20260508084304 | 8 | 172 | 1.6 | 11.3 | 0.00 | 0.00 | 0.00 | 67 | 1013.2 |
| 20260508084204 | 8 | 96 | 0.0 | 11.3 | 0.00 | 0.00 | 0.00 | 68 | 1013.2 |
| 20260508084104 | 8 | 86 | 3.2 | 11.3 | 0.00 | 0.00 | 0.00 | 68 | 1013.2 |
| 20260508084004 | 8 | 211 | 3.2 | 11.3 | 0.00 | 0.00 | 0.00 | 68 | 1013.2 |
| 20260508083904 | 8 | 200 | 3.2 | 11.3 | 0.00 | 0.00 | 0.00 | 68 | 1013.2 |
| 20260508083804 | 8 | 236 | 8.0 | 11.3 | 0.00 | 0.00 | 0.00 | 67 | 1013.2 |
| 20260508083704 | 8 | 188 | 6.4 | 9.7 | 0.00 | 0.00 | 0.00 | 67 | 1013.2 |
| 20260508083604 | 8 | 188 | 4.8 | 9.7 | 0.00 | 0.00 | 0.00 | 67 | 1013.2 |
| 20260508083504 | 8 | 191 | 4.8 | 9.7 | 0.00 | 0.00 | 0.00 | 67 | 1013.2 |
| 20260508083404 | 8 | 179 | 4.8 | 9.7 | 0.00 | 0.00 | 0.00 | 67 | 1013.2 |
| 20260508083304 | 8 | 229 | 4.8 | 9.7 | 0.00 | 0.00 | 0.00 | 67 | 1013.2 |
| 20260508083204 | 8 | 159 | 3.2 | 9.7 | 0.00 | 0.00 | 0.00 | 67 | 1013.2 |
| 20260508083104 | 9 | 195 | 3.2 | 9.7 | 0.00 | 0.00 | 0.00 | 67 | 1013.2 |
| 20260508083004 | 8 | 207 | 4.8 | 9.7 | 0.00 | 0.00 | 0.00 | 67 | 1013.2 |
| 20260508082904 | 9 | 165 | 4.8 | 9.7 | 0.00 | 0.00 | 0.00 | 67 | 1013.2 |
| 20260508082804 | 8 | 173 | 6.4 | 9.7 | 0.00 | 0.00 | 0.00 | 67 | 1013.2 |
| 20260508082704 | 9 | 194 | 3.2 | 12.9 | 0.00 | 0.00 | 0.00 | 67 | 1013.2 |
| 20260508082604 | 9 | 219 | 3.2 | 12.9 | 0.00 | 0.00 | 0.00 | 67 | 1013.2 |
| 20260508082504 | 9 | 218 | 4.8 | 12.9 | 0.00 | 0.00 | 0.00 | 67 | 1013.2 |
| 20260508082404 | 9 | 243 | 4.8 | 12.9 | 0.00 | 0.00 | 0.00 | 67 | 1013.2 |
| 20260508082306 | 9 | 204 | 6.4 | 12.9 | 0.00 | 0.00 | 0.00 | 67 | 1013.2 |
| 20260508082204 | 9 | 188 | 4.8 | 12.9 | 0.00 | 0.00 | 0.00 | 67 | 1013.2 |
| 20260508082104 | 9 | 249 | 4.8 | 12.9 | 0.00 | 0.00 | 0.00 | 67 | 1013.2 |
| 20260508082004 | 9 | 255 | 4.8 | 12.9 | 0.00 | 0.00 | 0.00 | 67 | 1013.2 |
| 20260508081904 | 9 | 204 | 4.8 | 12.9 | 0.00 | 0.00 | 0.00 | 67 | 1013.2 |
| 20260508081804 | 8 | 229 | 8.0 | 12.9 | 0.00 | 0.00 | 0.00 | 67 | 1013.2 |
| 20260508081704 | 9 | 187 | 6.4 | 9.7 | 0.00 | 0.00 | 0.00 | 67 | 1013.2 |
| 20260508081604 | 9 | 203 | 6.4 | 11.3 | 0.00 | 0.00 | 0.00 | 67 | 1013.2 |
| 20260508081504 | 9 | 195 | 4.8 | 11.3 | 0.00 | 0.00 | 0.00 | 67 | 1013.2 |
| 20260508081404 | 9 | 197 | 6.4 | 11.3 | 0.00 | 0.00 | 0.00 | 67 | 1013.2 |
| 20260508081304 | 9 | 197 | 3.2 | 12.9 | 0.00 | 0.00 | 0.00 | 67 | 1013.2 |
| 20260508081204 | 9 | 208 | 4.8 | 12.9 | 0.00 | 0.00 | 0.00 | 67 | 1013.2 |
| 20260508081104 | 9 | 314 | 3.2 | 12.9 | 0.00 | 0.00 | 0.00 | 67 | 1013.2 |
| 20260508081004 | 9 | 183 | 4.8 | 12.9 | 0.00 | 0.00 | 0.00 | 67 | 1013.2 |
| 20260508080904 | 9 | 198 | 4.8 | 12.9 | 0.00 | 0.00 | 0.00 | 66 | 1013.2 |
| 20260508080804 | 9 | 210 | 4.8 | 12.9 | 0.00 | 0.00 | 0.00 | 67 | 1013.2 |
| 20260508080704 | 9 | 190 | 4.8 | 12.9 | 0.00 | 0.00 | 0.00 | 66 | 1013.2 |
| 20260508080604 | 9 | 246 | 4.8 | 12.9 | 0.00 | 0.00 | 0.00 | 66 | 1013.2 |
| 20260508080504 | 9 | 183 | 4.8 | 12.9 | 0.00 | 0.00 | 0.00 | 66 | 1013.2 |
| 20260508080404 | 9 | 218 | 6.4 | 12.9 | 0.00 | 0.00 | 0.00 | 66 | 1013.2 |
| 20260508080304 | 9 | 233 | 1.6 | 8.0 | 0.00 | 0.00 | 0.00 | 66 | 1013.2 |
| 20260508080204 | 9 | 197 | 3.2 | 8.0 | 0.00 | 0.00 | 0.00 | 66 | 1013.2 |
| 20260508080104 | 9 | 198 | 4.8 | 9.7 | 0.00 | 0.00 | 0.00 | 66 | 1013.2 |
| 20260508080004 | 9 | 198 | 3.2 | 9.7 | 0.00 | 0.00 | 0.00 | 66 | 1013.2 |
| 20260508075904 | 9 | 162 | 1.6 | 9.7 | 0.00 | 0.00 | 0.00 | 66 | 1013.2 |
| 20260508075804 | 9 | 257 | 0.0 | 9.7 | 0.00 | 0.00 | 0.00 | 66 | 1013.2 |
| 20260508075704 | 9 | 257 | 0.0 | 9.7 | 0.00 | 0.00 | 0.00 | 66 | 1013.2 |
| 20260508075604 | 9 | 257 | 0.0 | 9.7 | 0.00 | 0.00 | 0.00 | 66 | 1013.2 |
| 20260508075504 | 9 | 257 | 0.0 | 9.7 | 0.00 | 0.00 | 0.00 | 66 | 1013.2 |
| 20260508075404 | 9 | 257 | 3.2 | 9.7 | 0.00 | 0.00 | 0.00 | 66 | 1013.2 |
| 20260508075308 | 9 | 214 | 1.6 | 9.7 | 0.00 | 0.00 | 0.00 | 66 | 1013.2 |
| 20260508075204 | 9 | 165 | 6.4 | 9.7 | 0.00 | 0.00 | 0.00 | 66 | 1013.2 |
| 20260508075104 | 9 | 246 | 3.2 | 9.7 | 0.00 | 0.00 | 0.00 | 66 | 1013.2 |
| 20260508075004 | 9 | 97 | 0.0 | 9.7 | 0.00 | 0.00 | 0.00 | 66 | 1013.2 |
| 20260508074904 | 9 | 97 | 0.0 | 9.7 | 0.00 | 0.00 | 0.00 | 66 | 1013.2 |
| 20260508074804 | 9 | 97 | 1.6 | 9.7 | 0.00 | 0.00 | 0.00 | 66 | 1013.2 |
| 20260508074704 | 9 | 190 | 3.2 | 9.7 | 0.00 | 0.00 | 0.00 | 66 | 1013.2 |
| 20260508074604 | 9 | 179 | 1.6 | 9.7 | 0.00 | 0.00 | 0.00 | 66 | 1013.2 |
| 20260508074504 | 9 | 222 | 1.6 | 9.7 | 0.00 | 0.00 | 0.00 | 65 | 1013.2 |
| 20260508074404 | 9 | 208 | 1.6 | 9.7 | 0.00 | 0.00 | 0.00 | 65 | 1013.2 |
| 20260508074304 | 9 | 180 | 4.8 | 9.7 | 0.00 | 0.00 | 0.00 | 65 | 1013.2 |
| 20260508074204 | 9 | 239 | 4.8 | 9.7 | 0.00 | 0.00 | 0.00 | 66 | 1013.2 |
| 20260508074104 | 9 | 155 | 0.0 | 9.7 | 0.00 | 0.00 | 0.00 | 65 | 1013.2 |
| 20260508074004 | 9 | 172 | 4.8 | 9.7 | 0.00 | 0.00 | 0.00 | 65 | 1013.2 |
| 20260508073904 | 9 | 208 | 3.2 | 9.7 | 0.00 | 0.00 | 0.00 | 66 | 1013.2 |
| 20260508073804 | 9 | 155 | 3.2 | 11.3 | 0.00 | 0.00 | 0.00 | 65 | 1013.2 |
| 20260508073704 | 9 | 203 | 0.0 | 11.3 | 0.00 | 0.00 | 0.00 | 66 | 1013.2 |
| 20260508073604 | 10 | 233 | 1.6 | 11.3 | 0.00 | 0.00 | 0.00 | 65 | 1013.2 |
| 20260508073504 | 9 | 232 | 3.2 | 11.3 | 0.00 | 0.00 | 0.00 | 66 | 1013.2 |
| 20260508073404 | 9 | 215 | 4.8 | 11.3 | 0.00 | 0.00 | 0.00 | 65 | 1013.2 |
| 20260508073304 | 10 | 225 | 3.2 | 11.3 | 0.00 | 0.00 | 0.00 | 66 | 1013.2 |
| 20260508073204 | 9 | 184 | 3.2 | 11.3 | 0.00 | 0.00 | 0.00 | 66 | 1013.2 |
| 20260508073104 | 10 | 201 | 4.8 | 11.3 | 0.00 | 0.00 | 0.00 | 66 | 1013.2 |
| 20260508073004 | 10 | 221 | 4.8 | 11.3 | 0.00 | 0.00 | 0.00 | 66 | 1013.2 |
| 20260508072904 | 9 | 207 | 6.4 | 11.3 | 0.00 | 0.00 | 0.00 | 66 | 1013.2 |
| 20260508072804 | 10 | 176 | 3.2 | 9.7 | 0.00 | 0.00 | 0.00 | 66 | 1013.2 |
| 20260508072704 | 10 | 243 | 3.2 | 9.7 | 0.00 | 0.00 | 0.00 | 66 | 1013.2 |
| 20260508072604 | 10 | 188 | 4.8 | 9.7 | 0.00 | 0.00 | 0.00 | 65 | 1013.2 |
| 20260508072504 | 10 | 183 | 4.8 | 9.7 | 0.00 | 0.00 | 0.00 | 66 | 1013.2 |
| 20260508072404 | 10 | 165 | 4.8 | 9.7 | 0.00 | 0.00 | 0.00 | 65 | 1013.2 |
| 20260508072307 | 10 | 208 | 3.2 | 8.0 | 0.00 | 0.00 | 0.00 | 65 | 1013.2 |
| 20260508072204 | 10 | 163 | 3.2 | 9.7 | 0.00 | 0.00 | 0.00 | 65 | 1013.2 |
| 20260508072104 | 10 | 221 | 3.2 | 9.7 | 0.00 | 0.00 | 0.00 | 65 | 1013.2 |
| 20260508072004 | 10 | 198 | 4.8 | 9.7 | 0.00 | 0.00 | 0.00 | 65 | 1013.2 |
| 20260508071904 | 10 | 218 | 3.2 | 9.7 | 0.00 | 0.00 | 0.00 | 65 | 1013.2 |
| 20260508071804 | 10 | 181 | 4.8 | 9.7 | 0.00 | 0.00 | 0.00 | 65 | 1013.2 |
| 20260508071704 | 10 | 211 | 4.8 | 9.7 | 0.00 | 0.00 | 0.00 | 65 | 1013.2 |
| 20260508071604 | 10 | 176 | 3.2 | 9.7 | 0.00 | 0.00 | 0.00 | 65 | 1013.2 |
| 20260508071504 | 10 | 219 | 4.8 | 9.7 | 0.00 | 0.00 | 0.00 | 65 | 1013.6 |
| 20260508071404 | 10 | 204 | 4.8 | 9.7 | 0.00 | 0.00 | 0.00 | 65 | 1013.2 |
| 20260508071304 | 10 | 193 | 4.8 | 9.7 | 0.00 | 0.00 | 0.00 | 65 | 1013.2 |
| 20260508071204 | 10 | 231 | 4.8 | 9.7 | 0.00 | 0.00 | 0.00 | 65 | 1013.6 |
| 20260508071104 | 10 | 184 | 3.2 | 9.7 | 0.00 | 0.00 | 0.00 | 65 | 1013.6 |
| 20260508071004 | 10 | 197 | 3.2 | 9.7 | 0.00 | 0.00 | 0.00 | 64 | 1013.6 |
| 20260508070904 | 10 | 184 | 3.2 | 9.7 | 0.00 | 0.00 | 0.00 | 64 | 1013.6 |
| 20260508070804 | 10 | 153 | 4.8 | 9.7 | 0.00 | 0.00 | 0.00 | 64 | 1013.6 |
| 20260508070704 | 10 | 217 | 4.8 | 9.7 | 0.00 | 0.00 | 0.00 | 64 | 1013.6 |
| 20260508070604 | 10 | 181 | 3.2 | 11.3 | 0.00 | 0.00 | 0.00 | 64 | 1013.6 |
| 20260508070504 | 10 | 194 | 6.4 | 11.3 | 0.00 | 0.00 | 0.00 | 64 | 1013.6 |
| 20260508070404 | 10 | 231 | 3.2 | 11.3 | 0.00 | 0.00 | 0.00 | 64 | 1013.6 |
| 20260508070304 | 10 | 184 | 1.6 | 11.3 | 0.00 | 0.00 | 0.00 | 64 | 1013.6 |
| 20260508070204 | 10 | 205 | 4.8 | 11.3 | 0.00 | 0.00 | 0.00 | 64 | 1013.6 |
| 20260508070104 | 10 | 328 | 4.8 | 11.3 | 0.00 | 0.00 | 0.00 | 64 | 1013.6 |
| 20260508070004 | 10 | 174 | 1.6 | 11.3 | 0.00 | 0.00 | 0.00 | 63 | 1013.6 |
| 20260508065904 | 10 | 217 | 4.8 | 11.3 | 0.00 | 0.00 | 0.00 | 63 | 1013.6 |
| 20260508065804 | 10 | 194 | 4.8 | 11.3 | 0.00 | 0.00 | 0.00 | 64 | 1013.6 |
| 20260508065704 | 10 | 222 | 3.2 | 11.3 | 0.00 | 0.00 | 0.00 | 64 | 1013.6 |
| 20260508065604 | 10 | 179 | 4.8 | 11.3 | 0.00 | 0.00 | 0.00 | 63 | 1013.6 |
| 20260508065504 | 10 | 162 | 3.2 | 11.3 | 0.00 | 0.00 | 0.00 | 63 | 1013.6 |
| 20260508065404 | 10 | 174 | 1.6 | 11.3 | 0.00 | 0.00 | 0.00 | 63 | 1013.6 |
| 20260508065306 | 10 | 200 | 3.2 | 11.3 | 0.00 | 0.00 | 0.00 | 63 | 1013.6 |
| 20260508065204 | 10 | 225 | 1.6 | 11.3 | 0.00 | 0.00 | 0.00 | 63 | 1013.6 |
| 20260508065104 | 10 | 205 | 6.4 | 11.3 | 0.00 | 0.00 | 0.00 | 63 | 1013.6 |
| 20260508065004 | 10 | 201 | 6.4 | 11.3 | 0.00 | 0.00 | 0.00 | 63 | 1013.6 |
| 20260508064904 | 10 | 229 | 6.4 | 11.3 | 0.00 | 0.00 | 0.00 | 63 | 1013.6 |
| 20260508064804 | 10 | 200 | 4.8 | 11.3 | 0.00 | 0.00 | 0.00 | 63 | 1013.6 |
| 20260508064704 | 10 | 208 | 6.4 | 11.3 | 0.00 | 0.00 | 0.00 | 63 | 1013.6 |
| 20260508064604 | 10 | 169 | 6.4 | 11.3 | 0.00 | 0.00 | 0.00 | 63 | 1013.6 |
| 20260508064504 | 10 | 215 | 8.0 | 11.3 | 0.00 | 0.00 | 0.00 | 62 | 1013.6 |
| 20260508064404 | 10 | 188 | 8.0 | 11.3 | 0.00 | 0.00 | 0.00 | 62 | 1013.6 |
| 20260508064304 | 10 | 211 | 3.2 | 11.3 | 0.00 | 0.00 | 0.00 | 63 | 1013.6 |
| 20260508064204 | 10 | 259 | 6.4 | 11.3 | 0.00 | 0.00 | 0.00 | 62 | 1013.6 |
| 20260508064104 | 10 | 198 | 6.4 | 11.3 | 0.00 | 0.00 | 0.00 | 62 | 1013.6 |
| 20260508064004 | 10 | 219 | 6.4 | 11.3 | 0.00 | 0.00 | 0.00 | 62 | 1013.6 |
| 20260508063904 | 10 | 188 | 6.4 | 11.3 | 0.00 | 0.00 | 0.00 | 62 | 1013.6 |
| 20260508063804 | 10 | 208 | 6.4 | 9.7 | 0.00 | 0.00 | 0.00 | 62 | 1013.6 |
| 20260508063704 | 10 | 211 | 6.4 | 9.7 | 0.00 | 0.00 | 0.00 | 62 | 1013.6 |
| 20260508063604 | 10 | 208 | 4.8 | 9.7 | 0.00 | 0.00 | 0.00 | 62 | 1013.6 |
| 20260508063504 | 10 | 208 | 3.2 | 9.7 | 0.00 | 0.00 | 0.00 | 62 | 1013.6 |
| 20260508063404 | 10 | 205 | 4.8 | 11.3 | 0.00 | 0.00 | 0.00 | 62 | 1013.6 |
| 20260508063304 | 10 | 186 | 3.2 | 11.3 | 0.00 | 0.00 | 0.00 | 62 | 1013.6 |
| 20260508063204 | 10 | 162 | 4.8 | 11.3 | 0.00 | 0.00 | 0.00 | 61 | 1013.6 |
| 20260508063104 | 10 | 173 | 4.8 | 11.3 | 0.00 | 0.00 | 0.00 | 61 | 1013.6 |
| 20260508063004 | 10 | 190 | 3.2 | 11.3 | 0.00 | 0.00 | 0.00 | 61 | 1013.6 |
| 20260508062904 | 10 | 190 | 3.2 | 11.3 | 0.00 | 0.00 | 0.00 | 61 | 1013.6 |
| 20260508062804 | 10 | 198 | 4.8 | 11.3 | 0.00 | 0.00 | 0.00 | 61 | 1013.6 |
| 20260508062704 | 10 | 191 | 4.8 | 11.3 | 0.00 | 0.00 | 0.00 | 61 | 1013.6 |
| 20260508062604 | 10 | 232 | 6.4 | 11.3 | 0.00 | 0.00 | 0.00 | 61 | 1013.6 |
| 20260508062504 | 11 | 198 | 6.4 | 11.3 | 0.00 | 0.00 | 0.00 | 61 | 1013.6 |
| 20260508062404 | 11 | 170 | 8.0 | 11.3 | 0.00 | 0.00 | 0.00 | 60 | 1013.6 |
| 20260508062306 | 11 | 204 | 3.2 | 11.3 | 0.00 | 0.00 | 0.00 | 61 | 1013.6 |
| 20260508062204 | 11 | 270 | 3.2 | 11.3 | 0.00 | 0.00 | 0.00 | 60 | 1013.6 |
| 20260508062104 | 11 | 135 | 0.0 | 11.3 | 0.00 | 0.00 | 0.00 | 60 | 1013.6 |
| 20260508062004 | 11 | 135 | 3.2 | 12.9 | 0.00 | 0.00 | 0.00 | 60 | 1013.6 |
| 20260508061904 | 11 | 205 | 6.4 | 12.9 | 0.00 | 0.00 | 0.00 | 59 | 1013.6 |
| 20260508061804 | 11 | 252 | 4.8 | 12.9 | 0.00 | 0.00 | 0.00 | 59 | 1013.6 |
| 20260508061704 | 11 | 160 | 3.2 | 12.9 | 0.00 | 0.00 | 0.00 | 59 | 1013.6 |
| 20260508061604 | 11 | 181 | 6.4 | 12.9 | 0.00 | 0.00 | 0.00 | 59 | 1013.6 |
| 20260508061504 | 11 | 215 | 8.0 | 12.9 | 0.00 | 0.00 | 0.00 | 59 | 1013.6 |
| 20260508061404 | 11 | 193 | 6.4 | 12.9 | 0.00 | 0.00 | 0.00 | 59 | 1013.6 |
| 20260508061304 | 11 | 194 | 4.8 | 12.9 | 0.00 | 0.00 | 0.00 | 59 | 1013.6 |
| 20260508061204 | 11 | 177 | 3.2 | 12.9 | 0.00 | 0.00 | 0.00 | 59 | 1013.6 |
| 20260508061104 | 11 | 224 | 6.4 | 12.9 | 0.00 | 0.00 | 0.00 | 58 | 1013.6 |
| 20260508061004 | 11 | 219 | 6.4 | 9.7 | 0.00 | 0.00 | 0.00 | 58 | 1013.6 |
| 20260508060904 | 11 | 195 | 6.4 | 9.7 | 0.00 | 0.00 | 0.00 | 58 | 1013.6 |
| 20260508060804 | 11 | 180 | 1.6 | 9.7 | 0.00 | 0.00 | 0.00 | 58 | 1013.6 |
| 20260508060704 | 11 | 163 | 4.8 | 9.7 | 0.00 | 0.00 | 0.00 | 57 | 1013.6 |
| 20260508060604 | 11 | 179 | 4.8 | 16.1 | 0.00 | 0.00 | 0.00 | 57 | 1013.6 |
| 20260508060504 | 11 | 177 | 3.2 | 16.1 | 0.00 | 0.00 | 0.00 | 57 | 1013.6 |
| 20260508060404 | 11 | 208 | 6.4 | 16.1 | 0.00 | 0.00 | 0.00 | 57 | 1013.6 |
| 20260508060304 | 11 | 181 | 4.8 | 16.1 | 0.00 | 0.00 | 0.00 | 56 | 1013.6 |
| 20260508060204 | 11 | 205 | 6.4 | 16.1 | 0.00 | 0.00 | 0.00 | 56 | 1013.6 |
| 20260508060104 | 11 | 148 | 3.2 | 16.1 | 0.00 | 0.00 | 0.00 | 56 | 1013.6 |
| 20260508060004 | 11 | 169 | 3.2 | 16.1 | 0.00 | 0.00 | 0.00 | 56 | 1013.6 |
| 20260508055904 | 11 | 190 | 3.2 | 16.1 | 0.00 | 0.00 | 0.00 | 56 | 1013.6 |
| 20260508055804 | 11 | 270 | 4.8 | 16.1 | 0.00 | 0.00 | 0.00 | 56 | 1013.6 |
| 20260508055704 | 11 | 246 | 6.4 | 16.1 | 0.00 | 0.00 | 0.00 | 55 | 1013.6 |
| 20260508055604 | 11 | 162 | 3.2 | 14.5 | 0.00 | 0.00 | 0.00 | 55 | 1013.6 |
| 20260508055504 | 11 | 215 | 3.2 | 14.5 | 0.00 | 0.00 | 0.00 | 55 | 1013.6 |
| 20260508055404 | 11 | 143 | 3.2 | 14.5 | 0.00 | 0.00 | 0.00 | 55 | 1013.6 |
| 20260508055306 | 11 | 269 | 1.6 | 14.5 | 0.00 | 0.00 | 0.00 | 55 | 1013.6 |
| 20260508055204 | 11 | 249 | 6.4 | 14.5 | 0.00 | 0.00 | 0.00 | 55 | 1013.6 |
| 20260508055104 | 11 | 217 | 4.8 | 14.5 | 0.00 | 0.00 | 0.00 | 56 | 1013.6 |
| 20260508055004 | 11 | 205 | 6.4 | 14.5 | 0.00 | 0.00 | 0.00 | 55 | 1013.6 |
| 20260508054904 | 11 | 187 | 3.2 | 14.5 | 0.00 | 0.00 | 0.00 | 56 | 1013.6 |
| 20260508054804 | 11 | 257 | 6.4 | 14.5 | 0.00 | 0.00 | 0.00 | 56 | 1013.6 |
| 20260508054704 | 11 | 235 | 4.8 | 14.5 | 0.00 | 0.00 | 0.00 | 56 | 1013.6 |
| 20260508054604 | 11 | 3 | 1.6 | 14.5 | 0.00 | 0.00 | 0.00 | 57 | 1013.6 |
| 20260508054504 | 11 | 124 | 0.0 | 14.5 | 0.00 | 0.00 | 0.00 | 56 | 1013.6 |
| 20260508054404 | 11 | 208 | 6.4 | 14.5 | 0.00 | 0.00 | 0.00 | 56 | 1013.6 |
| 20260508054304 | 11 | 211 | 4.8 | 14.5 | 0.00 | 0.00 | 0.00 | 57 | 1013.6 |
| 20260508054204 | 11 | 248 | 4.8 | 9.7 | 0.00 | 0.00 | 0.00 | 57 | 1013.6 |
| 20260508054104 | 11 | 229 | 1.6 | 12.9 | 0.00 | 0.00 | 0.00 | 57 | 1013.6 |
| 20260508054004 | 11 | 155 | 0.0 | 14.5 | 0.00 | 0.00 | 0.00 | 58 | 1013.6 |
| 20260508053904 | 11 | 155 | 0.0 | 14.5 | 0.00 | 0.00 | 0.00 | 58 | 1013.6 |
| 20260508053804 | 11 | 155 | 0.0 | 14.5 | 0.00 | 0.00 | 0.00 | 58 | 1013.6 |
| 20260508053704 | 11 | 155 | 0.0 | 14.5 | 0.00 | 0.00 | 0.00 | 58 | 1013.6 |
| 20260508053604 | 11 | 155 | 0.0 | 14.5 | 0.00 | 0.00 | 0.00 | 58 | 1013.6 |
| 20260508053504 | 11 | 155 | 0.0 | 14.5 | 0.00 | 0.00 | 0.00 | 58 | 1013.6 |
| 20260508053404 | 11 | 221 | 4.8 | 14.5 | 0.00 | 0.00 | 0.00 | 57 | 1013.6 |
| 20260508053304 | 11 | 215 | 6.4 | 14.5 | 0.00 | 0.00 | 0.00 | 57 | 1013.6 |
| 20260508053204 | 11 | 194 | 8.0 | 14.5 | 0.00 | 0.00 | 0.00 | 58 | 1013.6 |
| 20260508053104 | 11 | 242 | 11.3 | 14.5 | 0.00 | 0.00 | 0.00 | 58 | 1013.6 |
| 20260508053004 | 11 | 187 | 11.3 | 17.7 | 0.00 | 0.00 | 0.00 | 58 | 1013.6 |
| 20260508052904 | 11 | 188 | 6.4 | 20.9 | 0.00 | 0.00 | 0.00 | 57 | 1013.9 |
| 20260508052804 | 11 | 191 | 8.0 | 24.1 | 0.00 | 0.00 | 0.00 | 57 | 1013.9 |
| 20260508052704 | 11 | 203 | 8.0 | 24.1 | 0.00 | 0.00 | 0.00 | 57 | 1013.9 |
| 20260508052604 | 11 | 197 | 8.0 | 24.1 | 0.00 | 0.00 | 0.00 | 57 | 1013.9 |
| 20260508052504 | 12 | 191 | 1.6 | 24.1 | 0.00 | 0.00 | 0.00 | 57 | 1013.9 |
| 20260508052404 | 12 | 270 | 4.8 | 24.1 | 0.00 | 0.00 | 0.00 | 56 | 1013.9 |
| 20260508052306 | 11 | 135 | 3.2 | 24.1 | 0.00 | 0.00 | 0.00 | 56 | 1013.9 |
| 20260508052204 | 11 | 297 | 3.2 | 24.1 | 0.00 | 0.00 | 0.00 | 57 | 1013.9 |
| 20260508052104 | 11 | 203 | 6.4 | 24.1 | 0.00 | 0.00 | 0.00 | 56 | 1013.6 |
| 20260508052004 | 11 | 212 | 14.5 | 24.1 | 0.00 | 0.00 | 0.00 | 56 | 1013.6 |
| 20260508051904 | 11 | 169 | 11.3 | 24.1 | 0.00 | 0.00 | 0.00 | 57 | 1013.9 |
| 20260508051804 | 11 | 242 | 4.8 | 22.5 | 0.00 | 0.00 | 0.00 | 57 | 1013.6 |
| 20260508051704 | 11 | 274 | 4.8 | 25.7 | 0.00 | 0.00 | 0.00 | 57 | 1013.6 |
| 20260508051604 | 11 | 169 | 12.9 | 29.0 | 0.00 | 0.00 | 0.00 | 56 | 1013.6 |
| 20260508051504 | 11 | 169 | 11.3 | 29.0 | 0.00 | 0.00 | 0.00 | 55 | 1013.6 |
| 20260508051404 | 11 | 224 | 8.0 | 29.0 | 0.00 | 0.00 | 0.00 | 55 | 1013.6 |
| 20260508051304 | 11 | 211 | 9.7 | 29.0 | 0.00 | 0.00 | 0.00 | 54 | 1013.6 |
| 20260508051204 | 11 | 186 | 9.7 | 29.0 | 0.00 | 0.00 | 0.00 | 53 | 1013.9 |
| 20260508051104 | 11 | 181 | 12.9 | 29.0 | 0.00 | 0.00 | 0.00 | 64 | 1014.3 |
| 20260508051004 | 11 | 236 | 6.4 | 29.0 | 0.00 | 0.00 | 0.00 | 64 | 1014.6 |
| 20260508050904 | 11 | 262 | 11.3 | 29.0 | 0.00 | 0.00 | 0.00 | 65 | 1014.6 |
| 20260508050804 | 10 | 336 | 17.7 | 29.0 | 0.00 | 0.00 | 0.00 | 67 | 1014.6 |
| 20260508050704 | 10 | 325 | 16.1 | 29.0 | 0.00 | 0.00 | 0.00 | 67 | 1014.6 |
| 20260508050604 | 11 | 342 | 9.7 | 24.1 | 0.00 | 0.00 | 0.00 | 65 | 1014.6 |
| 20260508050504 | 11 | 350 | 14.5 | 24.1 | 0.00 | 0.00 | 0.00 | 65 | 1014.6 |
| 20260508050404 | 11 | 342 | 17.7 | 24.1 | 0.00 | 0.00 | 0.00 | 64 | 1014.3 |
| 20260508050304 | 11 | 345 | 14.5 | 19.3 | 0.00 | 0.00 | 0.00 | 62 | 1014.3 |
| 20260508050204 | 11 | 342 | 12.9 | 14.5 | 0.00 | 0.00 | 0.00 | 63 | 1014.3 |
| 20260508050104 | 11 | 340 | 9.7 | 14.5 | 0.00 | 0.00 | 0.00 | 63 | 1013.9 |
| 20260508050004 | 11 | 322 | 3.2 | 14.5 | 0.00 | 0.00 | 0.00 | 62 | 1013.9 |
| 20260508045904 | 11 | 167 | 0.0 | 14.5 | 0.00 | 0.00 | 0.00 | 62 | 1013.6 |
| 20260508045804 | 11 | 167 | 1.6 | 14.5 | 0.00 | 0.00 | 0.00 | 62 | 1013.6 |
| 20260508045704 | 11 | 200 | 3.2 | 14.5 | 0.00 | 0.00 | 0.00 | 62 | 1013.6 |
| 20260508045604 | 11 | 195 | 6.4 | 14.5 | 0.00 | 0.00 | 0.00 | 62 | 1013.6 |
| 20260508045504 | 11 | 179 | 9.7 | 14.5 | 0.00 | 0.00 | 0.00 | 62 | 1013.6 |
| 20260508045404 | 11 | 184 | 8.0 | 14.5 | 0.00 | 0.00 | 0.00 | 62 | 1013.6 |
| 20260508045306 | 11 | 204 | 6.4 | 14.5 | 0.00 | 0.00 | 0.00 | 63 | 1013.6 |
| 20260508045204 | 11 | 174 | 9.7 | 14.5 | 0.00 | 0.00 | 0.00 | 62 | 1013.6 |
| 20260508045104 | 11 | 186 | 6.4 | 14.5 | 0.00 | 0.00 | 0.00 | 63 | 1013.6 |
| 20260508045004 | 11 | 180 | 9.7 | 14.5 | 0.00 | 0.00 | 0.00 | 64 | 1013.6 |
| 20260508044904 | 11 | 214 | 6.4 | 14.5 | 0.00 | 0.00 | 0.00 | 64 | 1013.6 |
| 20260508044804 | 11 | 186 | 6.4 | 14.5 | 0.00 | 0.00 | 0.00 | 64 | 1013.6 |
| 20260508044704 | 11 | 212 | 4.8 | 14.5 | 0.00 | 0.00 | 0.00 | 64 | 1013.6 |
| 20260508044604 | 11 | 174 | 6.4 | 14.5 | 0.00 | 0.00 | 0.00 | 64 | 1013.6 |
| 20260508044504 | 11 | 183 | 4.8 | 14.5 | 0.00 | 0.00 | 0.00 | 64 | 1013.6 |
| 20260508044404 | 11 | 224 | 8.0 | 14.5 | 0.00 | 0.00 | 0.00 | 64 | 1013.6 |
| 20260508044304 | 11 | 218 | 9.7 | 14.5 | 0.00 | 0.00 | 0.00 | 64 | 1013.6 |
| 20260508044204 | 11 | 198 | 6.4 | 14.5 | 0.00 | 0.00 | 0.00 | 65 | 1013.6 |
| 20260508044104 | 11 | 160 | 6.4 | 14.5 | 0.00 | 0.00 | 0.00 | 65 | 1013.6 |
| 20260508044004 | 11 | 136 | 1.6 | 8.0 | 0.00 | 0.00 | 0.00 | 67 | 1013.6 |
| 20260508043904 | 11 | 179 | 4.8 | 8.0 | 0.00 | 0.00 | 0.00 | 67 | 1013.6 |
| 20260508043804 | 11 | 204 | 4.8 | 8.0 | 0.00 | 0.00 | 0.00 | 67 | 1013.6 |
| 20260508043704 | 11 | 128 | 3.2 | 8.0 | 0.00 | 0.00 | 0.00 | 67 | 1013.6 |
| 20260508043604 | 11 | 169 | 4.8 | 8.0 | 0.00 | 0.00 | 0.00 | 67 | 1013.6 |
| 20260508043504 | 11 | 139 | 0.0 | 8.0 | 0.00 | 0.00 | 0.00 | 67 | 1013.6 |
| 20260508043404 | 11 | 139 | 1.6 | 8.0 | 0.00 | 0.00 | 0.00 | 67 | 1013.6 |
| 20260508043304 | 10 | 165 | 4.8 | 8.0 | 0.00 | 0.00 | 0.00 | 67 | 1013.6 |
| 20260508043204 | 11 | 118 | 0.0 | 8.0 | 0.00 | 0.00 | 0.00 | 67 | 1013.6 |
| 20260508043104 | 11 | 118 | 1.6 | 8.0 | 0.00 | 0.00 | 0.00 | 67 | 1013.6 |
| 20260508043004 | 10 | 169 | 3.2 | 8.0 | 0.00 | 0.00 | 0.00 | 67 | 1013.6 |
| 20260508042904 | 10 | 163 | 4.8 | 8.0 | 0.00 | 0.00 | 0.00 | 67 | 1013.6 |
| 20260508042804 | 10 | 162 | 4.8 | 8.0 | 0.00 | 0.00 | 0.00 | 68 | 1013.2 |
| 20260508042704 | 10 | 149 | 3.2 | 8.0 | 0.00 | 0.00 | 0.00 | 68 | 1013.2 |
| 20260508042604 | 10 | 165 | 6.4 | 8.0 | 0.00 | 0.00 | 0.00 | 68 | 1013.2 |
| 20260508042504 | 10 | 166 | 4.8 | 8.0 | 0.00 | 0.00 | 0.00 | 68 | 1013.2 |
| 20260508042404 | 10 | 115 | 3.2 | 6.4 | 0.00 | 0.00 | 0.00 | 68 | 1013.6 |
| 20260508042307 | 10 | 156 | 3.2 | 8.0 | 0.00 | 0.00 | 0.00 | 68 | 1013.2 |
| 20260508042204 | 10 | 163 | 3.2 | 8.0 | 0.00 | 0.00 | 0.00 | 68 | 1013.2 |
| 20260508042104 | 10 | 186 | 1.6 | 8.0 | 0.00 | 0.00 | 0.00 | 68 | 1013.2 |
| 20260508042004 | 10 | 142 | 3.2 | 8.0 | 0.00 | 0.00 | 0.00 | 67 | 1013.6 |
| 20260508041904 | 10 | 163 | 0.0 | 8.0 | 0.00 | 0.00 | 0.00 | 67 | 1013.2 |
| 20260508041804 | 10 | 163 | 0.0 | 8.0 | 0.00 | 0.00 | 0.00 | 67 | 1013.2 |
| 20260508041704 | 10 | 163 | 3.2 | 8.0 | 0.00 | 0.00 | 0.00 | 67 | 1013.2 |
| 20260508041604 | 10 | 215 | 4.8 | 8.0 | 0.00 | 0.00 | 0.00 | 67 | 1013.2 |
| 20260508041504 | 10 | 117 | 4.8 | 8.0 | 0.00 | 0.00 | 0.00 | 67 | 1013.2 |
| 20260508041404 | 10 | 160 | 6.4 | 8.0 | 0.00 | 0.00 | 0.00 | 67 | 1013.2 |
| 20260508041304 | 10 | 142 | 4.8 | 6.4 | 0.00 | 0.00 | 0.00 | 67 | 1013.6 |
| 20260508041204 | 10 | 169 | 4.8 | 6.4 | 0.00 | 0.00 | 0.00 | 67 | 1013.6 |
| 20260508041104 | 10 | 156 | 3.2 | 6.4 | 0.00 | 0.00 | 0.00 | 67 | 1013.6 |
| 20260508041004 | 10 | 207 | 1.6 | 6.4 | 0.00 | 0.00 | 0.00 | 67 | 1013.6 |
| 20260508040904 | 10 | 181 | 3.2 | 6.4 | 0.00 | 0.00 | 0.00 | 67 | 1013.6 |
| 20260508040804 | 10 | 208 | 1.6 | 6.4 | 0.00 | 0.00 | 0.00 | 67 | 1013.6 |
| 20260508040704 | 10 | 146 | 3.2 | 6.4 | 0.00 | 0.00 | 0.00 | 67 | 1013.6 |
| 20260508040604 | 10 | 132 | 3.2 | 6.4 | 0.00 | 0.00 | 0.00 | 67 | 1013.6 |
| 20260508040504 | 10 | 141 | 1.6 | 6.4 | 0.00 | 0.00 | 0.00 | 67 | 1013.6 |
| 20260508040404 | 10 | 187 | 4.8 | 6.4 | 0.00 | 0.00 | 0.00 | 68 | 1013.6 |
| 20260508040304 | 10 | 128 | 4.8 | 6.4 | 0.00 | 0.00 | 0.00 | 68 | 1013.6 |
| 20260508040204 | 10 | 153 | 4.8 | 6.4 | 0.00 | 0.00 | 0.00 | 68 | 1013.6 |
| 20260508040104 | 10 | 155 | 4.8 | 6.4 | 0.00 | 0.00 | 0.00 | 68 | 1013.6 |
| 20260508040004 | 10 | 155 | 4.8 | 6.4 | 0.00 | 0.00 | 0.00 | 68 | 1013.6 |
| 20260508035904 | 10 | 150 | 3.2 | 6.4 | 0.00 | 0.15 | 0.00 | 68 | 1013.6 |
| 20260508035804 | 10 | 142 | 6.4 | 6.4 | 0.00 | 0.15 | 0.00 | 68 | 1013.6 |
| 20260508035704 | 10 | 163 | 3.2 | 4.8 | 0.00 | 0.15 | 0.00 | 68 | 1013.6 |
| 20260508035604 | 10 | 142 | 1.6 | 4.8 | 0.00 | 0.15 | 0.00 | 68 | 1013.6 |
| 20260508035504 | 10 | 155 | 0.0 | 4.8 | 0.00 | 0.15 | 0.00 | 68 | 1013.6 |
| 20260508035404 | 10 | 155 | 0.0 | 4.8 | 0.00 | 0.15 | 0.00 | 68 | 1013.6 |
| 20260508035306 | 10 | 155 | 0.0 | 4.8 | 0.00 | 0.15 | 0.00 | 68 | 1013.6 |
| 20260508035204 | 11 | 155 | 1.6 | 4.8 | 0.00 | 0.15 | 0.00 | 68 | 1013.6 |
| 20260508035104 | 11 | 158 | 3.2 | 4.8 | 0.00 | 0.15 | 0.00 | 68 | 1013.6 |
| 20260508035004 | 11 | 139 | 0.0 | 0.0 | 0.00 | 0.15 | 0.00 | 68 | 1013.6 |
| 20260508034904 | 11 | 139 | 0.0 | 0.0 | 0.00 | 0.15 | 0.00 | 68 | 1013.6 |
| 20260508034804 | 11 | 139 | 0.0 | 0.0 | 0.00 | 0.15 | 0.00 | 67 | 1013.6 |
| 20260508034704 | 11 | 139 | 0.0 | 0.0 | 0.00 | 0.15 | 0.00 | 67 | 1013.6 |
| 20260508034604 | 11 | 139 | 0.0 | 0.0 | 0.00 | 0.15 | 0.00 | 67 | 1013.6 |
| 20260508034504 | 11 | 139 | 0.0 | 0.0 | 0.00 | 0.15 | 0.00 | 67 | 1013.6 |
| 20260508034404 | 11 | 139 | 0.0 | 0.0 | 0.00 | 0.15 | 0.00 | 67 | 1013.6 |
| 20260508034304 | 11 | 139 | 0.0 | 0.0 | 0.00 | 0.15 | 0.00 | 67 | 1013.6 |
| 20260508034204 | 11 | 139 | 0.0 | 0.0 | 0.00 | 0.15 | 0.00 | 67 | 1013.6 |
| 20260508034104 | 11 | 139 | 0.0 | 1.6 | 0.00 | 0.15 | 0.00 | 67 | 1013.6 |
| 20260508034004 | 11 | 139 | 0.0 | 1.6 | 0.00 | 0.15 | 0.00 | 67 | 1013.6 |
| 20260508033904 | 11 | 139 | 0.0 | 3.2 | 0.00 | 0.15 | 0.00 | 67 | 1013.6 |
| 20260508033804 | 11 | 139 | 0.0 | 3.2 | 0.00 | 0.15 | 0.00 | 66 | 1013.6 |
| 20260508033704 | 11 | 139 | 0.0 | 6.4 | 0.00 | 0.15 | 0.00 | 66 | 1013.6 |
| 20260508033604 | 11 | 139 | 0.0 | 6.4 | 0.00 | 0.15 | 0.00 | 66 | 1013.6 |
| 20260508033504 | 11 | 139 | 0.0 | 6.4 | 0.00 | 0.15 | 0.00 | 66 | 1013.6 |
| 20260508033404 | 11 | 139 | 0.0 | 6.4 | 0.00 | 0.15 | 0.00 | 65 | 1013.6 |
| 20260508033304 | 11 | 139 | 0.0 | 6.4 | 0.00 | 0.15 | 0.00 | 65 | 1013.6 |
| 20260508033204 | 11 | 139 | 0.0 | 6.4 | 0.00 | 0.15 | 0.00 | 65 | 1013.6 |
| 20260508033104 | 11 | 160 | 1.6 | 6.4 | 0.00 | 0.15 | 0.00 | 65 | 1013.6 |
| 20260508033004 | 11 | 131 | 1.6 | 6.4 | 0.00 | 0.15 | 0.00 | 65 | 1013.6 |
| 20260508032904 | 11 | 174 | 1.6 | 6.4 | 0.00 | 0.15 | 0.00 | 65 | 1013.6 |
| 20260508032804 | 11 | 184 | 4.8 | 6.4 | 0.00 | 0.15 | 0.00 | 65 | 1013.6 |
| 20260508032704 | 11 | 194 | 1.6 | 4.8 | 0.00 | 0.15 | 0.00 | 65 | 1013.6 |
| 20260508032604 | 11 | 162 | 4.8 | 4.8 | 0.00 | 0.15 | 0.00 | 65 | 1013.6 |
| 20260508032504 | 11 | 180 | 3.2 | 4.8 | 0.00 | 0.15 | 0.00 | 65 | 1013.6 |
| 20260508032404 | 11 | 160 | 4.8 | 4.8 | 0.00 | 0.15 | 0.00 | 66 | 1013.6 |
| 20260508032306 | 11 | 155 | 1.6 | 4.8 | 0.00 | 0.15 | 0.00 | 66 | 1013.6 |
| 20260508032204 | 11 | 153 | 0.0 | 3.2 | 0.00 | 0.15 | 0.00 | 66 | 1013.6 |
| 20260508032104 | 11 | 153 | 0.0 | 3.2 | 0.00 | 0.15 | 0.00 | 66 | 1013.6 |
| 20260508032004 | 11 | 153 | 1.6 | 3.2 | 0.00 | 0.15 | 0.00 | 66 | 1013.6 |
| 20260508031904 | 11 | 183 | 1.6 | 4.8 | 0.00 | 0.15 | 0.00 | 66 | 1013.6 |
| 20260508031804 | 11 | 156 | 1.6 | 8.0 | 0.00 | 0.15 | 0.00 | 66 | 1013.6 |
| 20260508031704 | 11 | 181 | 1.6 | 8.0 | 0.00 | 0.15 | 0.00 | 65 | 1013.6 |
| 20260508031604 | 11 | 155 | 1.6 | 8.0 | 0.00 | 0.15 | 0.00 | 65 | 1013.6 |
| 20260508031504 | 11 | 127 | 0.0 | 8.0 | 0.00 | 0.15 | 0.00 | 65 | 1013.6 |
| 20260508031404 | 11 | 127 | 0.0 | 8.0 | 0.00 | 0.15 | 0.00 | 64 | 1013.6 |
| 20260508031304 | 11 | 127 | 1.6 | 8.0 | 0.00 | 0.15 | 0.00 | 65 | 1013.6 |
| 20260508031204 | 11 | 174 | 1.6 | 8.0 | 0.00 | 0.15 | 0.00 | 65 | 1013.9 |
| 20260508031104 | 11 | 200 | 1.6 | 8.0 | 0.00 | 0.15 | 0.00 | 65 | 1013.6 |
| 20260508031004 | 11 | 212 | 3.2 | 8.0 | 0.00 | 0.15 | 0.00 | 64 | 1013.6 |
| 20260508030904 | 11 | 239 | 3.2 | 8.0 | 0.00 | 0.15 | 0.00 | 64 | 1013.9 |
| 20260508030804 | 11 | 163 | 0.0 | 0.0 | 0.00 | 0.15 | 0.00 | 64 | 1013.6 |
| 20260508030704 | 11 | 163 | 0.0 | 0.0 | 0.00 | 0.15 | 0.00 | 64 | 1013.6 |
| 20260508030604 | 11 | 163 | 0.0 | 3.2 | 0.00 | 0.15 | 0.00 | 64 | 1013.6 |
| 20260508030504 | 11 | 163 | 0.0 | 3.2 | 0.00 | 0.15 | 0.00 | 64 | 1013.9 |
| 20260508030404 | 11 | 163 | 0.0 | 3.2 | 0.00 | 0.15 | 0.00 | 64 | 1013.9 |
| 20260508030304 | 11 | 163 | 0.0 | 3.2 | 0.00 | 0.15 | 0.00 | 63 | 1013.9 |
| 20260508030204 | 11 | 163 | 0.0 | 3.2 | 0.00 | 0.15 | 0.00 | 63 | 1013.9 |
| 20260508030104 | 11 | 163 | 0.0 | 3.2 | 0.00 | 0.15 | 0.00 | 63 | 1013.9 |
| 20260508030004 | 11 | 163 | 0.0 | 3.2 | 0.00 | 0.15 | 0.00 | 63 | 1013.9 |
| 20260508025904 | 11 | 163 | 0.0 | 3.2 | 0.00 | 0.15 | 0.00 | 63 | 1013.9 |
| 20260508025804 | 11 | 134 | 0.0 | 3.2 | 0.00 | 0.15 | 0.00 | 63 | 1013.9 |
| 20260508025704 | 11 | 183 | 1.6 | 3.2 | 0.00 | 0.15 | 0.00 | 63 | 1013.9 |
| 20260508025604 | 11 | 283 | 0.0 | 3.2 | 0.00 | 0.15 | 0.00 | 63 | 1013.9 |
| 20260508025504 | 11 | 283 | 0.0 | 3.2 | 0.00 | 0.15 | 0.00 | 62 | 1013.9 |
| 20260508025404 | 11 | 283 | 0.0 | 3.2 | 0.00 | 0.15 | 0.00 | 62 | 1013.9 |
| 20260508025306 | 11 | 283 | 0.0 | 3.2 | 0.00 | 0.15 | 0.00 | 62 | 1013.9 |
| 20260508025204 | 11 | 297 | 1.6 | 3.2 | 0.00 | 0.15 | 0.00 | 62 | 1013.6 |
| 20260508025104 | 11 | 325 | 0.0 | 3.2 | 0.00 | 0.15 | 0.00 | 62 | 1013.9 |
| 20260508025004 | 11 | 325 | 0.0 | 3.2 | 0.00 | 0.15 | 0.00 | 62 | 1013.6 |
| 20260508024904 | 11 | 325 | 0.0 | 3.2 | 0.00 | 0.15 | 0.00 | 62 | 1013.9 |
| 20260508024804 | 11 | 325 | 0.0 | 3.2 | 0.00 | 0.15 | 0.00 | 62 | 1013.9 |
| 20260508024704 | 11 | 325 | 1.6 | 3.2 | 0.00 | 0.15 | 0.00 | 62 | 1013.6 |
| 20260508024604 | 11 | 122 | 0.0 | 0.0 | 0.00 | 0.15 | 0.00 | 62 | 1013.6 |
| 20260508024504 | 11 | 122 | 0.0 | 1.6 | 0.00 | 0.15 | 0.00 | 61 | 1013.6 |
| 20260508024404 | 11 | 122 | 0.0 | 3.2 | 0.00 | 0.15 | 0.00 | 61 | 1013.6 |
| 20260508024304 | 11 | 122 | 0.0 | 3.2 | 0.00 | 0.15 | 0.00 | 61 | 1013.6 |
| 20260508024204 | 11 | 122 | 0.0 | 3.2 | 0.00 | 0.15 | 0.00 | 61 | 1013.6 |
| 20260508024104 | 11 | 122 | 0.0 | 3.2 | 0.00 | 0.15 | 0.00 | 61 | 1013.6 |
| 20260508024004 | 11 | 122 | 0.0 | 6.4 | 0.00 | 0.15 | 0.00 | 61 | 1013.6 |
| 20260508023904 | 11 | 122 | 0.0 | 8.0 | 0.00 | 0.15 | 0.00 | 61 | 1013.6 |
| 20260508023804 | 11 | 122 | 0.0 | 8.0 | 0.00 | 0.15 | 0.00 | 60 | 1013.6 |
| 20260508023704 | 11 | 122 | 0.0 | 8.0 | 0.00 | 0.15 | 0.00 | 60 | 1013.6 |
| 20260508023604 | 11 | 122 | 0.0 | 8.0 | 0.00 | 0.15 | 0.00 | 59 | 1013.6 |
| 20260508023504 | 11 | 156 | 1.6 | 8.0 | 0.00 | 0.15 | 0.00 | 59 | 1013.6 |
| 20260508023404 | 11 | 214 | 0.0 | 8.0 | 0.00 | 0.15 | 0.00 | 59 | 1013.6 |
| 20260508023304 | 11 | 214 | 0.0 | 8.0 | 0.00 | 0.15 | 0.00 | 59 | 1013.6 |
| 20260508023204 | 11 | 267 | 0.0 | 8.0 | 0.00 | 0.15 | 0.00 | 59 | 1013.6 |
| 20260508023104 | 11 | 267 | 1.6 | 8.0 | 0.00 | 0.15 | 0.00 | 58 | 1013.6 |
| 20260508023004 | 11 | 293 | 1.6 | 8.0 | 0.00 | 0.15 | 0.00 | 59 | 1013.6 |
| 20260508022904 | 11 | 245 | 0.0 | 3.2 | 0.00 | 0.15 | 0.00 | 58 | 1013.6 |
| 20260508022804 | 11 | 245 | 0.0 | 3.2 | 0.00 | 0.15 | 0.00 | 58 | 1013.6 |
| 20260508022704 | 11 | 245 | 0.0 | 3.2 | 0.00 | 0.15 | 0.00 | 57 | 1013.6 |
| 20260508022604 | 11 | 245 | 0.0 | 3.2 | 0.00 | 0.15 | 0.00 | 57 | 1013.6 |
| 20260508022504 | 11 | 245 | 0.0 | 3.2 | 0.00 | 0.15 | 0.00 | 57 | 1013.6 |
| 20260508022404 | 11 | 245 | 0.0 | 3.2 | 0.00 | 0.15 | 0.00 | 57 | 1013.6 |
| 20260508022307 | 11 | 245 | 1.6 | 4.8 | 0.00 | 0.15 | 0.00 | 57 | 1013.6 |
| 20260508022204 | 11 | 212 | 1.6 | 6.4 | 0.00 | 0.15 | 0.00 | 57 | 1013.6 |
| 20260508022104 | 11 | 226 | 0.0 | 6.4 | 0.00 | 0.15 | 0.00 | 57 | 1013.6 |
| 20260508022004 | 11 | 240 | 0.0 | 6.4 | 0.00 | 0.15 | 0.00 | 57 | 1013.6 |
| 20260508021904 | 11 | 240 | 0.0 | 6.4 | 0.00 | 0.15 | 0.00 | 57 | 1013.6 |
| 20260508021804 | 11 | 240 | 0.0 | 6.4 | 0.00 | 0.15 | 0.00 | 57 | 1013.6 |
| 20260508021704 | 11 | 240 | 0.0 | 6.4 | 0.00 | 0.15 | 0.00 | 57 | 1013.6 |
| 20260508021604 | 11 | 240 | 0.0 | 6.4 | 0.00 | 0.15 | 0.00 | 57 | 1013.6 |
| 20260508021504 | 11 | 240 | 0.0 | 6.4 | 0.00 | 0.15 | 0.00 | 57 | 1013.6 |
| 20260508021404 | 11 | 240 | 1.6 | 6.4 | 0.00 | 0.15 | 0.00 | 56 | 1013.6 |
| 20260508021304 | 11 | 308 | 1.6 | 6.4 | 0.00 | 0.15 | 0.00 | 56 | 1013.6 |
| 20260508021204 | 11 | 257 | 0.0 | 1.6 | 0.00 | 0.15 | 0.00 | 56 | 1013.6 |
| 20260508021104 | 11 | 257 | 0.0 | 1.6 | 0.00 | 0.15 | 0.00 | 56 | 1013.6 |
| 20260508021004 | 11 | 257 | 0.0 | 1.6 | 0.00 | 0.15 | 0.00 | 56 | 1013.6 |
| 20260508020904 | 11 | 236 | 0.0 | 1.6 | 0.00 | 0.15 | 0.00 | 56 | 1013.6 |
| 20260508020804 | 11 | 236 | 0.0 | 3.2 | 0.00 | 0.15 | 0.00 | 56 | 1013.6 |
| 20260508020704 | 11 | 236 | 0.0 | 3.2 | 0.00 | 0.15 | 0.00 | 56 | 1013.6 |
| 20260508020604 | 12 | 236 | 0.0 | 3.2 | 0.00 | 0.15 | 0.00 | 56 | 1013.6 |
| 20260508020504 | 12 | 236 | 0.0 | 3.2 | 0.00 | 0.15 | 0.00 | 55 | 1013.6 |
| 20260508020404 | 12 | 236 | 0.0 | 3.2 | 0.00 | 0.15 | 0.00 | 55 | 1013.6 |
| 20260508020304 | 12 | 236 | 0.0 | 3.2 | 0.00 | 0.15 | 0.00 | 55 | 1013.6 |
| 20260508020204 | 12 | 236 | 0.0 | 3.2 | 0.00 | 0.15 | 0.00 | 55 | 1013.6 |
| 20260508020104 | 12 | 160 | 0.0 | 3.2 | 0.00 | 0.15 | 0.00 | 55 | 1013.6 |
| 20260508020004 | 12 | 160 | 0.0 | 3.2 | 0.00 | 0.15 | 0.00 | 55 | 1013.6 |
| 20260508015904 | 12 | 190 | 0.0 | 3.2 | 0.00 | 0.15 | 0.00 | 55 | 1013.6 |
| 20260508015804 | 12 | 273 | 0.0 | 0.0 | 0.00 | 0.15 | 0.00 | 55 | 1013.6 |
| 20260508015704 | 12 | 273 | 0.0 | 0.0 | 0.00 | 0.15 | 0.00 | 55 | 1013.6 |
| 20260508015604 | 12 | 273 | 0.0 | 0.0 | 0.00 | 0.15 | 0.00 | 55 | 1013.6 |
| 20260508015504 | 12 | 273 | 0.0 | 0.0 | 0.00 | 0.15 | 0.00 | 55 | 1013.6 |
| 20260508015404 | 12 | 273 | 0.0 | 0.0 | 0.00 | 0.15 | 0.00 | 55 | 1013.6 |
| 20260508015306 | 12 | 273 | 0.0 | 0.0 | 0.00 | 0.15 | 0.00 | 55 | 1013.6 |
| 20260508015204 | 12 | 273 | 0.0 | 1.6 | 0.00 | 0.15 | 0.00 | 55 | 1013.6 |
| 20260508015104 | 12 | 273 | 0.0 | 1.6 | 0.00 | 0.15 | 0.00 | 55 | 1013.6 |
| 20260508015004 | 12 | 273 | 0.0 | 1.6 | 0.00 | 0.15 | 0.00 | 55 | 1013.6 |
| 20260508014904 | 12 | 273 | 0.0 | 1.6 | 0.00 | 0.15 | 0.00 | 55 | 1013.6 |
| 20260508014804 | 12 | 273 | 0.0 | 4.8 | 0.00 | 0.15 | 0.00 | 55 | 1013.6 |
| 20260508014704 | 12 | 273 | 0.0 | 4.8 | 0.00 | 0.15 | 0.00 | 55 | 1013.6 |
| 20260508014604 | 12 | 273 | 0.0 | 4.8 | 0.00 | 0.15 | 0.00 | 55 | 1013.6 |
| 20260508014504 | 12 | 273 | 0.0 | 4.8 | 0.00 | 0.15 | 0.00 | 54 | 1013.6 |
| 20260508014404 | 12 | 273 | 0.0 | 4.8 | 0.00 | 0.15 | 0.00 | 54 | 1013.6 |
| 20260508014304 | 12 | 273 | 0.0 | 4.8 | 0.00 | 0.15 | 0.00 | 54 | 1013.6 |
| 20260508014204 | 12 | 210 | 0.0 | 4.8 | 0.00 | 0.15 | 0.00 | 54 | 1013.6 |
| 20260508014104 | 12 | 210 | 0.0 | 4.8 | 0.00 | 0.15 | 0.00 | 54 | 1013.6 |
| 20260508014004 | 12 | 210 | 0.0 | 4.8 | 0.00 | 0.15 | 0.00 | 54 | 1013.6 |
| 20260508013904 | 12 | 215 | 1.6 | 4.8 | 0.00 | 0.15 | 0.00 | 54 | 1013.6 |
| 20260508013804 | 12 | 34 | 1.6 | 4.8 | 0.00 | 0.15 | 0.00 | 54 | 1013.6 |
| 20260508013704 | 12 | 243 | 0.0 | 4.8 | 0.00 | 0.15 | 0.00 | 54 | 1013.6 |
| 20260508013604 | 12 | 243 | 0.0 | 4.8 | 0.00 | 0.15 | 0.00 | 53 | 1013.6 |
| 20260508013504 | 12 | 243 | 0.0 | 4.8 | 0.00 | 0.15 | 0.00 | 53 | 1013.6 |
| 20260508013404 | 12 | 243 | 0.0 | 6.4 | 0.00 | 0.15 | 0.00 | 53 | 1013.6 |
| 20260508013304 | 12 | 243 | 1.6 | 6.4 | 0.00 | 0.15 | 0.00 | 53 | 1013.6 |
| 20260508013204 | 12 | 246 | 3.2 | 6.4 | 0.00 | 0.15 | 0.00 | 53 | 1013.6 |
| 20260508013104 | 12 | 167 | 1.6 | 9.7 | 0.00 | 0.15 | 0.00 | 53 | 1013.6 |
| 20260508013004 | 12 | 235 | 0.0 | 12.9 | 0.00 | 0.15 | 0.00 | 53 | 1013.6 |
| 20260508012904 | 12 | 232 | 0.0 | 12.9 | 0.00 | 0.15 | 0.00 | 53 | 1013.6 |
| 20260508012804 | 12 | 101 | 0.0 | 12.9 | 0.00 | 0.15 | 0.00 | 53 | 1013.6 |
| 20260508012704 | 12 | 101 | 0.0 | 12.9 | 0.00 | 0.15 | 0.00 | 53 | 1013.6 |
| 20260508012604 | 12 | 101 | 0.0 | 12.9 | 0.00 | 0.15 | 0.00 | 53 | 1013.6 |
| 20260508012504 | 12 | 8 | 3.2 | 12.9 | 0.00 | 0.15 | 0.00 | 53 | 1013.6 |
| 20260508012404 | 12 | 232 | 3.2 | 12.9 | 0.00 | 0.15 | 0.00 | 53 | 1013.2 |
| 20260508012307 | 12 | 163 | 3.2 | 12.9 | 0.00 | 0.15 | 0.00 | 53 | 1013.2 |
| 20260508012204 | 12 | 240 | 4.8 | 12.9 | 0.00 | 0.15 | 0.00 | 53 | 1013.2 |
| 20260508012104 | 12 | 248 | 8.0 | 12.9 | 0.00 | 0.15 | 0.00 | 52 | 1013.2 |
| 20260508012004 | 12 | 184 | 1.6 | 12.9 | 0.00 | 0.15 | 0.00 | 54 | 1013.2 |
| 20260508011904 | 12 | 148 | 0.0 | 12.9 | 0.00 | 0.15 | 0.00 | 53 | 1013.2 |
| 20260508011804 | 12 | 166 | 3.2 | 12.9 | 0.00 | 0.15 | 0.00 | 53 | 1013.2 |
| 20260508011704 | 12 | 352 | 4.8 | 12.9 | 0.00 | 0.15 | 0.00 | 53 | 1013.2 |
| 20260508011604 | 12 | 203 | 3.2 | 12.9 | 0.00 | 0.15 | 0.00 | 53 | 1013.2 |
| 20260508011504 | 12 | 249 | 8.0 | 12.9 | 0.00 | 0.15 | 0.00 | 53 | 1013.2 |
| 20260508011404 | 12 | 200 | 4.8 | 9.7 | 0.00 | 0.15 | 0.00 | 53 | 1013.6 |
| 20260508011304 | 12 | 211 | 6.4 | 9.7 | 0.00 | 0.15 | 0.00 | 53 | 1013.6 |
| 20260508011204 | 12 | 183 | 1.6 | 9.7 | 0.00 | 0.15 | 0.00 | 54 | 1013.6 |
| 20260508011104 | 12 | 75 | 3.2 | 9.7 | 0.00 | 0.15 | 0.00 | 54 | 1013.6 |
| 20260508011004 | 12 | 222 | 0.0 | 6.4 | 0.00 | 0.15 | 0.00 | 53 | 1013.6 |
| 20260508010904 | 12 | 146 | 3.2 | 4.8 | 0.00 | 0.15 | 0.00 | 54 | 1013.6 |
| 20260508010804 | 12 | 221 | 0.0 | 4.8 | 0.00 | 0.15 | 0.00 | 53 | 1013.6 |
| 20260508010704 | 12 | 235 | 1.6 | 4.8 | 0.00 | 0.15 | 0.00 | 53 | 1013.6 |
| 20260508010604 | 12 | 253 | 1.6 | 4.8 | 0.00 | 0.15 | 0.00 | 53 | 1013.6 |
| 20260508010504 | 12 | 240 | 0.0 | 3.2 | 0.00 | 0.15 | 0.00 | 53 | 1013.6 |
| 20260508010404 | 12 | 256 | 1.6 | 3.2 | 0.00 | 0.15 | 0.00 | 53 | 1013.6 |
| 20260508010304 | 12 | 311 | 0.0 | 4.8 | 0.00 | 0.15 | 0.00 | 52 | 1013.6 |
| 20260508010204 | 12 | 311 | 0.0 | 4.8 | 0.00 | 0.15 | 0.00 | 52 | 1013.6 |
| 20260508010104 | 12 | 311 | 0.0 | 4.8 | 0.00 | 0.15 | 0.00 | 53 | 1013.6 |
| 20260508010004 | 12 | 311 | 1.6 | 4.8 | 0.00 | 0.15 | 0.00 | 52 | 1013.6 |
| 20260508005904 | 12 | 302 | 0.0 | 4.8 | 0.00 | 0.15 | 0.00 | 52 | 1013.6 |
| 20260508005804 | 12 | 253 | 0.0 | 6.4 | 0.00 | 0.15 | 0.00 | 52 | 1013.6 |
| 20260508005704 | 12 | 253 | 0.0 | 6.4 | 0.00 | 0.15 | 0.00 | 52 | 1013.6 |
| 20260508005604 | 12 | 253 | 0.0 | 6.4 | 0.00 | 0.15 | 0.00 | 52 | 1013.6 |
| 20260508005504 | 12 | 253 | 1.6 | 6.4 | 0.00 | 0.15 | 0.00 | 52 | 1013.6 |
| 20260508005404 | 12 | 250 | 1.6 | 6.4 | 0.00 | 0.15 | 0.00 | 52 | 1013.6 |
| 20260508005306 | 12 | 280 | 0.0 | 6.4 | 0.00 | 0.15 | 0.00 | 51 | 1013.6 |
| 20260508005204 | 12 | 280 | 0.0 | 11.3 | 0.00 | 0.15 | 0.00 | 51 | 1013.6 |
| 20260508005104 | 12 | 280 | 0.0 | 11.3 | 0.00 | 0.15 | 0.00 | 51 | 1013.6 |
| 20260508005004 | 12 | 280 | 1.6 | 11.3 | 0.00 | 0.15 | 0.00 | 51 | 1013.6 |
| 20260508004904 | 12 | 214 | 3.2 | 11.3 | 0.00 | 0.15 | 0.00 | 51 | 1013.6 |
| 20260508004804 | 12 | 304 | 1.6 | 11.3 | 0.00 | 0.15 | 0.00 | 51 | 1013.6 |
| 20260508004704 | 12 | 314 | 3.2 | 11.3 | 0.00 | 0.15 | 0.00 | 51 | 1013.6 |
| 20260508004604 | 12 | 274 | 1.6 | 11.3 | 0.00 | 0.15 | 0.00 | 51 | 1013.6 |
| 20260508004504 | 12 | 276 | 1.6 | 11.3 | 0.00 | 0.15 | 0.00 | 50 | 1013.6 |
| 20260508004404 | 12 | 281 | 0.0 | 11.3 | 0.00 | 0.15 | 0.00 | 50 | 1013.6 |
| 20260508004304 | 12 | 269 | 6.4 | 11.3 | 0.00 | 0.15 | 0.00 | 50 | 1013.6 |
| 20260508004204 | 12 | 270 | 4.8 | 11.3 | 0.00 | 0.15 | 0.00 | 50 | 1013.6 |
| 20260508004104 | 12 | 280 | 3.2 | 11.3 | 0.00 | 0.15 | 0.00 | 50 | 1013.6 |
| 20260508004004 | 12 | 270 | 4.8 | 11.3 | 0.00 | 0.15 | 0.00 | 50 | 1013.6 |
| 20260508003904 | 12 | 288 | 4.8 | 11.3 | 0.00 | 0.15 | 0.00 | 50 | 1013.6 |
| 20260508003804 | 12 | 278 | 4.8 | 11.3 | 0.00 | 0.15 | 0.00 | 50 | 1013.6 |
| 20260508003704 | 12 | 276 | 0.0 | 11.3 | 0.00 | 0.15 | 0.00 | 49 | 1013.6 |
| 20260508003604 | 12 | 280 | 1.6 | 11.3 | 0.00 | 0.15 | 0.00 | 49 | 1013.6 |
| 20260508003504 | 12 | 300 | 1.6 | 11.3 | 0.00 | 0.15 | 0.00 | 50 | 1013.6 |
| 20260508003404 | 12 | 252 | 3.2 | 11.3 | 0.00 | 0.15 | 0.00 | 49 | 1013.6 |
| 20260508003304 | 12 | 248 | 3.2 | 11.3 | 0.00 | 0.15 | 0.00 | 49 | 1013.6 |
| 20260508003204 | 12 | 270 | 4.8 | 11.3 | 0.00 | 0.15 | 0.00 | 49 | 1013.6 |
| 20260508003104 | 12 | 228 | 3.2 | 11.3 | 0.00 | 0.15 | 0.00 | 49 | 1013.6 |
| 20260508003005 | 12 | 250 | 8.0 | 11.3 | 0.00 | 0.15 | 0.00 | 49 | 1013.6 |
| 20260508002904 | 12 | 287 | 4.8 | 12.9 | 0.00 | 0.15 | 0.00 | 49 | 1013.6 |
| 20260508002804 | 12 | 281 | 8.0 | 12.9 | 0.00 | 0.15 | 0.00 | 49 | 1013.6 |
| 20260508002704 | 12 | 297 | 6.4 | 12.9 | 0.00 | 0.15 | 0.00 | 49 | 1013.6 |
| 20260508002604 | 12 | 274 | 4.8 | 14.5 | 0.00 | 0.15 | 0.00 | 49 | 1013.6 |
| 20260508002504 | 12 | 239 | 6.4 | 14.5 | 0.00 | 0.15 | 0.00 | 49 | 1013.6 |
| 20260508002404 | 12 | 308 | 4.8 | 14.5 | 0.00 | 0.15 | 0.00 | 49 | 1013.6 |
| 20260508002306 | 12 | 270 | 3.2 | 19.3 | 0.00 | 0.15 | 0.00 | 49 | 1013.6 |
| 20260508002204 | 12 | 305 | 4.8 | 19.3 | 0.00 | 0.15 | 0.00 | 49 | 1013.6 |
| 20260508002104 | 12 | 329 | 4.8 | 19.3 | 0.00 | 0.15 | 0.00 | 48 | 1013.6 |
| 20260508002004 | 12 | 284 | 8.0 | 19.3 | 0.00 | 0.15 | 0.00 | 48 | 1013.6 |
| 20260508001904 | 12 | 280 | 8.0 | 19.3 | 0.00 | 0.15 | 0.00 | 48 | 1013.6 |
| 20260508001804 | 13 | 215 | 6.4 | 19.3 | 0.00 | 0.15 | 0.00 | 48 | 1013.6 |
| 20260508001704 | 13 | 316 | 8.0 | 19.3 | 0.00 | 0.15 | 0.00 | 48 | 1013.6 |
| 20260508001604 | 13 | 297 | 8.0 | 19.3 | 0.00 | 0.15 | 0.00 | 47 | 1013.6 |
| 20260508001504 | 13 | 294 | 8.0 | 30.6 | 0.00 | 0.15 | 0.00 | 47 | 1013.6 |
| 20260508001404 | 12 | 297 | 9.7 | 30.6 | 0.00 | 0.15 | 0.00 | 47 | 1013.6 |
| 20260508001304 | 13 | 283 | 11.3 | 30.6 | 0.00 | 0.15 | 0.00 | 46 | 1013.6 |
| 20260508001204 | 13 | 291 | 11.3 | 30.6 | 0.00 | 0.15 | 0.00 | 46 | 1013.6 |
| 20260508001104 | 12 | 315 | 11.3 | 30.6 | 0.00 | 0.15 | 0.00 | 46 | 1013.6 |
| 20260508001004 | 13 | 277 | 8.0 | 30.6 | 0.00 | 0.15 | 0.00 | 45 | 1013.6 |
| 20260508000904 | 13 | 298 | 8.0 | 30.6 | 0.00 | 0.15 | 0.00 | 45 | 1013.6 |
| 20260508000804 | 13 | 321 | 11.3 | 30.6 | 0.00 | 0.15 | 0.00 | 45 | 1013.6 |
| 20260508000704 | 13 | 287 | 11.3 | 30.6 | 0.00 | 0.15 | 0.00 | 44 | 1013.6 |
| 20260508000604 | 13 | 276 | 16.1 | 30.6 | 0.00 | 0.15 | 0.00 | 44 | 1013.6 |
| 20260508000504 | 13 | 256 | 6.4 | 24.1 | 0.00 | 0.15 | 0.00 | 44 | 1013.6 |
| 20260508000405 | 13 | 298 | 9.7 | 24.1 | 0.00 | 0.15 | 0.00 | 44 | 1013.6 |
| 20260508000305 | 13 | 290 | 12.9 | 24.1 | 0.00 | 0.15 | 0.00 | 43 | 1013.6 |
| 20260508000205 | 13 | 285 | 11.3 | 24.1 | 0.00 | 0.15 | 0.00 | 43 | 1013.6 |
| 20260508000104 | 13 | 288 | 8.0 | 24.1 | 0.00 | 0.15 | 0.00 | 44 | 1013.6 |
| 20260508000004 | 13 | 280 | 9.7 | 24.1 | 0.00 | 0.15 | 0.00 | 44 | 1013.6 |
| 20260507235904 | 13 | 210 | 4.8 | 24.1 | 0.00 | 0.15 | 0.00 | 44 | 1013.6 |
| 20260507235804 | 13 | 218 | 6.4 | 24.1 | 0.00 | 0.15 | 0.00 | 44 | 1013.6 |
| 20260507235704 | 13 | 172 | 9.7 | 24.1 | 0.00 | 0.15 | 0.00 | 44 | 1013.6 |
| 20260507235604 | 13 | 134 | 8.0 | 24.1 | 0.00 | 0.15 | 0.00 | 43 | 1013.6 |
| 20260507235504 | 13 | 277 | 11.3 | 24.1 | 0.00 | 0.15 | 0.00 | 43 | 1013.6 |
| 20260507235404 | 13 | 245 | 9.7 | 17.7 | 0.00 | 0.15 | 0.00 | 42 | 1013.2 |
| 20260507235306 | 13 | 283 | 8.0 | 17.7 | 0.00 | 0.15 | 0.00 | 42 | 1013.2 |
| 20260507235204 | 13 | 273 | 6.4 | 17.7 | 0.00 | 0.15 | 0.00 | 43 | 1013.2 |
| 20260507235104 | 13 | 255 | 8.0 | 17.7 | 0.00 | 0.15 | 0.00 | 43 | 1013.2 |
| 20260507235004 | 13 | 219 | 9.7 | 17.7 | 0.00 | 0.15 | 0.00 | 42 | 1013.2 |
| 20260507234904 | 13 | 284 | 3.2 | 9.7 | 0.00 | 0.15 | 0.00 | 43 | 1013.2 |
| 20260507234804 | 13 | 284 | 6.4 | 9.7 | 0.00 | 0.15 | 0.00 | 43 | 1013.2 |
| 20260507234704 | 13 | 283 | 3.2 | 8.0 | 0.00 | 0.15 | 0.00 | 42 | 1013.2 |
| 20260507234604 | 13 | 280 | 1.6 | 8.0 | 0.00 | 0.15 | 0.00 | 42 | 1013.2 |
| 20260507234504 | 13 | 229 | 0.0 | 12.9 | 0.00 | 0.15 | 0.00 | 42 | 1013.2 |
| 20260507234404 | 13 | 342 | 3.2 | 12.9 | 0.00 | 0.15 | 0.00 | 42 | 1013.2 |
| 20260507234304 | 13 | 274 | 3.2 | 12.9 | 0.00 | 0.15 | 0.00 | 42 | 1013.2 |
| 20260507234204 | 13 | 288 | 3.2 | 12.9 | 0.00 | 0.15 | 0.00 | 42 | 1013.2 |
| 20260507234104 | 13 | 269 | 3.2 | 12.9 | 0.00 | 0.15 | 0.00 | 42 | 1013.2 |
| 20260507234004 | 13 | 224 | 1.6 | 12.9 | 0.00 | 0.15 | 0.00 | 42 | 1013.2 |
| 20260507233904 | 13 | 267 | 3.2 | 12.9 | 0.00 | 0.15 | 0.00 | 42 | 1013.2 |
| 20260507233804 | 13 | 274 | 1.6 | 12.9 | 0.00 | 0.15 | 0.00 | 41 | 1013.2 |
| 20260507233704 | 13 | 179 | 3.2 | 12.9 | 0.00 | 0.15 | 0.00 | 41 | 1013.2 |
| 20260507233604 | 13 | 274 | 6.4 | 12.9 | 0.00 | 0.15 | 0.00 | 41 | 1013.2 |
| 20260507233504 | 13 | 269 | 3.2 | 11.3 | 0.00 | 0.15 | 0.00 | 41 | 1013.2 |
| 20260507233404 | 13 | 242 | 4.8 | 11.3 | 0.00 | 0.15 | 0.00 | 41 | 1013.2 |
| 20260507233304 | 13 | 288 | 4.8 | 11.3 | 0.00 | 0.15 | 0.00 | 41 | 1013.2 |
| 20260507233204 | 13 | 273 | 4.8 | 11.3 | 0.00 | 0.15 | 0.00 | 41 | 1013.2 |
| 20260507233104 | 13 | 222 | 4.8 | 11.3 | 0.00 | 0.15 | 0.00 | 41 | 1013.2 |
| 20260507233004 | 14 | 291 | 4.8 | 12.9 | 0.00 | 0.15 | 0.00 | 41 | 1013.2 |
| 20260507232904 | 14 | 249 | 3.2 | 12.9 | 0.00 | 0.15 | 0.00 | 41 | 1013.2 |
| 20260507232804 | 14 | 295 | 4.8 | 12.9 | 0.00 | 0.15 | 0.00 | 41 | 1013.2 |
| 20260507232704 | 14 | 276 | 3.2 | 12.9 | 0.00 | 0.15 | 0.00 | 41 | 1013.2 |
| 20260507232604 | 14 | 257 | 1.6 | 12.9 | 0.00 | 0.15 | 0.00 | 42 | 1013.2 |
| 20260507232504 | 14 | 190 | 3.2 | 12.9 | 0.00 | 0.15 | 0.00 | 41 | 1013.2 |
| 20260507232404 | 14 | 240 | 1.6 | 12.9 | 0.00 | 0.15 | 0.00 | 41 | 1013.2 |
| 20260507232306 | 14 | 91 | 3.2 | 12.9 | 0.00 | 0.15 | 0.00 | 42 | 1013.2 |
| 20260507232204 | 14 | 239 | 1.6 | 12.9 | 0.00 | 0.15 | 0.00 | 41 | 1013.2 |
| 20260507232104 | 14 | 218 | 3.2 | 12.9 | 0.00 | 0.15 | 0.00 | 41 | 1013.2 |
| 20260507232004 | 14 | 34 | 1.6 | 11.3 | 0.00 | 0.15 | 0.00 | 41 | 1013.2 |
| 20260507231904 | 14 | 210 | 4.8 | 11.3 | 0.00 | 0.15 | 0.00 | 41 | 1013.2 |
| 20260507231804 | 14 | 319 | 3.2 | 11.3 | 0.00 | 0.15 | 0.00 | 41 | 1013.2 |
| 20260507231704 | 14 | 319 | 3.2 | 11.3 | 0.00 | 0.15 | 0.00 | 40 | 1013.2 |
| 20260507231604 | 14 | 284 | 3.2 | 11.3 | 0.00 | 0.15 | 0.00 | 40 | 1013.2 |
| 20260507231504 | 14 | 224 | 4.8 | 11.3 | 0.00 | 0.15 | 0.00 | 39 | 1013.2 |
| 20260507231404 | 14 | 278 | 4.8 | 11.3 | 0.00 | 0.15 | 0.00 | 40 | 1013.2 |
| 20260507231304 | 14 | 256 | 4.8 | 9.7 | 0.00 | 0.15 | 0.00 | 40 | 1013.2 |
| 20260507231204 | 14 | 269 | 4.8 | 9.7 | 0.00 | 0.15 | 0.00 | 39 | 1013.2 |
| 20260507231104 | 15 | 280 | 3.2 | 9.7 | 0.00 | 0.15 | 0.00 | 40 | 1013.2 |
| 20260507231004 | 15 | 1 | 3.2 | 9.7 | 0.00 | 0.15 | 0.00 | 40 | 1013.2 |
| 20260507230904 | 15 | 218 | 1.6 | 9.7 | 0.00 | 0.15 | 0.00 | 40 | 1013.2 |
| 20260507230804 | 15 | 217 | 3.2 | 14.5 | 0.00 | 0.15 | 0.00 | 40 | 1013.2 |
| 20260507230704 | 15 | 218 | 4.8 | 14.5 | 0.00 | 0.15 | 0.00 | 39 | 1013.2 |
| 20260507230604 | 15 | 245 | 3.2 | 14.5 | 0.00 | 0.15 | 0.00 | 40 | 1013.2 |
| 20260507230504 | 15 | 346 | 3.2 | 14.5 | 0.00 | 0.15 | 0.00 | 40 | 1013.2 |
| 20260507230404 | 15 | 354 | 0.0 | 14.5 | 0.00 | 0.15 | 0.00 | 39 | 1013.2 |
| 20260507230304 | 15 | 354 | 1.6 | 14.5 | 0.00 | 0.15 | 0.00 | 40 | 1012.9 |
| 20260507230204 | 15 | 235 | 6.4 | 14.5 | 0.00 | 0.15 | 0.00 | 38 | 1012.9 |
| 20260507230104 | 15 | 210 | 4.8 | 14.5 | 0.00 | 0.15 | 0.00 | 39 | 1013.2 |
| 20260507230004 | 15 | 167 | 3.2 | 14.5 | 0.00 | 0.15 | 0.00 | 38 | 1013.2 |
| 20260507225904 | 14 | 193 | 8.0 | 14.5 | 0.00 | 0.15 | 0.00 | 38 | 1013.2 |
| 20260507225804 | 15 | 242 | 4.8 | 12.9 | 0.00 | 0.15 | 0.00 | 40 | 1013.2 |
| 20260507225704 | 15 | 250 | 4.8 | 14.5 | 0.00 | 0.15 | 0.00 | 39 | 1012.9 |
| 20260507225604 | 15 | 249 | 4.8 | 14.5 | 0.00 | 0.15 | 0.00 | 38 | 1012.9 |
| 20260507225504 | 15 | 205 | 4.8 | 14.5 | 0.00 | 0.15 | 0.00 | 39 | 1013.2 |
| 20260507225404 | 15 | 181 | 4.8 | 14.5 | 0.00 | 0.15 | 0.00 | 38 | 1013.2 |
| 20260507225306 | 15 | 256 | 1.6 | 14.5 | 0.00 | 0.15 | 0.00 | 39 | 1013.2 |
| 20260507225204 | 15 | 148 | 3.2 | 14.5 | 0.00 | 0.15 | 0.00 | 39 | 1013.2 |
| 20260507225104 | 15 | 221 | 4.8 | 14.5 | 0.00 | 0.15 | 0.00 | 37 | 1013.2 |
| 20260507225004 | 15 | 198 | 8.0 | 14.5 | 0.00 | 0.15 | 0.00 | 38 | 1013.2 |
| 20260507224904 | 15 | 219 | 6.4 | 14.5 | 0.00 | 0.15 | 0.00 | 39 | 1013.2 |
| 20260507224804 | 15 | 260 | 9.7 | 14.5 | 0.00 | 0.15 | 0.00 | 38 | 1013.2 |
| 20260507224705 | 15 | 201 | 4.8 | 11.3 | 0.00 | 0.15 | 0.00 | 38 | 1013.2 |
| 20260507224604 | 15 | 203 | 4.8 | 11.3 | 0.00 | 0.15 | 0.00 | 38 | 1013.2 |
| 20260507224504 | 15 | 266 | 4.8 | 11.3 | 0.00 | 0.15 | 0.00 | 38 | 1013.2 |
| 20260507224404 | 15 | 266 | 1.6 | 14.5 | 0.00 | 0.15 | 0.00 | 39 | 1013.2 |
| 20260507224304 | 15 | 228 | 3.2 | 14.5 | 0.00 | 0.15 | 0.00 | 39 | 1013.2 |
| 20260507224204 | 15 | 215 | 3.2 | 14.5 | 0.00 | 0.15 | 0.00 | 39 | 1013.2 |
| 20260507224104 | 15 | 222 | 4.8 | 14.5 | 0.00 | 0.15 | 0.00 | 39 | 1013.2 |
| 20260507224004 | 15 | 309 | 3.2 | 14.5 | 0.00 | 0.15 | 0.00 | 39 | 1013.2 |
| 20260507223904 | 15 | 181 | 8.0 | 14.5 | 0.00 | 0.15 | 0.00 | 38 | 1013.2 |
| 20260507223804 | 15 | 172 | 6.4 | 14.5 | 0.00 | 0.15 | 0.00 | 39 | 1013.2 |
| 20260507223704 | 14 | 222 | 6.4 | 14.5 | 0.00 | 0.15 | 0.00 | 40 | 1013.2 |
| 20260507223604 | 14 | 186 | 6.4 | 14.5 | 0.00 | 0.15 | 0.00 | 39 | 1013.2 |
| 20260507223504 | 14 | 208 | 8.0 | 14.5 | 0.00 | 0.15 | 0.00 | 40 | 1013.2 |
| 20260507223404 | 14 | 174 | 3.2 | 12.9 | 0.00 | 0.15 | 0.00 | 40 | 1013.2 |
| 20260507223304 | 14 | 352 | 3.2 | 12.9 | 0.00 | 0.15 | 0.00 | 39 | 1013.2 |
| 20260507223204 | 14 | 165 | 3.2 | 12.9 | 0.00 | 0.15 | 0.00 | 39 | 1013.2 |
| 20260507223104 | 14 | 187 | 3.2 | 16.1 | 0.00 | 0.15 | 0.00 | 39 | 1013.2 |
| 20260507223004 | 14 | 267 | 3.2 | 16.1 | 0.00 | 0.15 | 0.00 | 39 | 1013.2 |
| 20260507222904 | 14 | 6 | 4.8 | 16.1 | 0.00 | 0.15 | 0.00 | 39 | 1013.2 |
| 20260507222804 | 14 | 248 | 6.4 | 17.7 | 0.00 | 0.15 | 0.00 | 38 | 1013.2 |
| 20260507222704 | 14 | 169 | 4.8 | 17.7 | 0.00 | 0.15 | 0.00 | 38 | 1013.2 |
| 20260507222604 | 14 | 224 | 1.6 | 17.7 | 0.00 | 0.15 | 0.00 | 40 | 1013.2 |
| 20260507222504 | 14 | 260 | 3.2 | 19.3 | 0.00 | 0.15 | 0.00 | 39 | 1013.2 |
| 20260507222404 | 14 | 228 | 3.2 | 19.3 | 0.00 | 0.15 | 0.00 | 39 | 1013.2 |
| 20260507222306 | 14 | 238 | 4.8 | 19.3 | 0.00 | 0.15 | 0.00 | 39 | 1013.2 |
| 20260507222204 | 14 | 316 | 9.7 | 19.3 | 0.00 | 0.15 | 0.00 | 38 | 1013.2 |
| 20260507222104 | 14 | 273 | 6.4 | 19.3 | 0.00 | 0.15 | 0.00 | 38 | 1013.2 |
| 20260507222004 | 14 | 256 | 6.4 | 19.3 | 0.00 | 0.15 | 0.00 | 37 | 1013.2 |
| 20260507221904 | 14 | 278 | 11.3 | 19.3 | 0.00 | 0.15 | 0.00 | 37 | 1013.2 |
| 20260507221804 | 15 | 270 | 9.7 | 19.3 | 0.00 | 0.15 | 0.00 | 37 | 1013.2 |
| 20260507221704 | 15 | 273 | 9.7 | 19.3 | 0.00 | 0.15 | 0.00 | 37 | 1013.2 |
| 20260507221604 | 15 | 295 | 11.3 | 19.3 | 0.00 | 0.15 | 0.00 | 37 | 1013.2 |
| 20260507221504 | 15 | 311 | 6.4 | 12.9 | 0.00 | 0.15 | 0.00 | 38 | 1013.2 |
| 20260507221404 | 15 | 274 | 6.4 | 12.9 | 0.00 | 0.15 | 0.00 | 38 | 1013.2 |
| 20260507221304 | 15 | 217 | 4.8 | 8.0 | 0.00 | 0.15 | 0.00 | 38 | 1013.2 |
| 20260507221204 | 15 | 217 | 1.6 | 8.0 | 0.00 | 0.15 | 0.00 | 38 | 1013.2 |
| 20260507221104 | 15 | 287 | 1.6 | 8.0 | 0.00 | 0.15 | 0.00 | 38 | 1013.2 |
| 20260507221004 | 15 | 226 | 1.6 | 9.7 | 0.00 | 0.15 | 0.00 | 37 | 1013.2 |
| 20260507220904 | 15 | 250 | 3.2 | 11.3 | 0.00 | 0.15 | 0.00 | 37 | 1013.2 |